Date StartTime U_cm/s V_cm/s W_cm/s Ustd_cm/s Vstd_cm/s Wstd_cm/s Uvar_(cm/s)^2 Vvar_(cm/s)^2 Wvar_(cm/s)^2 KE_(m/s)^2 TurbulentKE_(m/s)^2 HorizWindSpeed_cm/s FrictionSpeec_cm/s DragCoef SpeedOfSound_m/s SonicTemperature_C Pressure_mb 
07/12/2014  00:00:00      -66.239       27.438       -9.325       25.372       33.143       17.558      643.750     1098.444      308.276        0.364        0.103       71.697       16.438        0.053      346.349       24.535      864.327
07/12/2014  00:01:00      -45.263       46.899      -10.014       33.744       28.278       18.592     1138.648      799.652      345.666        0.332        0.114       65.178       19.845        0.093      346.321       24.484      864.357
07/12/2014  00:02:00      -77.144       68.312      -14.231       45.060       43.246       22.711     2030.392     1870.235      515.801        0.762        0.221      103.042       18.942        0.034      346.288       24.428      864.382
07/12/2014  00:03:00     -178.522       99.060      -17.163       68.422      133.968       52.519     4681.586    17947.505     2758.215        3.368        1.269      204.164       44.172        0.047      346.340       24.514      864.385
07/12/2014  00:04:00      -55.894      -32.787       -4.290      104.601       68.756       40.237    10941.377     4727.335     1619.053        1.075        0.864       64.800       39.310        0.368      346.373       24.572      864.363
07/12/2014  00:05:00      -66.464       74.846      -10.992       37.346       44.594       28.171     1394.709     1988.633      793.584        0.716        0.209      100.097       25.651        0.066      346.281       24.415      864.381
07/12/2014  00:06:00      -60.043      134.611      -19.131       62.910       69.673       24.443     3957.606     4854.370      597.467        1.575        0.470      147.395       27.005        0.034      346.245       24.353      864.385
07/12/2014  00:07:00       55.015      154.966      -14.501       61.670       58.976       40.235     3803.148     3478.211     1618.884        1.807        0.445      164.441       36.799        0.050      346.243       24.349      864.377
07/12/2014  00:08:00       53.276       75.058        1.077       53.265       43.312       33.897     2837.109     1875.951     1149.035        0.717        0.293       92.043       28.534        0.096      346.227       24.323      864.367
07/12/2014  00:09:00       35.627      136.955      -18.956       39.932       44.774       28.215     1594.555     2004.749      796.092        1.239        0.220      141.513       25.642        0.033      346.194       24.266      864.374
07/12/2014  00:10:00       -8.959      189.317      -29.566       46.078       42.649       25.841     2123.168     1818.977      667.752        2.070        0.230      189.529       18.964        0.010      346.161       24.208      864.389
07/12/2014  00:11:00      -20.134      204.629      -37.219       47.702       60.426       26.418     2275.466     3651.309      697.919        2.514        0.331      205.617       27.633        0.018      346.129       24.150      864.388
07/12/2014  00:12:00      -17.242      224.526      -21.122       40.162       65.929       36.103     1612.960     4346.590     1303.447        2.921        0.363      225.187       35.496        0.025      346.150       24.187      864.368
07/12/2014  00:13:00      -15.057      221.405      -35.487       47.354       59.872       27.682     2242.420     3584.685      766.273        2.855        0.330      221.917       24.428        0.012      346.187       24.251      864.350
07/12/2014  00:14:00      -58.929      191.655      -28.262       47.322       62.121       28.167     2239.419     3859.012      793.406        2.395        0.345      200.510       30.968        0.024      346.144       24.177      864.350
07/12/2014  00:15:00      -57.488      177.457      -21.311       34.122       54.723       31.534     1164.279     2994.631      994.408        2.020        0.258      186.536       21.606        0.013      346.140       24.170      864.347
07/12/2014  00:16:00     -128.410      164.858      -24.576       63.476       72.315       48.346     4029.175     5229.498     2337.370        2.793        0.580      208.967       43.599        0.044      346.126       24.144      864.364
07/12/2014  00:17:00      -59.188      123.006       -4.494       44.400       64.323       30.893     1971.358     4137.424      954.379        1.286        0.353      136.505       26.648        0.038      346.075       24.062      864.370
07/12/2014  00:18:00      -30.269      197.273      -19.864       79.884       63.940       36.537     6381.497     4088.318     1334.932        2.601        0.590      199.582       30.027        0.023      346.089       24.082      864.366
07/12/2014  00:19:00      -94.367      179.036      -31.435       39.375      105.219       28.639     1550.364    11071.023      820.177        2.769        0.672      202.383       38.623        0.036      346.203       24.280      864.370
07/12/2014  00:20:00      -72.735      105.807      -10.478       45.468       63.565       27.081     2067.346     4040.456      733.402        1.172        0.342      128.396       23.885        0.035      346.105       24.112      864.384
07/12/2014  00:21:00      -87.236      197.319      -25.192       33.106       55.063       31.988     1096.012     3031.929     1023.245        2.616        0.258      215.742       25.784        0.014      346.128       24.148      864.386
07/12/2014  00:22:00      -80.988       69.317      -12.390       50.889       52.659       30.762     2589.736     2772.930      946.325        0.891        0.315      106.602       24.186        0.051      346.062       24.039      864.392
07/12/2014  00:23:00     -126.620       75.141      -21.091       31.401       43.999       24.906      986.008     1935.881      620.288        1.283        0.177      147.237       20.276        0.019      346.106       24.114      864.402
07/12/2014  00:24:00     -107.861       71.606      -18.637       38.112       36.039       23.679     1452.496     1298.846      560.679        1.021        0.166      129.465       19.934        0.024      346.111       24.123      864.426
07/12/2014  00:25:00      -96.519      107.796      -21.466       39.943       49.994       27.702     1595.422     2499.442      767.408        1.313        0.243      144.692       20.663        0.020      346.103       24.109      864.440
07/12/2014  00:26:00      -77.196       46.293       -6.332       69.430       52.823       26.713     4820.585     2790.254      713.572        0.823        0.416       90.012       15.530        0.030      346.101       24.102      864.434
07/12/2014  00:27:00      -98.012       59.036       -1.163       93.196       50.871       39.814     8685.526     2587.884     1585.135        1.297        0.643      114.418       33.368        0.085      346.074       24.061      864.446
07/12/2014  00:28:00     -105.861      102.463      -28.362       37.195       31.733       24.404     1383.495     1006.977      595.531        1.275        0.149      147.327       22.534        0.023      346.089       24.083      864.446
07/12/2014  00:29:00      -71.144       28.053       -9.381       29.892       38.013       20.983      893.549     1444.988      440.299        0.436        0.139       76.475       15.321        0.040      346.069       24.052      864.442
07/12/2014  00:30:00     -111.586       88.447      -34.043       67.336       83.142       32.300     4534.079     6912.638     1043.316        1.696        0.625      142.388       36.939        0.067      346.069       24.049      864.459
07/12/2014  00:31:00     -115.994       75.668      -18.140       83.887       64.180       39.142     7037.016     4119.020     1532.111        1.610        0.634      138.493       50.543        0.133      346.052       24.020      864.455
07/12/2014  00:32:00     -116.059       -4.894       -8.891       63.679       46.531       22.769     4055.027     2165.123      518.407        1.015        0.337      116.162       14.845        0.016      346.008       23.946      864.447
07/12/2014  00:33:00     -149.447       50.949       -8.953       81.010       58.973       38.650     6562.619     3477.781     1493.799        1.827        0.577      157.893       39.121        0.061      346.010       23.947      864.458
07/12/2014  00:34:00     -120.306       79.489      -18.254       47.340       45.777       29.358     2241.076     2095.500      861.921        1.316        0.260      144.195       22.483        0.024      345.989       23.914      864.464
07/12/2014  00:35:00     -124.964       54.328      -20.018       39.548       39.590       24.703     1564.034     1567.405      610.261        1.135        0.187      136.262       20.934        0.024      345.986       23.909      864.476
07/12/2014  00:36:00     -120.778      176.974      -22.901       46.927       78.960       38.803     2202.128     6234.667     1505.647        2.819        0.497      214.260       34.364        0.026      345.986       23.905      864.482
07/12/2014  00:37:00     -135.461      158.556      -36.945       60.217       72.092       33.330     3626.129     5197.194     1110.890        2.739        0.497      208.542       37.510        0.032      346.004       23.936      864.476
07/12/2014  00:38:00      -82.845       73.187      -11.949       52.894       31.618       30.105     2797.732      999.703      906.284        0.853        0.235      110.543       27.731        0.063      345.931       23.815      864.483
07/12/2014  00:39:00     -129.876       94.045      -26.346       61.867       91.359       38.157     3827.562     8346.461     1455.922        2.002        0.681      160.351       39.571        0.061      345.997       23.925      864.507
07/12/2014  00:40:00     -212.997      255.390      -57.975       66.219       68.133       39.576     4384.943     4642.122     1566.260        6.227        0.530      332.553       32.955        0.010      346.055       24.022      864.521
07/12/2014  00:41:00     -155.676      137.537      -17.775       58.055       82.225       48.154     3370.373     6760.935     2318.844        2.796        0.623      207.729       40.422        0.038      346.013       23.952      864.534
07/12/2014  00:42:00     -135.309      157.963      -25.581       76.578       59.616       48.514     5864.231     3554.109     2353.597        2.784        0.589      207.992       44.331        0.045      346.002       23.933      864.536
07/12/2014  00:43:00     -117.839       99.918      -16.447       46.872       52.583       40.743     2196.954     2764.937     1659.968        1.538        0.331      154.498       31.791        0.042      345.980       23.898      864.553
07/12/2014  00:44:00      -87.611        4.915       -9.419       42.619       69.663       27.411     1816.389     4852.919      751.367        0.760        0.371       87.748       21.316        0.059      345.946       23.841      864.557
07/12/2014  00:45:00     -123.257      -24.592       -8.322       74.183       83.709       41.154     5503.091     7007.265     1693.669        1.503        0.710      125.687       42.813        0.116      345.933       23.818      864.558
07/12/2014  00:46:00     -237.478      -83.931       -6.219       91.704       97.554       48.215     8409.698     9516.773     2324.696        4.186        1.013      251.873       45.992        0.033      345.956       23.855      864.545
07/12/2014  00:47:00     -292.006        8.406      -18.885       89.990       79.234       43.228     8098.204     6277.978     1868.640        5.097        0.812      292.127       36.064        0.015      345.921       23.793      864.566
07/12/2014  00:48:00     -277.802      -51.553      -25.405       73.176       78.311       39.400     5354.677     6132.585     1552.369        4.676        0.652      282.545       31.691        0.013      345.907       23.769      864.566
07/12/2014  00:49:00     -157.914      -15.761      -24.413       75.692       70.870       37.424     5729.310     5022.514     1400.569        1.896        0.608      158.699       30.604        0.037      345.872       23.712      864.567
07/12/2014  00:50:00     -217.030      -31.653      -20.134       66.576       55.798       36.059     4432.350     3113.394     1300.230        2.868        0.442      219.326       30.450        0.019      345.863       23.694      864.559
07/12/2014  00:51:00     -200.888      -55.581       -2.812       77.211       50.013       27.790     5961.609     2501.340      772.267        2.634        0.462      208.435       28.965        0.019      345.802       23.590      864.563
07/12/2014  00:52:00     -224.506       -9.747      -19.825       58.916       59.354       27.927     3471.152     3522.927      779.914        2.933        0.389      224.717       28.074        0.016      345.798       23.585      864.575
07/12/2014  00:53:00     -255.509      -13.396      -13.774       70.916       74.561       34.463     5029.027     5559.370     1187.686        3.871        0.589      255.860       32.099        0.016      345.775       23.543      864.572
07/12/2014  00:54:00     -183.059      -56.858      -10.551       55.314       41.925       25.185     3059.673     1757.747      634.266        2.115        0.273      191.686        8.109        0.002      345.765       23.528      864.581
07/12/2014  00:55:00     -162.516      -38.649      -16.075       53.152       35.036       25.347     2825.166     1227.509      642.474        1.643        0.235      167.048       21.928        0.017      345.728       23.465      864.588
07/12/2014  00:56:00     -193.445      -34.075      -16.044       54.509       45.269       25.782     2971.237     2049.278      664.702        2.226        0.284      196.424       11.448        0.003      345.747       23.498      864.595
07/12/2014  00:57:00     -126.089      -61.788       -0.410       53.590       44.239       37.291     2871.914     1957.126     1390.638        1.297        0.311      140.415       33.353        0.056      345.702       23.421      864.586
07/12/2014  00:58:00     -180.961      -44.562      -16.963       48.705       46.935       32.900     2372.159     2202.859     1082.427        2.034        0.283      186.367       25.323        0.018      345.701       23.417      864.579
07/12/2014  00:59:00     -188.111      -57.004      -22.907       66.116       63.968       30.810     4371.390     4091.940      949.257        2.428        0.471      196.558       29.918        0.023      345.652       23.332      864.594
07/12/2014  01:00:00     -176.316      -23.233       -1.309       85.302       67.935       47.466     7276.401     4615.103     2253.018        2.288        0.707      177.841       48.895        0.076      345.599       23.241      864.602
07/12/2014  01:01:00     -254.654       29.353      -23.998       54.705       56.538       29.086     2992.589     3196.574      845.974        3.666        0.352      256.340       25.177        0.010      345.639       23.308      864.618
07/12/2014  01:02:00     -165.018      -26.833      -16.601       60.992       74.709       32.098     3720.044     5581.369     1030.306        1.928        0.517      167.185       31.665        0.036      345.564       23.183      864.627
07/12/2014  01:03:00     -201.892      -29.419      -13.295       56.926       59.273       36.617     3240.530     3513.328     1340.806        2.495        0.405      204.024       32.583        0.026      345.511       23.090      864.632
07/12/2014  01:04:00     -133.371      -55.935      -25.241       49.363       42.941       28.003     2436.699     1843.946      784.156        1.331        0.253      144.626       15.400        0.011      345.538       23.139      864.635
07/12/2014  01:05:00     -117.846       -8.273        0.556       65.084       55.970       32.671     4235.939     3132.662     1067.373        1.119        0.422      118.136       27.797        0.055      345.509       23.088      864.614
07/12/2014  01:06:00     -182.041        8.316      -20.395       65.249       54.062       32.886     4257.466     2922.753     1081.515        2.094        0.413      182.231       26.821        0.022      345.488       23.053      864.604
07/12/2014  01:07:00     -134.881      -17.191       -3.813       71.989       65.362       33.601     5182.414     4272.158     1129.060        1.454        0.529      135.972       37.814        0.077      345.456       22.998      864.602
07/12/2014  01:08:00     -205.255      -20.374       -6.954       66.966       69.070       31.228     4484.405     4770.608      975.159        2.641        0.512      206.264       32.387        0.025      345.456       22.994      864.590
07/12/2014  01:09:00     -131.695      -66.526       -4.228       79.724       61.203       28.895     6355.928     3745.750      834.936        1.636        0.547      147.544       34.504        0.055      345.482       23.041      864.583
07/12/2014  01:10:00     -133.459      -32.943       -8.545       73.942       56.177       34.389     5467.389     3155.909     1182.576        1.439        0.490      137.465       35.307        0.066      345.462       23.008      864.587
07/12/2014  01:11:00     -196.585      -45.390      -11.733       77.732       53.132       39.886     6042.267     2823.050     1590.877        2.565        0.523      201.757       38.334        0.036      345.532       23.127      864.593
07/12/2014  01:12:00     -171.194      -60.829        3.630       77.186       60.131       35.449     5957.711     3615.782     1256.621        2.192        0.542      181.680       36.719        0.041      345.502       23.076      864.606
07/12/2014  01:13:00     -154.412      -31.509       -6.352       62.037       54.396       30.717     3848.572     2958.941      943.548        1.631        0.388      157.594       30.165        0.037      345.532       23.128      864.612
07/12/2014  01:14:00     -118.600      -50.101        3.668       69.585       67.501       36.884     4842.049     4556.374     1360.397        1.367        0.538      128.748       39.601        0.095      345.511       23.091      864.612
07/12/2014  01:15:00     -223.940      -73.157      -11.529       95.856       66.758       36.754     9188.360     4456.584     1350.833        3.531        0.750      235.586       40.394        0.029      345.562       23.180      864.607
07/12/2014  01:16:00     -165.726      -57.185       -5.821       89.437       59.225       38.475     7998.970     3507.585     1480.331        2.188        0.649      175.314       44.337        0.064      345.549       23.158      864.619
07/12/2014  01:17:00     -127.315      -43.658        8.878       79.902       56.600       40.734     6384.351     3203.591     1659.264        1.472        0.562      134.592       42.742        0.101      345.532       23.128      864.621
07/12/2014  01:18:00     -199.787      -51.788      -12.826       87.849       73.975       48.491     7717.484     5472.303     2351.347        2.915        0.777      206.390       51.186        0.062      345.567       23.189      864.619
07/12/2014  01:19:00     -147.455      -32.490      -10.064       66.925       73.800       41.795     4478.921     5446.388     1746.804        1.728        0.584      150.993       33.482        0.049      345.600       23.246      864.621
07/12/2014  01:20:00     -194.104      -24.439       -8.908       80.658       64.583       36.938     6505.700     4171.012     1364.430        2.519        0.602      195.636       36.072        0.034      345.630       23.296      864.642
07/12/2014  01:21:00     -120.852      -45.635        5.766       79.016       48.954       38.027     6243.557     2396.522     1446.037        1.340        0.504      129.181       43.271        0.112      345.618       23.276      864.645
07/12/2014  01:22:00     -121.590      -40.513       -5.947       46.090       44.527       20.760     2124.247     1982.628      430.962        1.050        0.227      128.162       17.708        0.019      345.591       23.230      864.647
07/12/2014  01:23:00     -160.907      -15.080      -13.494       39.998       30.300       24.546     1599.849      918.108      602.484        1.471        0.156      161.612       19.028        0.014      345.566       23.190      864.643
07/12/2014  01:24:00     -105.213      -25.955       -1.786       74.482       52.373       37.552     5547.603     2742.952     1410.186        1.072        0.485      108.368       39.104        0.130      345.577       23.206      864.645
07/12/2014  01:25:00      -92.895      -39.257        1.572       61.628       49.344       30.700     3797.963     2434.860      942.496        0.867        0.359      100.850       38.787        0.148      345.561       23.181      864.648
07/12/2014  01:26:00      -97.455      -34.728       -7.597       58.319       50.625       23.678     3401.124     2562.934      560.667        0.864        0.326      103.458       25.695        0.062      345.524       23.114      864.647
07/12/2014  01:27:00     -181.560      -30.385       -9.250      105.468       50.492       34.307    11123.509     2549.480     1176.945        2.441        0.742      184.085       39.609        0.046      345.534       23.133      864.640
07/12/2014  01:28:00     -174.040       -1.794       -7.490       69.511       51.035       33.261     4831.823     2604.570     1106.284        1.944        0.427      174.049       27.776        0.025      345.518       23.102      864.646
07/12/2014  01:29:00     -179.550      -30.015      -23.600       66.660       54.494       30.173     4443.610     2969.602      910.426        2.101        0.416      182.042       29.489        0.026      345.545       23.152      864.647
07/12/2014  01:30:00     -170.740      -42.018       -2.964       68.232       48.024       30.695     4655.607     2306.265      942.178        1.941        0.395      175.835       30.188        0.029      345.512       23.092      864.654
07/12/2014  01:31:00     -126.309      -12.182       -2.412       49.938       32.128       24.951     2493.812     1032.207      622.548        1.013        0.207      126.895       24.260        0.037      345.496       23.066      864.666
07/12/2014  01:32:00     -158.212      -11.601      -10.716       41.687       43.352       31.639     1737.818     1879.422     1001.035        1.495        0.231      158.637       25.748        0.026      345.489       23.055      864.673
07/12/2014  01:33:00      -93.374      -32.955        2.427       48.042       59.861       28.692     2308.044     3583.295      823.250        0.826        0.336       99.018       30.216        0.093      345.500       23.074      864.674
07/12/2014  01:34:00     -112.584      -25.891       -5.797       67.603       41.505       29.706     4570.112     1722.690      882.441        1.028        0.359      115.523       34.821        0.091      345.498       23.070      864.683
07/12/2014  01:35:00     -156.140      -30.082      -11.715       42.632       43.989       31.371     1817.516     1935.062      984.152        1.508        0.237      159.011       23.216        0.021      345.484       23.046      864.696
07/12/2014  01:36:00     -195.837      -93.115      -10.185       75.700       57.205       40.611     5730.472     3272.427     1649.228        2.889        0.533      216.847       32.798        0.023      345.508       23.084      864.695
07/12/2014  01:37:00     -216.399      -78.759      -20.442       51.821       52.511       32.985     2685.453     2757.407     1088.041        2.999        0.327      230.285       29.113        0.016      345.543       23.145      864.687
07/12/2014  01:38:00     -249.950      -61.016      -14.973       82.445       64.671       47.027     6797.183     4182.306     2211.507        3.980        0.660      257.290       48.446        0.035      345.590       23.225      864.678
07/12/2014  01:39:00     -216.849      -25.426       -7.825       69.923       56.941       37.641     4889.253     3242.277     1416.875        2.864        0.477      218.335       35.776        0.027      345.720       23.448      864.666
07/12/2014  01:40:00     -190.230      -34.067       -3.178       80.036       50.852       38.624     6405.760     2585.885     1491.852        2.392        0.524      193.256       36.930        0.037      345.712       23.435      864.653
07/12/2014  01:41:00     -176.851      -45.492      -13.041       78.625       39.453       31.057     6181.876     1556.516      964.558        2.111        0.435      182.608       30.987        0.029      345.693       23.403      864.644
07/12/2014  01:42:00      -98.151      -73.600        5.333       60.917       48.203       30.769     3710.903     2323.512      946.760        1.103        0.349      122.681       27.874        0.052      345.622       23.283      864.639
07/12/2014  01:43:00     -177.749      -84.693       -8.847       50.891       47.848       25.351     2589.874     2289.406      642.685        2.218        0.276      196.895       22.961        0.014      345.662       23.351      864.624
07/12/2014  01:44:00     -199.030      -90.926       -3.486       53.453       42.284       27.260     2857.236     1787.944      743.114        2.664        0.269      218.816       19.450        0.008      345.657       23.340      864.614
07/12/2014  01:45:00     -192.887     -102.141       -6.211       69.082       34.712       25.204     4772.362     1204.905      635.232        2.714        0.331      218.262       22.493        0.011      345.652       23.330      864.592
07/12/2014  01:46:00     -149.939      -43.028       -9.917       37.401       58.425       27.556     1398.798     3413.464      759.316        1.500        0.279      155.990       15.111        0.009      345.606       23.255      864.584
07/12/2014  01:47:00     -101.149      -69.517        5.140       39.559       42.563       31.699     1564.901     1811.600     1004.825        0.973        0.219      122.734       26.083        0.045      345.597       23.240      864.562
07/12/2014  01:48:00     -103.230      -47.894       -2.391       41.609       32.858       24.534     1731.315     1079.679      601.908        0.818        0.171      113.799       18.791        0.027      345.594       23.236      864.547
07/12/2014  01:49:00     -128.088      -87.546        1.473       77.855       60.924       40.244     6061.324     3711.677     1619.566        1.773        0.570      155.148       32.122        0.043      345.595       23.236      864.519
07/12/2014  01:50:00     -184.877      -86.633       -9.556      134.607       61.669       38.631    18119.130     3803.033     1492.324        3.259        1.171      204.168       51.884        0.065      345.613       23.265      864.502
07/12/2014  01:51:00     -136.538      -65.869        3.865       87.373       57.127       36.433     7633.980     3263.517     1327.342        1.761        0.611      151.596       38.174        0.063      345.544       23.148      864.494
07/12/2014  01:52:00      -97.773      -67.768        3.669       66.813       59.645       31.998     4464.018     3557.527     1023.881        1.160        0.452      118.963       32.575        0.075      345.552       23.163      864.487
07/12/2014  01:53:00     -149.479      -71.782       -6.226       87.723       54.864       35.609     7695.274     3010.033     1268.000        1.975        0.599      165.820       26.986        0.026      345.503       23.076      864.487
07/12/2014  01:54:00     -192.576      -37.111       -8.531       84.861       51.588       34.768     7201.419     2661.274     1208.804        2.480        0.554      196.119       33.319        0.029      345.455       22.994      864.494
07/12/2014  01:55:00     -210.492      -27.874       -6.989       58.895       49.767       32.880     3468.619     2476.715     1081.070        2.608        0.351      212.329       33.869        0.025      345.471       23.021      864.507
07/12/2014  01:56:00     -144.447      -24.801       -0.700       65.277       40.109       27.545     4261.051     1608.763      758.731        1.405        0.331      146.561       28.248        0.037      345.441       22.971      864.502
07/12/2014  01:57:00     -136.294      -62.630        8.613       64.590       39.521       32.542     4171.847     1561.880     1058.966        1.468        0.340      149.996       36.793        0.060      345.414       22.927      864.500
07/12/2014  01:58:00     -207.111      -59.987       -8.985       47.107       37.873       24.731     2219.095     1434.349      611.627        2.542        0.213      215.623       25.154        0.014      345.483       23.042      864.496
07/12/2014  01:59:00     -204.059      -43.835       -2.688       52.963       53.292       34.691     2805.058     2840.082     1203.433        2.521        0.342      208.714       27.214        0.017      345.482       23.041      864.495
07/12/2014  02:00:00     -195.074      -50.993        0.409       70.973       62.301       35.089     5037.119     3881.422     1231.261        2.540        0.507      201.629       40.193        0.040      345.451       22.988      864.500
07/12/2014  02:01:00     -115.032      -38.320        9.372       76.389       53.508       28.836     5835.255     2863.100      831.504        1.216        0.476      121.247       32.672        0.073      345.362       22.836      864.495
07/12/2014  02:02:00     -223.435      -55.830       -4.032       81.487       69.000       41.568     6640.191     4761.065     1727.872        3.309        0.656      230.305       39.459        0.029      345.442       22.971      864.489
07/12/2014  02:03:00     -183.066      -64.990        1.220       66.987       66.129       38.903     4487.251     4373.088     1513.462        2.405        0.519      194.260       34.957        0.032      345.398       22.896      864.481
07/12/2014  02:04:00     -157.461      -44.792        1.287      104.681       73.292       45.457    10958.052     5371.648     2066.352        2.260        0.920      163.708       51.599        0.099      345.431       22.955      864.482
07/12/2014  02:05:00     -226.610       -7.892      -11.564       78.560       83.670       45.427     6171.746     7000.600     2063.651        3.339        0.762      226.747       43.661        0.037      345.469       23.017      864.490
07/12/2014  02:06:00     -246.085      -50.134      -18.031       76.977       60.119       39.521     5925.431     3614.313     1561.934        3.725        0.555      251.140       32.468        0.017      345.477       23.032      864.492
07/12/2014  02:07:00     -232.321      -17.913      -22.429       73.012       64.998       41.210     5330.693     4224.683     1698.231        3.302        0.563      233.011       36.771        0.025      345.480       23.036      864.492
07/12/2014  02:08:00     -202.418      -49.994      -12.922       77.244       53.867       27.865     5966.668     2901.658      776.478        2.664        0.482      208.501       28.542        0.019      345.444       22.974      864.483
07/12/2014  02:09:00     -168.069      -83.719       -1.831       69.511       51.274       35.527     4831.789     2629.045     1262.196        2.199        0.436      187.766       30.913        0.027      345.411       22.919      864.476
07/12/2014  02:10:00     -201.407      -68.466      -10.686       53.836       49.779       31.863     2898.269     2477.999     1015.268        2.588        0.320      212.726       21.349        0.010      345.392       22.886      864.466
07/12/2014  02:11:00     -173.697      -49.872      -12.604       47.068       36.184       25.891     2215.401     1309.268      670.336        1.851        0.210      180.715       25.588        0.020      345.348       22.813      864.463
07/12/2014  02:12:00     -150.870      -27.337      -20.899       42.811       51.336       29.878     1832.748     2635.344      892.670        1.465        0.268      153.327       25.295        0.027      345.322       22.770      864.455
07/12/2014  02:13:00     -150.359      -28.484      -14.634       35.952       30.736       19.634     1292.544      944.730      385.488        1.313        0.131      153.033       17.901        0.014      345.338       22.795      864.448
07/12/2014  02:14:00     -140.154      -51.280       -6.149       50.749       55.481       31.117     2575.472     3078.132      968.254        1.446        0.331      149.241       31.262        0.044      345.274       22.686      864.453
07/12/2014  02:15:00     -110.056      -61.982        6.121       75.836       37.337       27.437     5751.139     1394.048      752.770        1.194        0.395      126.310       35.074        0.077      345.255       22.655      864.453
07/12/2014  02:16:00     -110.059      -41.002        1.168       45.336       69.703       33.804     2055.338     4858.526     1142.698        1.092        0.403      117.448       31.680        0.073      345.271       22.682      864.463
07/12/2014  02:17:00     -119.781      -22.325        6.502       88.150       63.975       35.343     7770.411     4092.799     1249.149        1.400        0.656      121.843       23.330        0.037      345.344       22.806      864.487
07/12/2014  02:18:00     -171.696      -31.493       -6.335       60.255       51.002       32.427     3630.690     2601.215     1051.484        1.890        0.364      174.561       27.418        0.025      345.316       22.758      864.508
07/12/2014  02:19:00     -169.633      -57.251      -11.673       55.517       53.153       31.813     3082.161     2825.252     1012.045        1.955        0.346      179.034       32.484        0.033      345.319       22.761      864.525
07/12/2014  02:20:00     -161.983      -85.899        2.938       66.078       49.566       32.799     4366.280     2456.757     1075.785        2.076        0.395      183.350       28.014        0.023      345.354       22.822      864.547
07/12/2014  02:21:00     -151.083      -53.660       -4.260       50.001       40.240       33.283     2500.115     1619.255     1107.751        1.547        0.261      160.330       30.859        0.037      345.277       22.692      864.561
07/12/2014  02:22:00     -114.152      -45.144       -2.230       66.547       39.154       28.914     4428.490     1533.060      836.019        1.093        0.340      122.755       35.198        0.082      345.249       22.644      864.561
07/12/2014  02:23:00     -116.995      -69.073        4.205       65.840       51.566       30.182     4334.902     2659.026      910.936        1.319        0.395      135.864       34.664        0.065      345.151       22.478      864.567
07/12/2014  02:24:00     -106.811      -56.182       -2.168       56.364       43.359       25.677     3176.873     1879.999      659.321        1.014        0.286      120.685       26.078        0.047      345.145       22.466      864.559
07/12/2014  02:25:00     -105.453      -71.999       -3.155       59.146       50.568       30.280     3498.265     2557.108      916.855        1.164        0.349      127.688       24.326        0.036      345.169       22.507      864.548
07/12/2014  02:26:00     -171.288      -87.147        0.502       56.446       40.077       29.106     3186.169     1606.158      847.132        2.129        0.282      192.183       31.099        0.026      345.186       22.534      864.544
07/12/2014  02:27:00     -128.258      -89.360       -8.109       75.043       51.845       24.402     5631.494     2687.929      595.448        1.671        0.446      156.318       24.297        0.024      345.278       22.693      864.530
07/12/2014  02:28:00      -69.833      -56.343        7.801       63.444       46.005       30.922     4025.100     2116.494      956.173        0.760        0.355       89.728       35.313        0.155      345.217       22.589      864.532
07/12/2014  02:29:00     -128.306      -55.704       -6.425       55.471       51.258       29.922     3077.064     2627.367      895.326        1.310        0.330      139.876       31.913        0.052      345.202       22.562      864.530
07/12/2014  02:30:00      -96.407      -14.803        1.886       39.030       50.463       27.054     1523.332     2546.518      731.900        0.716        0.240       97.537       20.658        0.045      345.115       22.416      864.530
07/12/2014  02:31:00     -172.676      -38.156       -6.736       49.092       50.643       30.356     2410.016     2564.719      921.492        1.861        0.295      176.841       26.216        0.022      345.097       22.384      864.529
07/12/2014  02:32:00     -139.015      -46.778        0.116       41.055       38.285       25.919     1685.488     1465.712      671.785        1.267        0.191      146.674       23.960        0.027      345.086       22.366      864.537
07/12/2014  02:33:00      -71.127      -31.396        2.342       48.932       31.860       20.516     2394.351     1015.046      420.922        0.494        0.192       77.748       16.112        0.043      345.104       22.395      864.543
07/12/2014  02:34:00      -81.078      -10.020       -4.227       44.180       28.492       20.450     1951.870      811.778      418.190        0.494        0.159       81.695       18.457        0.051      345.130       22.442      864.553
07/12/2014  02:35:00        0.342       -6.325       17.178       37.257       47.854       26.445     1388.096     2290.034      699.352        0.236        0.219        6.334       26.111       16.994      345.061       22.325      864.561
07/12/2014  02:36:00       39.584       25.213       29.948       19.243       14.888       17.039      370.294      221.659      290.325        0.199        0.044       46.932        8.003        0.029      345.086       22.368      864.573
07/12/2014  02:37:00       25.310        7.204       -0.763       19.487       22.277       15.356      379.758      496.275      235.800        0.090        0.056       26.316       11.418        0.188      345.099       22.391      864.586
07/12/2014  02:38:00        2.820      -99.170       -6.137       19.494       21.192       16.646      380.030      449.099      277.102        0.549        0.055       99.211        8.414        0.007      345.100       22.389      864.593
07/12/2014  02:39:00       37.951     -121.714        4.822       33.042       24.699       19.515     1091.761      610.056      380.846        0.918        0.104      127.493       15.165        0.014      345.117       22.420      864.590
07/12/2014  02:40:00       18.935     -107.922       -3.985       25.664       47.545       26.019      658.664     2260.549      676.969        0.781        0.180      109.570       13.588        0.015      345.101       22.393      864.583
07/12/2014  02:41:00       -4.218      -92.809        7.516       21.688       24.571       20.102      470.358      603.717      404.074        0.508        0.074       92.905        5.996        0.004      345.119       22.422      864.574
07/12/2014  02:42:00      -50.982      -49.330       -2.816       57.951       30.215       23.612     3358.324      912.927      557.522        0.493        0.241       70.941       27.390        0.149      345.089       22.373      864.575
07/12/2014  02:43:00      -79.503      -40.220        3.259       68.960       25.674       23.302     4755.419      659.155      543.006        0.695        0.298       89.098       33.790        0.144      345.074       22.344      864.584
07/12/2014  02:44:00      -62.334      -17.204        3.019       37.169       23.038       19.786     1381.528      530.728      391.483        0.325        0.115       64.664       19.938        0.095      344.943       22.120      864.586
07/12/2014  02:45:00     -115.951      -26.403       -1.443       32.379       23.835       21.413     1048.370      568.131      458.521        0.811        0.104      118.919       17.481        0.022      345.001       22.221      864.588
07/12/2014  02:46:00      -85.947      -11.791        1.188       35.303       21.179       17.489     1246.320      448.570      305.860        0.476        0.100       86.752       16.883        0.038      344.941       22.117      864.590
07/12/2014  02:47:00     -134.480      -57.845       -1.490       19.501       24.875       14.098      380.271      618.752      198.762        1.132        0.060      146.393        5.037        0.001      344.928       22.095      864.596
07/12/2014  02:48:00     -119.629      -54.139       -1.526       39.813       38.570       20.287     1585.076     1487.663      411.546        1.036        0.174      131.309       20.564        0.025      344.866       21.989      864.598
07/12/2014  02:49:00      -73.761      -74.381       -2.063       38.583       29.555       18.906     1488.659      873.521      357.454        0.685        0.136      104.753       19.127        0.033      344.970       22.168      864.590
07/12/2014  02:50:00      -95.391      -61.777       -6.568       31.494       22.623       17.572      991.872      511.807      308.767        0.739        0.091      113.648       15.025        0.017      344.920       22.079      864.582
07/12/2014  02:51:00      -88.300      -63.393        1.645       46.567       39.450       23.091     2168.506     1556.318      533.177        0.804        0.213      108.699       22.798        0.044      344.881       22.015      864.571
07/12/2014  02:52:00     -101.024      -66.337       -0.024       40.540       34.213       21.814     1643.512     1170.498      475.868        0.895        0.164      120.857       20.893        0.030      344.888       22.027      864.577
07/12/2014  02:53:00     -159.778      -66.615       -3.790       37.419       29.962       20.910     1400.157      897.706      437.245        1.636        0.137      173.109       18.783        0.012      344.849       21.959      864.577
07/12/2014  02:54:00     -118.382      -33.360        0.765       56.885       46.564       29.841     3235.931     2168.220      890.492        1.071        0.315      122.993       29.800        0.059      344.992       22.204      864.585
07/12/2014  02:55:00     -169.725      -64.816       -2.917       70.737       44.354       28.402     5003.775     1967.264      806.686        2.040        0.389      181.680       31.009        0.029      345.060       22.319      864.595
07/12/2014  02:56:00     -180.557      -51.260       -2.447       75.905       52.355       33.240     5761.548     2741.072     1104.923        2.242        0.480      187.692       34.594        0.034      345.108       22.400      864.599
07/12/2014  02:57:00     -144.327      -62.083       -0.623       83.344       41.454       30.073     6946.219     1718.465      904.381        1.713        0.478      157.113       36.129        0.053      345.047       22.297      864.597
07/12/2014  02:58:00      -32.842      -21.525       13.298       57.923       34.329       28.525     3355.080     1178.499      813.698        0.353        0.267       39.267       36.004        0.841      344.978       22.180      864.595
07/12/2014  02:59:00      -55.182       45.472       -2.459       33.815       26.692       18.455     1143.450      712.453      340.590        0.366        0.110       71.504       17.162        0.058      344.925       22.090      864.599
07/12/2014  03:00:00      -56.194       28.641      -10.794       17.464       13.084       10.048      305.003      171.193      100.968        0.234        0.029       63.072       10.051        0.025      344.863       21.983      864.607
07/12/2014  03:01:00      -88.498       42.910      -14.338       12.263       13.549       11.216      150.376      183.582      125.796        0.517        0.023       98.352        6.733        0.005      344.965       22.157      864.611
07/12/2014  03:02:00      -73.669       15.577       -4.954       20.781       12.279       12.470      431.869      150.767      155.508        0.322        0.037       75.298        8.185        0.012      344.853       21.969      864.627
07/12/2014  03:03:00      -75.495        5.220       -7.225       17.296       18.036        9.848      299.139      325.314       96.991        0.325        0.036       75.675        6.212        0.007      344.888       22.025      864.626
07/12/2014  03:04:00      -24.881      -18.426        3.163       18.877       15.722        9.122      356.343      247.168       83.214        0.083        0.034       30.961       10.154        0.108      344.745       21.781      864.622
07/12/2014  03:05:00      -55.520       -7.090       -2.974       18.310       10.184        9.247      335.248      103.707       85.506        0.183        0.026       55.971       11.334        0.041      344.825       21.917      864.616
07/12/2014  03:06:00      -64.543      -30.096      -12.165       13.006       12.266        8.367      169.150      150.457       70.005        0.280        0.019       71.215        3.741        0.003      344.837       21.938      864.611
07/12/2014  03:07:00      -88.585      -41.121       -9.977       12.458        9.854        6.152      155.205       97.111       37.851        0.496        0.015       97.664        4.311        0.002      344.770       21.823      864.601
07/12/2014  03:08:00      -51.024      -29.267       -3.574       23.690       17.037        8.520      561.212      290.270       72.598        0.220        0.046       58.822        6.541        0.012      344.734       21.763      864.598
07/12/2014  03:09:00      -14.996       11.017       -3.876       11.823        5.295        4.803      139.780       28.039       23.071        0.028        0.010       18.608        4.982        0.072      344.953       22.138      864.588
07/12/2014  03:10:00      -18.068        8.407       -1.621        6.343        6.532        3.222       40.236       42.667       10.381        0.025        0.005       19.928        3.127        0.025      345.051       22.307      864.574
07/12/2014  03:11:00      -23.225       -6.573       -2.090       10.612       12.202        6.053      112.604      148.897       36.641        0.044        0.015       24.137        4.179        0.030      344.958       22.146      864.579
07/12/2014  03:12:00       -1.826       -4.955       -0.793        7.678        5.708        4.782       58.954       32.582       22.870        0.007        0.006        5.280        4.873        0.852      344.815       21.903      864.588
07/12/2014  03:13:00       10.397       -5.608        1.782       11.239        6.314        6.075      126.320       39.873       36.904        0.017        0.010       11.813        5.704        0.233      344.851       21.965      864.604
07/12/2014  03:14:00        7.078       -5.080       -3.848       26.533       11.913        5.828      704.004      141.919       33.961        0.049        0.044        8.712        7.907        0.824      344.906       22.058      864.618
07/12/2014  03:15:00      -84.641      -28.917       -3.324       30.800       31.509       16.359      948.642      992.788      267.623        0.511        0.110       89.444       13.204        0.022      344.674       21.661      864.637
07/12/2014  03:16:00      -69.339      -58.510        6.035       52.265       32.761       21.473     2731.645     1073.269      461.070        0.627        0.213       90.727       27.762        0.094      344.720       21.738      864.653
07/12/2014  03:17:00      -25.011      -22.425        7.972       19.773       18.015       12.419      390.979      324.555      154.230        0.103        0.043       33.592        7.201        0.046      344.784       21.849      864.657
07/12/2014  03:18:00      -14.559        0.262        0.804        7.058        9.761        6.817       49.809       95.280       46.475        0.020        0.010       14.561        3.305        0.052      345.084       22.361      864.652
07/12/2014  03:19:00       22.107        6.498        1.030       15.609        7.656        8.244      243.647       58.613       67.969        0.045        0.019       23.042        4.810        0.044      344.934       22.104      864.648
07/12/2014  03:20:00       18.129        6.626       -1.062        6.226        9.203        6.727       38.765       84.697       45.257        0.027        0.008       19.302        3.344        0.030      344.904       22.055      864.644
07/12/2014  03:21:00       32.665       28.928        6.892        8.474        8.278       14.239       71.802       68.526      202.755        0.115        0.017       43.633        4.175        0.009      344.844       21.951      864.647
07/12/2014  03:22:00       31.214       33.514       -1.706        9.598       13.968        9.427       92.125      195.094       88.871        0.124        0.019       45.798        7.900        0.030      344.894       22.036      864.644
07/12/2014  03:23:00       26.604       22.665       14.012       10.030        8.290       15.297      100.599       68.726      233.995        0.091        0.020       34.950        5.480        0.025      344.861       21.981      864.630
07/12/2014  03:24:00       18.858        6.743       14.853       15.652       28.674       13.384      244.979      822.174      179.124        0.093        0.062       20.027       16.464        0.676      344.774       21.831      864.619
07/12/2014  03:25:00      -14.256      -19.291       12.212       12.053       16.142       13.820      145.271      260.555      190.988        0.066        0.030       23.987        9.095        0.144      344.742       21.776      864.608
07/12/2014  03:26:00      -39.525        5.526       -2.548       12.178       17.438        9.657      148.311      304.068       93.251        0.107        0.027       39.910        8.672        0.047      344.511       21.382      864.603
07/12/2014  03:27:00      -43.403       29.465       -9.018        8.143        8.016        5.697       66.315       64.262       32.456        0.150        0.008       52.460        3.295        0.004      344.674       21.660      864.604
07/12/2014  03:28:00      -27.208       18.399       -8.623        9.366        8.047        4.950       87.730       64.753       24.507        0.067        0.009       32.845        3.510        0.011      344.754       21.798      864.613
07/12/2014  03:29:00       -9.169        4.616       -2.687        8.816        7.398        6.088       77.724       54.732       37.064        0.014        0.008       10.265        5.678        0.306      344.747       21.786      864.620
07/12/2014  03:30:00        8.298        2.619        2.184        7.783        9.346        5.601       60.581       87.350       31.370        0.013        0.009        8.701        5.932        0.465      344.713       21.727      864.616
07/12/2014  03:31:00       39.287      -24.739        5.087       13.795        9.817       10.254      190.305       96.372      105.141        0.129        0.020       46.427        5.662        0.015      344.897       22.042      864.610
07/12/2014  03:32:00       17.784      -18.237       -1.308       22.800        8.303        8.229      519.836       68.945       67.712        0.065        0.033       25.473        6.649        0.068      344.978       22.181      864.610
07/12/2014  03:33:00      -19.772      -16.424        0.875       21.229       15.036        7.264      450.686      226.083       52.761        0.070        0.036       25.704        5.309        0.043      344.750       21.790      864.608
07/12/2014  03:34:00      -83.193        0.005       -6.197       26.869       15.349       13.250      721.946      235.601      175.564        0.405        0.057       83.193       14.822        0.032      344.149       20.764      864.614
07/12/2014  03:35:00      -94.928       -5.687       -7.943       16.569       15.264       11.818      274.523      233.002      139.675        0.488        0.032       95.098        7.469        0.006      344.105       20.687      864.624
07/12/2014  03:36:00     -112.585       -5.859      -12.071       20.131       12.201       13.387      405.252      148.877      179.202        0.679        0.037      112.738       10.505        0.009      344.135       20.740      864.630
07/12/2014  03:37:00      -88.747       -9.449      -11.213       19.784       12.714       11.853      391.397      161.645      140.495        0.439        0.035       89.248       11.857        0.018      344.234       20.908      864.630
07/12/2014  03:38:00      -69.490        4.518       -4.331       23.841       12.150       11.819      568.405      147.619      139.680        0.286        0.043       69.637       14.275        0.042      344.134       20.736      864.628
07/12/2014  03:39:00      -80.437       -9.266       -5.160       22.271       21.021       11.769      495.991      441.876      138.502        0.383        0.054       80.969       10.885        0.018      344.098       20.675      864.625
07/12/2014  03:40:00     -122.595      -29.604      -14.887       34.305       21.049       18.976     1176.852      443.057      360.085        0.905        0.099      126.119       10.786        0.007      343.935       20.398      864.628
07/12/2014  03:41:00     -126.200      -30.354       -6.531       47.696       32.232       25.877     2274.929     1038.933      669.597        1.044        0.199      129.799       26.069        0.040      343.817       20.195      864.624
07/12/2014  03:42:00     -114.491      -59.594       -7.709       28.169       30.123       18.374      793.496      907.369      337.598        0.938        0.102      129.072       10.540        0.007      343.862       20.272      864.629
07/12/2014  03:43:00     -125.523      -56.961       -4.899       54.203       23.710       21.877     2938.014      562.165      478.584        1.150        0.199      137.842       18.709        0.018      343.864       20.276      864.639
07/12/2014  03:44:00     -115.839      -38.597        1.125       36.207       26.756       19.749     1310.920      715.870      390.037        0.866        0.121      122.100       18.126        0.022      343.871       20.289      864.645
07/12/2014  03:45:00     -102.914      -38.272       -0.076       29.998       23.865       12.479      899.856      569.528      155.730        0.684        0.081      109.800       10.007        0.008      343.921       20.373      864.635
07/12/2014  03:46:00      -91.216      -35.786       -4.654       25.228       22.758       14.210      636.436      517.911      201.920        0.549        0.068       97.985       12.854        0.017      343.960       20.441      864.624
07/12/2014  03:47:00      -69.163      -18.202       -0.303       19.914       19.081       14.944      396.553      364.074      223.327        0.305        0.049       71.519       13.055        0.033      343.954       20.430      864.616
07/12/2014  03:48:00      -88.258      -16.862       -7.842       31.310       22.275       19.001      980.291      496.171      361.043        0.499        0.092       89.854       18.914        0.044      343.881       20.305      864.605
07/12/2014  03:49:00     -116.818        0.554      -11.831       28.591       26.398       21.579      817.446      696.872      465.654        0.788        0.099      116.819       14.989        0.016      343.815       20.193      864.597
07/12/2014  03:50:00     -107.775       22.802      -13.370       66.591       39.057       22.539     4434.320     1525.418      508.022        0.939        0.323      110.161       23.691        0.046      343.927       20.384      864.594
07/12/2014  03:51:00     -171.276       28.422      -12.297       56.300       32.311       21.686     3169.678     1043.975      470.272        1.749        0.234      173.618       20.971        0.015      343.934       20.393      864.590
07/12/2014  03:52:00     -167.828      -17.693      -11.730       40.813       40.135       33.003     1665.696     1610.779     1089.198        1.649        0.218      168.758       24.013        0.020      343.772       20.118      864.593
07/12/2014  03:53:00     -173.093        7.825      -15.279       40.301       35.319       24.312     1624.170     1247.419      591.095        1.686        0.173      173.269       25.919        0.022      343.715       20.020      864.611
07/12/2014  03:54:00     -118.304       -9.288       -5.447       36.613       33.308       23.614     1340.535     1109.399      557.604        0.856        0.150      118.668       23.177        0.038      343.674       19.952      864.620
07/12/2014  03:55:00     -156.120       11.018      -10.852       61.154       45.854       26.465     3739.773     2102.607      700.382        1.558        0.327      156.509       31.536        0.041      343.724       20.036      864.632
07/12/2014  03:56:00     -130.224       -2.836       -7.086       33.314       45.069       28.091     1109.803     2031.173      789.085        1.047        0.197      130.255       21.853        0.028      343.690       19.978      864.637
07/12/2014  03:57:00     -136.188      -15.170      -11.986       38.072       41.296       21.809     1449.501     1705.326      475.643        1.127        0.182      137.030       19.958        0.021      343.708       20.011      864.645
07/12/2014  03:58:00     -142.029        0.937      -11.944       36.632       27.447       18.961     1341.908      753.355      359.530        1.138        0.123      142.032       16.226        0.013      343.704       20.003      864.650
07/12/2014  03:59:00     -103.683       -7.455       -3.980       56.314       32.875       23.842     3171.228     1080.735      568.447        0.782        0.241      103.950       29.269        0.079      343.662       19.931      864.647
07/12/2014  04:00:00     -136.708       -6.800      -13.705       40.522       34.669       20.244     1642.028     1201.924      409.833        1.109        0.163      136.877       19.127        0.020      343.640       19.894      864.643
07/12/2014  04:01:00     -120.932       -1.484      -10.106       43.719       30.806       22.637     1911.343      949.038      512.438        0.905        0.169      120.941       22.159        0.034      343.658       19.925      864.645
07/12/2014  04:02:00     -151.214       17.731      -18.901       37.842       27.256       18.280     1432.015      742.864      334.163        1.302        0.125      152.250        9.707        0.004      343.705       20.004      864.649
07/12/2014  04:03:00     -151.166       34.281      -13.248       31.024       18.145       13.543      962.489      329.239      183.423        1.284        0.074      155.005       12.582        0.007      343.751       20.082      864.645
07/12/2014  04:04:00     -162.398       15.289      -16.333       23.377       19.736       11.986      546.474      389.501      143.657        1.398        0.054      163.116        8.175        0.003      343.829       20.215      864.664
07/12/2014  04:05:00     -139.499      -14.500      -12.283       26.277       19.750       14.746      690.487      390.055      217.437        1.056        0.065      140.250        9.759        0.005      343.730       20.047      864.670
07/12/2014  04:06:00      -76.686       -5.667       -4.484       20.998       28.103       15.936      440.913      789.759      253.945        0.371        0.074       76.895        7.281        0.009      343.707       20.007      864.673
07/12/2014  04:07:00      -97.074      -28.172       -7.029       14.263       20.304       12.461      203.434      412.246      155.270        0.552        0.039      101.080        5.917        0.003      343.741       20.067      864.686
07/12/2014  04:08:00      -97.955      -21.744       -9.320       20.113       17.684       11.659      404.530      312.739      135.924        0.550        0.043      100.339       11.955        0.014      343.745       20.073      864.676
07/12/2014  04:09:00      -93.277      -28.656       -1.279       15.696       14.698        9.658      246.367      216.032       93.278        0.504        0.028       97.580        6.112        0.004      343.726       20.040      864.675
07/12/2014  04:10:00      -69.868      -16.466        0.257       20.934       16.945       12.554      438.229      287.123      157.592        0.302        0.044       71.782        8.659        0.015      343.737       20.060      864.670
07/12/2014  04:11:00      -62.832      -13.613       -7.386        9.516        6.856        6.008       90.560       47.004       36.099        0.218        0.009       64.289        5.389        0.007      343.789       20.151      864.659
07/12/2014  04:12:00      -56.645      -17.595       -2.486       19.526       25.873       19.272      381.257      669.415      371.405        0.247        0.071       59.315       14.352        0.059      343.940       20.406      864.663
07/12/2014  04:13:00      -57.585      -28.603       -4.075       21.028       18.053        9.572      442.198      325.914       91.625        0.251        0.043       64.298        3.988        0.004      343.809       20.183      864.662
07/12/2014  04:14:00      -55.049      -10.806       -1.154       14.998       11.330       12.367      224.938      128.361      152.954        0.183        0.025       56.099       11.290        0.041      343.757       20.093      864.654
07/12/2014  04:15:00      -61.318       -1.261        0.398       24.481       30.416       13.927      599.317      925.144      193.954        0.274        0.086       61.331        8.495        0.019      343.857       20.263      864.652
07/12/2014  04:16:00      -43.352      -28.552        0.813       24.634       14.522       11.855      606.834      210.897      140.533        0.183        0.048       51.910        9.919        0.037      343.885       20.313      864.659
07/12/2014  04:17:00      -63.345      -47.035        1.169       35.940       18.106       15.699     1291.668      327.819      246.474        0.405        0.093       78.898       17.124        0.047      343.838       20.231      864.649
07/12/2014  04:18:00      -23.573      -36.600       14.365       35.486       26.491       20.172     1259.240      701.798      406.923        0.223        0.118       43.535       20.447        0.221      343.823       20.207      864.649
07/12/2014  04:19:00     -127.611      -76.221       -7.352       23.785       21.587       14.648      565.730      465.993      214.568        1.170        0.062      148.641        9.746        0.004      343.854       20.259      864.661
07/12/2014  04:20:00     -115.365     -124.119      -13.323       42.568       37.536       22.380     1812.021     1408.988      500.861        1.631        0.186      169.454       19.362        0.013      343.841       20.238      864.663
07/12/2014  04:21:00     -108.009      -63.335        1.045       48.825       44.368       25.869     2383.919     1968.537      669.229        1.035        0.251      125.209       26.888        0.046      343.763       20.104      864.664
07/12/2014  04:22:00     -145.001      -65.427       -1.583       53.850       33.562       24.874     2899.832     1126.398      618.741        1.498        0.232      159.078       23.759        0.022      343.738       20.062      864.686
07/12/2014  04:23:00     -111.249      -87.167       -7.149       54.684       44.378       24.328     2990.357     1969.404      591.857        1.279        0.278      141.331       23.150        0.027      343.701       19.998      864.720
07/12/2014  04:24:00     -133.767      -47.099        1.899       47.872       49.348       32.504     2291.708     2435.179     1056.520        1.295        0.289      141.817       27.805        0.038      343.651       19.911      864.754
07/12/2014  04:25:00     -128.436      -39.806       -7.427       40.463       28.941       21.926     1637.261      837.610      480.771        1.054        0.148      134.463       17.691        0.017      343.712       20.015      864.776
07/12/2014  04:26:00      -81.045      -19.117       -6.889       26.254       24.114       19.760      689.271      581.494      390.457        0.432        0.083       83.269       14.978        0.032      343.728       20.044      864.800
07/12/2014  04:27:00      -26.321      -26.699       -0.418       48.499       20.295       22.377     2352.175      411.893      500.718        0.233        0.163       37.492       23.408        0.390      343.725       20.038      864.823
07/12/2014  04:28:00      -63.745      -32.261       -8.861       17.335       37.980       14.691      300.518     1442.490      215.817        0.357        0.098       71.444        9.489        0.018      343.631       19.879      864.837
07/12/2014  04:29:00      -50.899       -7.039       -3.004       27.319       26.074       13.127      746.304      679.850      172.314        0.212        0.080       51.384       11.375        0.049      343.635       19.884      864.839
07/12/2014  04:30:00      -93.328      -17.726       -7.949       27.324       22.985       14.814      746.586      528.288      219.440        0.529        0.075       94.997       11.646        0.015      343.706       20.007      864.835
07/12/2014  04:31:00      -77.042       -7.866       -8.380       25.348       19.571       13.602      642.532      383.039      185.013        0.364        0.061       77.442       12.113        0.024      343.698       19.993      864.839
07/12/2014  04:32:00     -122.408        3.070      -16.058       21.547       21.274       15.480      464.291      452.579      239.644        0.820        0.058      122.446        9.568        0.006      343.797       20.162      864.849
07/12/2014  04:33:00      -90.066      -23.213       -8.211       25.351       20.628       17.369      642.681      425.514      301.684        0.504        0.068       93.009       13.704        0.022      343.764       20.106      864.845
07/12/2014  04:34:00      -73.110      -22.816        2.345       40.753       31.725       17.114     1660.768     1006.487      292.888        0.442        0.148       76.588       20.948        0.075      343.707       20.007      864.841
07/12/2014  04:35:00      -90.345        3.139       -8.599       29.824       22.431       17.597      889.469      503.146      309.661        0.497        0.085       90.400       15.342        0.029      343.729       20.045      864.845
07/12/2014  04:36:00      -85.348      -19.124       -8.192       36.674       26.592       13.554     1345.007      707.158      183.721        0.498        0.112       87.464       16.254        0.035      343.697       19.991      864.857
07/12/2014  04:37:00      -69.975      -60.980       -0.668       31.648       29.042       16.963     1001.627      843.433      287.735        0.537        0.107       92.818       17.353        0.035      343.735       20.056      864.854
07/12/2014  04:38:00      -64.725      -36.153        7.970       36.101       23.993       19.754     1303.316      575.640      390.204        0.391        0.113       74.137       20.369        0.075      343.726       20.041      864.837
07/12/2014  04:39:00      -46.946      -47.655        5.479       34.683       20.684       16.402     1202.878      427.822      269.017        0.320        0.095       66.895       18.003        0.072      343.799       20.164      864.831
07/12/2014  04:40:00     -103.434      -66.208        6.241       28.733       31.153       17.466      825.574      970.490      305.073        0.861        0.105      122.810       11.944        0.009      343.831       20.218      864.820
07/12/2014  04:41:00      -87.486      -39.864        4.817       31.051       25.821       16.629      964.189      666.699      276.513        0.559        0.095       96.140       14.678        0.023      343.901       20.339      864.818
07/12/2014  04:42:00      -43.949       -9.699        7.788       30.766       19.779       12.957      946.528      391.221      167.893        0.180        0.075       45.006       15.484        0.118      343.849       20.250      864.815
07/12/2014  04:43:00      -68.630      -34.805       -2.091       21.532       19.426       11.710      463.610      377.383      137.125        0.345        0.049       76.951        7.121        0.009      343.954       20.429      864.815
07/12/2014  04:44:00      -88.548      -41.839        0.367       22.412       19.515       14.692      502.280      380.826      215.854        0.534        0.055       97.935       13.324        0.019      343.955       20.432      864.820
07/12/2014  04:45:00     -112.949      -35.853        0.637       36.056       25.737       15.244     1300.005      662.391      232.375        0.812        0.110      118.503       12.398        0.011      343.950       20.422      864.827
07/12/2014  04:46:00     -116.820      -34.690        3.382       36.312       27.935       19.977     1318.558      780.387      399.073        0.868        0.125      121.862       21.465        0.031      343.906       20.347      864.840
07/12/2014  04:47:00     -104.329      -36.017        5.521       35.867       23.436       19.620     1286.429      549.249      384.938        0.722        0.111      110.371       18.821        0.029      343.839       20.234      864.841
07/12/2014  04:48:00     -110.329      -59.656        1.092       38.839       24.955       18.845     1508.452      622.745      355.128        0.911        0.124      125.425       16.221        0.017      343.883       20.308      864.847
07/12/2014  04:49:00     -132.023      -42.714       -0.721       30.195       24.146       14.923      911.721      583.021      222.706        1.049        0.086      138.761       13.135        0.009      343.862       20.273      864.856
07/12/2014  04:50:00      -83.101      -50.792        3.996       48.393       34.252       20.313     2341.903     1173.166      412.619        0.671        0.196       97.394       26.310        0.073      343.815       20.193      864.868
07/12/2014  04:51:00      -88.418      -49.266        4.899       38.875       21.917       18.905     1511.277      480.368      357.396        0.631        0.117      101.217       16.344        0.026      343.798       20.165      864.877
07/12/2014  04:52:00      -80.659      -69.123       -6.303       22.845       22.507       13.389      521.875      506.558      179.267        0.627        0.060      106.226       11.379        0.011      343.834       20.223      864.885
07/12/2014  04:53:00      -54.155      -72.756       -4.412       20.185       22.498       15.214      407.423      506.178      231.453        0.470        0.057       90.699       10.250        0.013      343.888       20.320      864.894
07/12/2014  04:54:00      -62.585      -23.636       -3.055       19.095       17.975       18.256      364.622      323.116      333.276        0.275        0.051       66.900       12.077        0.033      343.862       20.273      864.895
07/12/2014  04:55:00      -24.454      -45.585       -2.031       24.576       35.340       11.423      603.962     1248.888      130.482        0.233        0.099       51.729       11.105        0.046      343.843       20.240      864.896
07/12/2014  04:56:00       -2.803      -35.569        8.529       27.544       18.309       14.999      758.678      335.226      224.959        0.133        0.066       35.680       11.671        0.107      343.822       20.203      864.904
07/12/2014  04:57:00      -14.092      -31.908        1.976       16.360       13.712       10.711      267.652      188.006      114.731        0.090        0.029       34.882        9.802        0.079      343.798       20.165      864.919
07/12/2014  04:58:00      -54.137      -15.394       -5.146       13.899       14.046        8.143      193.191      197.292       66.312        0.183        0.023       56.283        3.240        0.003      343.790       20.152      864.922
07/12/2014  04:59:00      -45.559      -15.438        0.295       23.493       20.353        9.393      551.936      414.263       88.235        0.168        0.053       48.104       10.082        0.044      343.741       20.066      864.943
07/12/2014  05:00:00      -56.968      -12.280       -6.877       14.295       15.461       11.435      204.351      239.048      130.758        0.201        0.029       58.276        8.759        0.023      343.687       19.974      864.951
07/12/2014  05:01:00      -62.144       -8.629       -4.878       12.375       10.023        6.915      153.144      100.457       47.815        0.213        0.015       62.740        5.993        0.009      343.686       19.971      864.956
07/12/2014  05:02:00      -51.953      -21.912       -0.998       10.174       11.102        5.274      103.513      123.244       27.814        0.172        0.013       56.385        3.232        0.003      343.639       19.892      864.964
07/12/2014  05:03:00      -41.073      -33.305        5.470       17.136       15.584       11.288      293.657      242.850      127.419        0.174        0.033       52.880       10.764        0.041      343.673       19.949      864.978
07/12/2014  05:04:00      -27.073      -28.623        4.613       26.819       14.172       15.118      719.280      200.852      228.559        0.136        0.057       39.398       17.609        0.200      343.673       19.949      864.993
07/12/2014  05:05:00      -24.858      -15.800        7.206       22.191       13.131       14.363      492.420      172.424      206.306        0.090        0.044       29.454       15.269        0.269      343.622       19.862      865.001
07/12/2014  05:06:00      -44.671      -20.257        4.915       22.489       20.722       10.041      505.771      429.421      100.822        0.173        0.052       49.049        7.356        0.022      343.589       19.807      865.003
07/12/2014  05:07:00      -25.039      -17.430        3.954       17.776       14.948       10.692      315.994      223.432      114.321        0.080        0.033       30.508       11.230        0.136      343.595       19.816      865.001
07/12/2014  05:08:00      -22.318      -22.619        5.579       15.852        9.640        9.327      251.277       92.923       86.998        0.074        0.022       31.776        8.679        0.075      343.644       19.900      864.996
07/12/2014  05:09:00      -10.253      -24.509        5.340        9.639       13.775       11.407       92.918      189.757      130.114        0.057        0.021       26.567        8.200        0.095      343.699       19.995      865.000
07/12/2014  05:10:00      -16.290       -7.608       10.868       17.846       10.456        8.316      318.479      109.326       69.150        0.047        0.025       17.979        9.135        0.258      343.626       19.871      865.001
07/12/2014  05:11:00      -31.366      -21.024        1.448       11.660        8.618        6.781      135.955       74.268       45.980        0.084        0.013       37.760        2.403        0.004      343.578       19.788      865.008
07/12/2014  05:12:00      -43.785      -17.952       -4.629       12.102       11.104        6.617      146.452      123.291       43.790        0.129        0.016       47.322        5.543        0.014      343.678       19.959      865.007
07/12/2014  05:13:00      -22.123      -11.943        5.922       18.487       11.367        8.118      341.764      129.207       65.896        0.060        0.027       25.141        8.608        0.117      343.573       19.780      865.012
07/12/2014  05:14:00      -24.350      -16.052        0.125       12.567       10.530        8.402      157.919      110.874       70.600        0.059        0.017       29.165        6.038        0.043      343.669       19.942      865.020
07/12/2014  05:15:00      -30.533      -12.139        0.810       16.846       13.414       10.273      283.793      179.930      105.530        0.082        0.028       32.857        6.801        0.043      343.434       19.540      865.034
07/12/2014  05:16:00      -25.568       -9.531       -4.049       14.841        8.958        7.686      220.253       80.250       59.077        0.056        0.018       27.287        2.554        0.009      343.345       19.392      865.036
07/12/2014  05:17:00      -49.679       -2.779       -2.483       24.762        8.297       10.150      613.158       68.846      103.015        0.163        0.039       49.757       12.475        0.063      343.304       19.323      865.036
07/12/2014  05:18:00      -43.608       -8.155        2.446       20.053       16.831       10.761      402.135      283.288      115.797        0.139        0.040       44.364        8.213        0.034      343.247       19.224      865.041
07/12/2014  05:19:00      -48.727       -9.570        2.302       17.471       17.662        9.286      305.236      311.958       86.239        0.159        0.035       49.658        8.897        0.032      343.296       19.308      865.042
07/12/2014  05:20:00      -17.784      -12.928        7.758       18.060        8.621        8.975      326.161       74.321       80.542        0.051        0.024       21.987       10.271        0.218      343.315       19.338      865.042
07/12/2014  05:21:00      -30.084       -9.313       -0.759       12.694        9.599        7.052      161.126       92.140       49.736        0.065        0.015       31.493        7.651        0.059      343.335       19.371      865.034
07/12/2014  05:22:00      -17.063        2.677       -2.553        6.836        4.641        4.042       46.732       21.540       16.342        0.019        0.004       17.272        3.125        0.033      343.353       19.407      865.029
07/12/2014  05:23:00      -27.580        7.465       -2.122       12.568        4.730        4.920      157.960       22.377       24.209        0.051        0.010       28.572        3.582        0.016      343.405       19.493      865.029
07/12/2014  05:24:00      -51.164       10.266       -2.102        4.933        5.811        3.107       24.335       33.773        9.651        0.140        0.003       52.184        1.988        0.001      343.475       19.613      865.038
07/12/2014  05:25:00      -58.540       -3.886       -1.505        7.247       11.247        5.765       52.516      126.493       33.241        0.183        0.011       58.669        4.643        0.006      343.405       19.494      865.047
07/12/2014  05:26:00      -74.743      -27.307       -5.885        8.653       12.592        6.806       74.868      158.560       46.316        0.332        0.014       79.575        6.865        0.007      343.318       19.345      865.071
07/12/2014  05:27:00      -46.736      -39.443       -1.131       20.256       12.619       10.501      410.289      159.243      110.281        0.221        0.034       61.155        8.891        0.021      343.170       19.094      865.094
07/12/2014  05:28:00      -46.733      -40.244       -4.275       23.367       14.989       12.433      546.022      224.676      154.577        0.237        0.046       61.674        4.056        0.004      343.260       19.246      865.123
07/12/2014  05:29:00      -43.195      -37.565        0.413       19.394       14.901       13.225      376.123      222.042      174.903        0.202        0.039       57.245        5.767        0.010      343.280       19.280      865.147
07/12/2014  05:30:00      -71.169      -41.687       -5.173       17.593       12.371        9.285      309.505      153.034       86.212        0.369        0.027       82.480        6.810        0.007      343.428       19.532      865.161
07/12/2014  05:31:00      -46.556      -34.652        1.770       23.325       16.972       11.866      544.060      288.060      140.794        0.217        0.049       58.036       12.912        0.050      343.374       19.441      865.173
07/12/2014  05:32:00      -43.119      -40.126        0.994       28.996       23.865       17.404      840.763      569.542      302.892        0.259        0.086       58.901       14.961        0.065      343.406       19.495      865.184
07/12/2014  05:33:00      -41.630      -37.380        2.192       33.836       26.510       18.902     1144.849      702.794      357.298        0.267        0.110       55.949       18.745        0.112      343.443       19.558      865.187
07/12/2014  05:34:00      -87.967      -69.615        0.906       38.585       33.230       22.464     1488.794     1104.251      504.617        0.784        0.155      112.180       21.565        0.037      343.385       19.459      865.203
07/12/2014  05:35:00      -88.522      -66.279        2.453       38.120       30.436       24.970     1453.149      926.368      623.522        0.762        0.150      110.585       21.993        0.040      343.311       19.334      865.214
07/12/2014  05:36:00     -109.150      -73.821       -1.277       45.396       31.245       22.000     2060.837      976.265      484.017        1.044        0.176      131.770       21.949        0.028      343.328       19.362      865.224
07/12/2014  05:37:00     -113.461      -70.537       -0.722       26.969       22.161       17.663      727.309      491.110      311.996        0.969        0.077      133.600       11.494        0.007      343.320       19.349      865.235
07/12/2014  05:38:00      -56.640      -51.170        5.564       38.404       27.153       22.148     1474.841      737.306      490.524        0.428        0.135       76.331       22.503        0.087      343.246       19.222      865.247
07/12/2014  05:39:00      -96.875      -84.591       -0.686       52.470       30.715       22.288     2753.084      943.420      496.773        1.037        0.210      128.609       20.407        0.025      343.312       19.334      865.245
07/12/2014  05:40:00      -55.689      -61.602        0.842       40.764       43.094       20.726     1661.705     1857.090      429.555        0.542        0.197       83.043       15.018        0.033      343.318       19.346      865.257
07/12/2014  05:41:00      -89.086      -82.382       -1.980       62.013       56.178       31.092     3845.655     3155.993      966.721        1.135        0.398      121.339       27.259        0.050      343.239       19.212      865.267
07/12/2014  05:42:00      -81.532      -80.378        2.100       57.668       49.321       27.230     3325.635     2432.530      741.486        0.980        0.325      114.491       24.850        0.047      343.220       19.179      865.280
07/12/2014  05:43:00     -111.354      -64.509       -9.189       64.285       37.123       32.099     4132.553     1378.106     1030.352        1.159        0.327      128.690       35.954        0.078      343.142       19.045      865.288
07/12/2014  05:44:00     -106.671     -107.148       -6.873       59.928       41.942       29.295     3591.329     1759.132      858.192        1.456        0.310      151.193       29.630        0.038      343.139       19.039      865.294
07/12/2014  05:45:00     -102.826      -64.109        0.328       49.247       28.869       20.599     2425.252      833.445      424.315        0.918        0.184      121.174       21.013        0.030      343.086       18.951      865.307
07/12/2014  05:46:00      -76.486      -38.403        8.733       48.744       31.482       22.838     2376.023      991.141      521.552        0.564        0.194       85.585       25.764        0.091      343.033       18.860      865.308
07/12/2014  05:47:00      -76.356      -71.225       -0.742       32.143       31.530       20.804     1033.203      994.147      432.806        0.668        0.123      104.419       19.437        0.035      343.053       18.893      865.304
07/12/2014  05:48:00      -75.854      -64.077        3.059       36.340       25.810       18.805     1320.563      666.157      353.630        0.610        0.117       99.296       17.117        0.030      343.030       18.854      865.294
07/12/2014  05:49:00      -74.212      -64.065        7.996       43.189       30.669       22.897     1865.302      940.572      524.293        0.650        0.167       98.039       22.621        0.053      343.034       18.860      865.300
07/12/2014  05:50:00     -108.401      -58.274        4.504       37.721       30.233       17.176     1422.879      914.032      295.031        0.890        0.132      123.072       14.367        0.014      342.972       18.754      865.312
07/12/2014  05:51:00     -131.540      -63.164       -4.194       31.419       30.351       22.800      987.161      921.171      519.857        1.187        0.121      145.920       15.414        0.011      342.932       18.688      865.315
07/12/2014  05:52:00     -112.307      -45.395        4.968       36.913       28.331       19.934     1362.563      802.671      397.381        0.863        0.128      121.135       18.419        0.023      342.922       18.670      865.324
07/12/2014  05:53:00      -98.347      -43.755        1.962       35.550       33.679       23.960     1263.796     1134.279      574.076        0.728        0.149      107.641       25.106        0.054      342.909       18.648      865.340
07/12/2014  05:54:00     -107.448      -42.821        1.553       37.318       26.877       17.995     1392.652      722.360      323.836        0.791        0.122      115.666       18.051        0.024      342.913       18.655      865.362
07/12/2014  05:55:00      -86.095      -62.558        2.811       29.843       27.079       19.426      890.619      733.288      377.365        0.667        0.100      106.423       17.613        0.027      342.933       18.691      865.364
07/12/2014  05:56:00      -79.023      -54.067        3.437       40.304       25.323       20.770     1624.401      641.279      431.377        0.594        0.135       95.749       19.219        0.040      342.924       18.677      865.368
07/12/2014  05:57:00      -98.560      -26.324       -0.965       41.481       27.719       16.843     1720.668      768.325      283.688        0.659        0.139      102.015       18.365        0.032      342.887       18.613      865.362
07/12/2014  05:58:00      -68.851      -15.664        3.020       29.617       25.249       17.509      877.167      637.518      306.569        0.341        0.091       70.610       15.234        0.047      342.839       18.530      865.364
07/12/2014  05:59:00      -77.141      -11.392        2.359       40.005       29.098       21.383     1600.394      846.713      457.235        0.449        0.145       77.978       22.780        0.085      342.771       18.413      865.353
07/12/2014  06:00:00     -104.153      -52.264       -5.946       29.586       29.264       17.127      875.323      856.407      293.348        0.782        0.101      116.530       15.561        0.018      342.769       18.411      865.347
07/12/2014  06:01:00      -61.867      -46.517        3.193       26.295       16.394       14.303      691.439      268.778      204.588        0.358        0.058       77.404        6.660        0.007      342.816       18.491      865.344
07/12/2014  06:02:00      -56.591      -27.573       -2.902       32.543       18.681       15.579     1059.070      348.995      242.698        0.281        0.083       62.951       18.511        0.086      342.793       18.450      865.352
07/12/2014  06:03:00      -92.988      -45.698       -9.867       19.591       11.185       10.638      383.804      125.109      113.176        0.573        0.031      103.610        6.430        0.004      342.840       18.532      865.363
07/12/2014  06:04:00      -87.513      -53.483       -4.143       20.842       20.559       14.989      434.405      422.657      224.674        0.581        0.054      102.562       12.649        0.015      342.750       18.375      865.374
07/12/2014  06:05:00      -84.718      -57.885       -2.275       23.039       25.902       17.404      530.775      670.931      302.913        0.602        0.075      102.605       11.372        0.012      342.683       18.264      865.377
07/12/2014  06:06:00      -79.651      -41.088       -2.475       28.610       30.348       14.047      818.504      920.981      197.306        0.499        0.097       89.625       12.271        0.019      342.721       18.330      865.384
07/12/2014  06:07:00     -104.277      -15.714       -3.513       21.587       17.923       13.320      466.012      321.243      177.419        0.605        0.048      105.454        8.748        0.007      342.722       18.331      865.391
07/12/2014  06:08:00      -99.179      -31.515      -12.972       16.989       18.203       12.117      288.615      331.335      146.818        0.588        0.038      104.066        6.845        0.004      342.763       18.399      865.407
07/12/2014  06:09:00      -89.566      -48.756       -3.073       18.713       19.484       15.419      350.179      379.641      237.747        0.569        0.048      101.977        8.943        0.008      342.812       18.484      865.423
07/12/2014  06:10:00      -79.545      -53.619       -4.532       40.387       34.543       15.698     1631.095     1193.241      246.417        0.615        0.154       95.929       19.387        0.041      342.812       18.484      865.430
07/12/2014  06:11:00      -84.288      -46.789        2.095       38.831       21.199       15.103     1507.821      449.391      228.115        0.574        0.109       96.404       15.964        0.027      342.883       18.605      865.441
07/12/2014  06:12:00      -85.878      -46.227        3.159       34.455       24.107       18.922     1187.129      581.133      358.047        0.582        0.106       97.529       13.600        0.019      342.871       18.583      865.451
07/12/2014  06:13:00     -102.601      -42.835       -0.681       34.321       24.190       18.614     1177.919      585.133      346.497        0.724        0.105      111.183       19.691        0.031      342.895       18.626      865.459
07/12/2014  06:14:00      -95.890      -39.062       -8.023       16.629       15.591        8.971      276.536      243.080       80.475        0.569        0.030      103.541        6.441        0.004      342.879       18.599      865.465
07/12/2014  06:15:00      -80.940      -25.066       -7.071       14.851       13.054        9.743      220.561      170.413       94.928        0.386        0.024       84.733        8.837        0.011      342.939       18.698      865.464
07/12/2014  06:16:00      -64.430      -23.991       -3.912       19.828       14.230       11.435      393.169      202.502      130.767        0.273        0.036       68.751       11.607        0.029      342.935       18.692      865.459
07/12/2014  06:17:00      -76.782      -18.588       -4.901       14.870       17.051       10.035      221.117      290.736      100.696        0.344        0.031       79.000        8.092        0.010      342.942       18.705      865.457
07/12/2014  06:18:00      -90.353      -41.594       -3.868       17.218       15.985       13.691      296.467      255.513      187.455        0.532        0.037       99.467        9.890        0.010      342.895       18.626      865.457
07/12/2014  06:19:00      -82.436      -39.687       -0.356       16.643       17.923       13.666      277.004      321.251      186.772        0.458        0.039       91.492        9.880        0.012      342.942       18.704      865.451
07/12/2014  06:20:00      -33.410      -18.675        8.975       36.558       20.947       16.131     1336.472      438.793      260.216        0.179        0.102       38.275       19.643        0.263      342.971       18.754      865.441
07/12/2014  06:21:00      -83.323      -51.818       -1.957       16.803       19.281       15.192      282.350      371.774      230.785        0.526        0.044       98.122        5.081        0.003      342.933       18.690      865.448
07/12/2014  06:22:00      -54.461      -53.014       -0.026       27.613       21.875       14.466      762.458      478.517      209.276        0.361        0.073       76.003       14.212        0.035      342.972       18.755      865.459
07/12/2014  06:23:00      -62.297      -46.435        3.799       26.475       30.297       17.897      700.939      917.918      320.303        0.399        0.097       77.699       17.068        0.048      342.975       18.762      865.468
07/12/2014  06:24:00      -75.796      -31.186       -4.437       19.307       17.886       10.783      372.744      319.896      116.268        0.377        0.040       81.961        7.142        0.008      342.995       18.795      865.469
07/12/2014  06:25:00      -85.280      -36.754       -5.810       11.960       16.596       10.931      143.042      275.413      119.498        0.460        0.027       92.863        6.725        0.005      343.020       18.838      865.468
07/12/2014  06:26:00      -42.204      -27.019        5.656       29.355       18.680       12.667      861.693      348.935      160.459        0.196        0.069       50.112       12.980        0.067      343.044       18.879      865.463
07/12/2014  06:27:00      -32.718      -17.290        4.437       30.756       16.016       14.061      945.912      256.523      197.716        0.139        0.070       37.006       18.620        0.253      343.253       19.235      865.455
07/12/2014  06:28:00      -96.808      -16.717       -9.803       12.305       17.058        9.209      151.418      290.963       84.815        0.514        0.026       98.241        6.117        0.004      343.116       19.000      865.456
07/12/2014  06:29:00      -71.922      -21.993      -12.480       11.283       12.976        9.917      127.297      168.380       98.340        0.310        0.020       75.209        6.060        0.006      343.117       19.002      865.460
07/12/2014  06:30:00      -42.489      -19.811        0.465       14.151       16.679        9.564      200.251      278.181       91.473        0.138        0.028       46.880        4.816        0.011      343.141       19.045      865.452
07/12/2014  06:31:00      -63.385      -23.819       -2.788       21.035       13.235        9.797      442.458      175.165       95.979        0.265        0.036       67.713        6.749        0.010      343.127       19.020      865.451
07/12/2014  06:32:00      -31.244      -38.438        3.796       29.820       23.645       23.640      889.213      559.106      558.845        0.224        0.100       49.534       20.393        0.169      343.156       19.069      865.447
07/12/2014  06:33:00      -61.884      -56.421        0.021       35.659       26.159       20.911     1271.546      684.279      437.251        0.470        0.120       83.743       19.950        0.057      343.101       18.976      865.448
07/12/2014  06:34:00      -76.914      -64.689        9.220       33.991       32.820       19.889     1155.383     1077.127      395.585        0.641        0.131      100.501       16.092        0.026      343.106       18.984      865.438
07/12/2014  06:35:00      -98.364      -64.541       -1.043       37.311       24.936       19.563     1392.123      621.780      382.699        0.812        0.120      117.648       18.220        0.024      343.135       19.034      865.443
07/12/2014  06:36:00      -80.378      -75.300        0.635       40.787       41.491       31.724     1663.543     1721.511     1006.403        0.826        0.220      110.139       25.828        0.055      343.117       19.002      865.442
07/12/2014  06:37:00      -66.260      -54.232        3.050       41.526       30.663       18.107     1724.396      940.193      327.857        0.517        0.150       85.624       18.025        0.044      343.192       19.129      865.454
07/12/2014  06:38:00      -40.422      -52.963        5.600       44.642       40.681       26.271     1992.906     1654.925      690.176        0.440        0.217       66.626       31.400        0.222      343.269       19.262      865.474
07/12/2014  06:39:00      -88.908      -72.825       -2.333       43.523       36.446       22.087     1894.212     1328.299      487.849        0.846        0.186      114.927       20.696        0.032      343.174       19.100      865.492
07/12/2014  06:40:00     -153.597      -75.656       -5.579       47.314       34.915       24.225     2238.578     1219.052      586.856        1.669        0.202      171.219       13.606        0.006      343.151       19.059      865.507
07/12/2014  06:41:00     -116.631      -61.746        4.749       54.017       41.046       24.832     2917.830     1684.745      616.637        1.133        0.261      131.968       27.285        0.043      343.200       19.144      865.525
07/12/2014  06:42:00      -99.168      -65.517        5.801       54.609       36.100       27.128     2982.129     1303.177      735.916        0.959        0.251      118.856       25.277        0.045      343.224       19.186      865.527
07/12/2014  06:43:00     -118.696      -43.759        2.620       31.870       46.725       22.209     1015.690     2183.223      493.233        0.985        0.185      126.506       13.042        0.011      343.222       19.182      865.547
07/12/2014  06:44:00     -146.865       -2.279      -15.691       27.190       33.546       23.929      739.276     1125.363      572.596        1.213        0.122      146.882       14.964        0.010      343.276       19.274      865.549
07/12/2014  06:45:00     -100.734      -25.812       -5.577       25.482       26.619       15.326      649.321      708.597      234.900        0.622        0.080      103.988       13.970        0.018      343.316       19.344      865.555
07/12/2014  06:46:00      -73.614      -19.523       -0.714       25.288       50.831       22.013      639.479     2583.784      484.577        0.475        0.185       76.158       22.880        0.090      343.395       19.477      865.568
07/12/2014  06:47:00      -90.199      -22.004       -3.810       32.073       33.416       18.403     1028.646     1116.599      338.660        0.556        0.124       92.844       19.574        0.044      343.427       19.531      865.564
07/12/2014  06:48:00      -66.118        4.044       -2.589       31.737       30.068       16.440     1007.213      904.086      270.269        0.329        0.109       66.242       11.383        0.030      343.473       19.611      865.570
07/12/2014  06:49:00      -33.574      -11.569       -1.761       11.293       22.641       11.819      127.539      512.612      139.680        0.102        0.039       35.511        7.940        0.050      343.559       19.755      865.562
07/12/2014  06:50:00      -37.312      -10.623        1.358       23.284       17.418       18.161      542.144      303.373      329.832        0.134        0.059       38.795       16.513        0.181      343.604       19.831      865.573
07/12/2014  06:51:00      -53.591       -6.443        1.918       23.961       17.137       13.768      574.148      293.671      189.558        0.199        0.053       53.977       13.427        0.062      343.713       20.019      865.572
07/12/2014  06:52:00      -34.824       -8.107        6.219       14.182       18.681        9.435      201.129      348.993       89.027        0.098        0.032       35.755        4.878        0.019      343.638       19.890      865.582
07/12/2014  06:53:00      -34.940      -14.651        2.254       23.214       13.052       11.720      538.900      170.348      137.367        0.114        0.042       37.887       13.274        0.123      343.816       20.193      865.578
07/12/2014  06:54:00      -35.519      -11.077        1.880       24.262       14.290        9.922      588.665      204.207       98.436        0.114        0.045       37.206        8.843        0.056      343.723       20.036      865.577
07/12/2014  06:55:00      -62.060        4.272       -4.165       21.189       14.265        9.758      448.989      203.501       95.210        0.232        0.037       62.207        8.004        0.017      343.657       19.922      865.598
07/12/2014  06:56:00      -66.923        6.153       -4.246       28.995       16.786       14.222      840.695      281.759      202.265        0.293        0.066       67.205       15.255        0.052      343.709       20.012      865.609
07/12/2014  06:57:00      -65.700       -0.327       -0.531       31.756       16.885       15.115     1008.422      285.099      228.458        0.292        0.076       65.701       16.451        0.063      343.706       20.006      865.621
07/12/2014  06:58:00      -83.392        2.056       -4.777       27.109       22.693       19.300      734.902      514.980      372.499        0.430        0.081       83.417       18.817        0.051      343.718       20.026      865.619
07/12/2014  06:59:00      -65.194        3.873        2.915       24.587       17.129       15.533      604.525      293.386      241.279        0.271        0.057       65.309       12.572        0.037      343.796       20.160      865.630
07/12/2014  07:00:00      -98.724        2.949       -7.768       31.238       18.952       15.505      975.801      359.170      240.415        0.570        0.079       98.768       15.303        0.024      343.813       20.189      865.632
07/12/2014  07:01:00      -83.959       -9.314        5.238       33.278       27.546       18.126     1107.409      758.807      328.549        0.468        0.110       84.474       14.978        0.031      343.840       20.234      865.632
07/12/2014  07:02:00      -51.111      -14.805        4.694       14.869       22.409       12.321      221.095      502.152      151.818        0.186        0.044       53.212       10.117        0.036      343.842       20.239      865.622
07/12/2014  07:03:00     -102.537      -26.819        0.528       34.976       21.392       16.073     1223.293      457.597      258.351        0.659        0.097      105.986       17.672        0.028      343.841       20.237      865.622
07/12/2014  07:04:00      -87.948       -9.834        0.864       25.293       18.097       15.059      639.720      327.515      226.771        0.451        0.060       88.496       11.975        0.018      343.792       20.155      865.621
07/12/2014  07:05:00      -86.497       -1.071       -3.647       32.425       19.656       15.759     1051.377      386.372      248.334        0.459        0.084       86.504       13.586        0.025      343.835       20.228      865.624
07/12/2014  07:06:00      -81.960       -5.243       -0.958       39.698       16.093       15.851     1575.957      258.984      251.266        0.442        0.104       82.127       20.802        0.064      343.884       20.314      865.626
07/12/2014  07:07:00      -45.369       -8.510        0.711       25.088       19.934       17.108      629.423      397.357      292.668        0.173        0.066       46.160       14.278        0.096      344.029       20.559      865.621
07/12/2014  07:08:00      -67.823      -41.928       -3.536       19.025       19.111       11.702      361.961      365.216      136.942        0.362        0.043       79.736       10.080        0.016      343.927       20.383      865.643
07/12/2014  07:09:00      -18.527      -25.962        4.471       21.333       18.347       14.871      455.112      336.624      221.147        0.102        0.051       31.895       11.805        0.137      344.088       20.658      865.646
07/12/2014  07:10:00      -33.990      -17.298        8.790       26.364       20.699       12.640      695.077      428.428      159.775        0.141        0.064       38.138       16.721        0.192      344.205       20.858      865.665
07/12/2014  07:11:00      -61.373      -17.655      -13.049       10.303       12.663       10.308      106.142      160.346      106.251        0.231        0.019       63.862        6.379        0.010      344.001       20.510      865.665
07/12/2014  07:12:00      -69.745      -17.665       -5.992       16.403       14.451        9.626      269.045      208.840       92.659        0.289        0.029       71.947        4.485        0.004      344.040       20.577      865.671
07/12/2014  07:13:00      -46.468      -41.515       -3.666       15.716       15.896       11.393      246.997      252.685      129.803        0.226        0.031       62.312        7.660        0.015      344.041       20.580      865.679
07/12/2014  07:14:00      -43.303      -38.025       -4.843       21.954       15.906       10.482      481.979      252.993      109.882        0.209        0.042       57.629       10.994        0.036      344.133       20.737      865.688
07/12/2014  07:15:00      -18.833      -30.162        8.256       18.592       21.528       13.547      345.675      463.448      183.526        0.116        0.050       35.559       10.673        0.090      344.276       20.981      865.699
07/12/2014  07:16:00       -9.415      -21.459        3.418       14.838       11.124       10.656      220.170      123.739      113.544        0.051        0.023       23.434        8.211        0.123      344.276       20.981      865.708
07/12/2014  07:17:00       -4.495      -32.391        5.975        8.343       16.984       11.603       69.609      288.446      134.630        0.080        0.025       32.702        7.943        0.059      344.226       20.894      865.710
07/12/2014  07:18:00      -25.632      -31.667       -2.527        9.462        7.525        9.172       89.520       56.623       84.120        0.095        0.012       40.740        5.925        0.021      344.158       20.778      865.716
07/12/2014  07:19:00      -14.607      -17.148        4.582        8.981        7.165        6.472       80.665       51.337       41.891        0.035        0.009       22.525        4.816        0.046      344.298       21.016      865.714
07/12/2014  07:20:00       -8.688      -10.855        0.094        6.208        7.203        5.482       38.534       51.890       30.048        0.016        0.006       13.904        4.295        0.095      344.351       21.106      865.723
07/12/2014  07:21:00      -15.974       -0.420        1.263        8.926        4.269        9.466       79.671       18.228       89.601        0.022        0.009       15.980        6.528        0.167      344.396       21.186      865.730
07/12/2014  07:22:00      -27.299       -4.028        0.788        6.896        7.222        8.000       47.557       52.156       63.996        0.046        0.008       27.594        4.619        0.028      344.237       20.914      865.727
07/12/2014  07:23:00      -17.223       -5.437        2.491        5.980        7.520        8.069       35.764       56.556       65.110        0.024        0.008       18.061        3.331        0.034      344.363       21.128      865.736
07/12/2014  07:24:00       -9.066       -3.720       -3.210        6.528        6.457        5.601       42.614       41.689       31.374        0.011        0.006        9.799        3.658        0.139      344.481       21.330      865.737
07/12/2014  07:25:00      -25.723        9.875        1.508        6.106       12.318       10.426       37.286      151.741      108.707        0.053        0.015       27.553        6.940        0.063      344.434       21.249      865.746
07/12/2014  07:26:00      -27.785       -9.737       -4.519        5.365        4.866        4.462       28.778       23.680       19.907        0.048        0.004       29.441        2.112        0.005      344.313       21.043      865.760
07/12/2014  07:27:00      -36.036       -3.384        1.436       11.196        8.924        8.935      125.352       79.644       79.830        0.080        0.014       36.194        5.423        0.022      344.275       20.978      865.771
07/12/2014  07:28:00      -40.563       -5.342       -3.534        6.457        5.907        5.051       41.697       34.896       25.511        0.089        0.005       40.914        3.415        0.007      344.266       20.963      865.781
07/12/2014  07:29:00      -36.112        1.929        3.556       14.370        9.238       10.278      206.499       85.346      105.640        0.086        0.020       36.164        8.359        0.053      344.329       21.071      865.787
07/12/2014  07:30:00      -34.038       -9.894       -3.631       18.209       11.131        7.949      331.562      123.910       63.186        0.089        0.026       35.447        7.197        0.041      344.414       21.217      865.787
07/12/2014  07:31:00      -20.591        3.414        0.701       14.366        9.863        8.637      206.393       97.281       74.606        0.041        0.019       20.872        5.856        0.079      344.554       21.455      865.793
07/12/2014  07:32:00      -30.216        6.200       -1.315       11.497       18.641        9.446      132.177      347.495       89.233        0.076        0.028       30.845        6.634        0.046      344.650       21.619      865.799
07/12/2014  07:33:00      -32.321       -8.481       -5.281        6.185        5.573        5.072       38.259       31.054       25.726        0.062        0.005       33.415        2.587        0.006      344.394       21.180      865.803
07/12/2014  07:34:00      -30.340      -20.892       -1.089        7.974       11.273        4.640       63.589      127.076       21.530        0.079        0.011       36.838        5.466        0.022      344.452       21.281      865.819
07/12/2014  07:35:00      -36.993      -40.086       -3.209       12.126       14.901        6.629      147.036      222.035       43.946        0.170        0.021       54.547        3.531        0.004      344.399       21.192      865.835
07/12/2014  07:36:00      -27.226      -33.022        5.785       26.978       16.377       16.608      727.831      268.210      275.819        0.157        0.064       42.798       19.641        0.211      344.662       21.641      865.847
07/12/2014  07:37:00      -42.033      -53.108        1.091       25.912       34.929       13.989      671.437     1220.062      195.691        0.334        0.104       67.729       11.338        0.028      344.432       21.246      865.861
07/12/2014  07:38:00      -71.723      -55.851        4.114       20.554       28.556       15.278      422.448      815.464      233.411        0.488        0.074       90.904       15.115        0.028      344.438       21.258      865.871
07/12/2014  07:39:00      -63.592      -78.622       -1.032       34.203       35.437       21.369     1169.854     1255.753      456.647        0.655        0.144      101.121       23.349        0.053      344.486       21.339      865.874
07/12/2014  07:40:00      -63.484      -57.232       -5.110       17.634       31.217       18.916      310.956      974.530      357.801        0.449        0.082       85.473        9.459        0.012      344.451       21.277      865.879
07/12/2014  07:41:00      -21.669      -40.345        6.562       21.922       35.127       19.212      480.587     1233.928      369.103        0.211        0.104       45.796       13.687        0.089      344.659       21.635      865.885
07/12/2014  07:42:00      -18.792       -0.406        1.407       16.329       33.796       17.746      266.641     1142.159      314.931        0.104        0.086       18.797        9.469        0.254      344.933       22.105      865.882
07/12/2014  07:43:00      -31.496        9.214       14.598       20.270       19.511       15.233      410.883      380.691      232.054        0.116        0.051       32.816       14.536        0.196      344.967       22.164      865.888
07/12/2014  07:44:00      -44.611       -3.488       -2.921       18.066       17.304       13.719      326.384      299.423      188.200        0.141        0.041       44.747        7.579        0.029      344.702       21.708      865.892
07/12/2014  07:45:00      -24.817       11.415       15.951       23.215       18.243       19.326      538.951      332.817      373.477        0.112        0.062       27.317       11.840        0.188      345.362       22.841      865.890
07/12/2014  07:46:00      -48.066      -17.969        3.764       42.980       37.537       18.345     1847.296     1408.993      336.524        0.312        0.180       51.315       23.112        0.203      344.829       21.926      865.887
07/12/2014  07:47:00      -66.806       -5.938        0.549       38.416       21.355       19.883     1475.803      456.053      395.347        0.341        0.116       67.069       22.215        0.110      344.744       21.780      865.894
07/12/2014  07:48:00      -39.963      -52.237       -0.136       30.425       52.995       21.421      925.673     2808.425      458.848        0.426        0.210       65.771       22.167        0.114      344.721       21.741      865.894
07/12/2014  07:49:00      -40.420      -64.289       -2.196       23.603       21.429       15.110      557.110      459.196      228.319        0.351        0.062       75.940       13.006        0.029      344.559       21.465      865.904
07/12/2014  07:50:00      -45.333      -54.260       -3.235       19.468       19.195        8.574      378.991      368.442       73.512        0.292        0.041       70.705        4.286        0.004      344.557       21.460      865.902
07/12/2014  07:51:00      -49.951      -61.951       -7.559       35.789       31.898       18.306     1280.883     1017.462      335.115        0.451        0.132       79.580       15.547        0.038      344.593       21.522      865.889
07/12/2014  07:52:00      -49.636      -71.841        1.615       31.637       40.912       18.985     1000.903     1673.794      360.447        0.533        0.152       87.321       25.547        0.086      344.734       21.764      865.881
07/12/2014  07:53:00      -59.087      -75.064      -10.562       24.591       21.309       17.446      604.729      454.072      304.353        0.530        0.068       95.530       14.016        0.022      344.585       21.509      865.871
07/12/2014  07:54:00      -53.943      -93.145        1.392       18.134       22.589       15.482      328.843      510.245      239.694        0.633        0.054      107.637        6.966        0.004      344.599       21.533      865.861
07/12/2014  07:55:00      -70.788      -50.874        4.022       29.679       20.803       16.807      880.850      432.766      282.460        0.461        0.080       87.173       16.094        0.034      344.733       21.761      865.866
07/12/2014  07:56:00      -58.229      -11.792       12.676       50.702       36.722       29.144     2570.651     1348.514      849.361        0.423        0.238       59.411       30.041        0.256      345.169       22.508      865.861
07/12/2014  07:57:00     -164.537      -33.567       -8.868       28.921       33.207       17.854      836.435     1102.684      318.749        1.527        0.113      167.926       14.185        0.007      344.607       21.546      865.856
07/12/2014  07:58:00      -56.028      -36.915       -1.486       45.281       28.054       16.396     2050.412      787.038      268.838        0.380        0.155       67.096       14.949        0.050      344.809       21.892      865.866
07/12/2014  07:59:00     -103.445      -54.203       -4.107       34.366       31.348       17.990     1181.033      982.667      323.643        0.807        0.124      116.785       10.874        0.009      344.720       21.738      865.878
07/12/2014  08:00:00      -46.155      -30.362       10.727       25.845       29.604       19.781      667.940      876.424      391.271        0.255        0.097       55.247       12.146        0.048      344.832       21.929      865.889
07/12/2014  08:01:00      -44.393      -38.592       -2.321       28.166       14.595       11.791      793.331      213.003      139.020        0.231        0.057       58.822       13.494        0.053      344.833       21.933      865.906
07/12/2014  08:02:00      -69.842       -7.958        0.155       42.802       32.711       24.105     1832.047     1070.029      581.041        0.421        0.174       70.294       18.031        0.066      345.019       22.252      865.923
07/12/2014  08:03:00     -102.054      -35.615        3.972       48.111       60.110       25.471     2314.674     3613.168      648.786        0.914        0.329      108.090       23.447        0.047      344.858       21.975      865.938
07/12/2014  08:04:00     -100.621      -52.744      -13.325       25.048       32.494       17.036      627.389     1055.891      290.209        0.753        0.099      113.607       10.226        0.008      344.835       21.935      865.945
07/12/2014  08:05:00      -56.654      -73.856       -1.879       38.932       40.462       20.427     1515.714     1637.182      417.282        0.612        0.179       93.083       22.796        0.060      344.920       22.082      865.943
07/12/2014  08:06:00      -80.453      -30.444       -4.624       53.953       24.043       20.443     2910.922      578.069      417.906        0.566        0.195       86.020       16.689        0.038      344.941       22.119      865.937
07/12/2014  08:07:00      -90.035      -52.174        3.501       59.771       46.762       28.327     3572.530     2186.658      802.403        0.870        0.328      104.060       28.798        0.077      345.189       22.543      865.930
07/12/2014  08:08:00     -140.761      -67.434       -2.196       52.207       27.110       21.660     2725.605      734.932      469.152        1.415        0.196      156.081       26.248        0.028      344.869       21.992      865.931
07/12/2014  08:09:00      -72.459       -0.862        5.231       55.010       40.017       27.350     3026.106     1601.368      748.004        0.533        0.269       72.464       29.567        0.166      345.361       22.838      865.939
07/12/2014  08:10:00      -82.029      -74.332       -1.622       50.224       48.785       27.259     2522.416     2380.003      743.065        0.895        0.282      110.698       32.632        0.087      345.088       22.370      865.946
07/12/2014  08:11:00      -44.083      -58.976        6.421       29.549       54.461       21.979      873.142     2965.986      483.064        0.489        0.216       73.630        9.963        0.018      345.079       22.354      865.958
07/12/2014  08:12:00      -56.495     -111.597        2.260       34.852       38.969       19.003     1214.665     1518.594      361.125        0.937        0.155      125.082       16.341        0.017      345.030       22.271      865.968
07/12/2014  08:13:00      -95.454     -136.482       -8.679       34.747       50.835       23.214     1207.342     2584.221      538.897        1.607        0.217      166.550       19.480        0.014      344.914       22.072      865.974
07/12/2014  08:14:00     -127.904      -56.065       -6.472       31.529       30.016       25.617      994.055      900.981      656.240        1.105        0.128      139.652       17.474        0.016      344.934       22.104      865.976
07/12/2014  08:15:00      -30.018      -18.752        6.221       24.038       23.600       17.415      577.836      556.967      303.280        0.136        0.072       35.393       14.786        0.175      345.419       22.938      865.971
07/12/2014  08:16:00      -59.384      -63.768       -3.272       21.363       22.353       12.428      456.365      499.673      154.457        0.436        0.056       87.137       10.009        0.013      344.991       22.203      865.974
07/12/2014  08:17:00     -103.529      -80.037       -0.999       48.018       46.557       26.675     2305.729     2167.583      711.531        1.115        0.259      130.859       27.607        0.045      345.075       22.348      865.973
07/12/2014  08:18:00      -99.574      -76.218       -3.866       48.764       42.520       23.883     2377.942     1807.951      570.393        1.025        0.238      125.396       25.679        0.042      344.995       22.211      865.982
07/12/2014  08:19:00      -55.068      -33.725       11.009       37.811       50.989       26.289     1429.678     2599.923      691.103        0.450        0.236       64.575       29.489        0.209      345.422       22.943      865.987
07/12/2014  08:20:00      -78.387      -86.955        1.172       40.765       42.128       27.039     1661.767     1774.793      731.103        0.894        0.208      117.071       24.746        0.045      345.065       22.331      866.001
07/12/2014  08:21:00      -79.262      -82.515       -6.338       21.939       33.695       18.288      481.321     1135.352      334.461        0.754        0.098      114.416       15.242        0.018      345.014       22.243      866.016
07/12/2014  08:22:00     -103.218      -77.076        1.520       34.075       33.594       24.091     1161.098     1128.571      580.396        0.973        0.144      128.820       24.243        0.035      345.094       22.378      866.014
07/12/2014  08:23:00      -70.900      -68.313      -10.861       23.904       24.615       17.346      571.418      605.891      300.870        0.564        0.074       98.455        9.865        0.010      345.058       22.319      866.015
07/12/2014  08:24:00      -30.941        3.076        2.874       15.015       12.623       14.313      225.440      159.352      204.853        0.078        0.029       31.093       10.514        0.114      345.342       22.806      866.017
07/12/2014  08:25:00       -3.023       -7.525       19.074       14.089       15.037       20.851      198.506      226.108      434.750        0.064        0.043        8.110       13.581        2.804      346.324       24.492      866.019
07/12/2014  08:26:00      -55.098      -80.315       -4.693       45.542       38.723       21.296     2074.103     1499.507      453.516        0.677        0.201       97.397       18.827        0.037      345.182       22.530      866.024
07/12/2014  08:27:00      -57.078      -42.419       -0.629       38.706       41.435       25.880     1498.139     1716.880      669.789        0.447        0.194       71.115       16.708        0.055      345.423       22.941      866.030
07/12/2014  08:28:00      -53.214      -39.343        6.135       28.744       27.163       16.707      826.226      737.841      279.127        0.313        0.092       66.178       17.880        0.073      345.402       22.907      866.034
07/12/2014  08:29:00      -36.233      -32.101       -3.971       11.298       12.923        5.915      127.644      167.012       34.986        0.134        0.016       48.407        4.416        0.008      345.126       22.434      866.038
07/12/2014  08:30:00      -11.983      -30.076       12.923        9.998       16.914       10.296       99.950      286.094      105.998        0.085        0.025       32.375        7.354        0.052      345.379       22.869      866.052
07/12/2014  08:31:00       -9.650       -0.828        6.439       21.027       16.717       17.592      442.126      279.462      309.495        0.058        0.052        9.685       13.726        2.008      345.669       23.366      866.056
07/12/2014  08:32:00      -60.283     -106.331       -1.769       36.810       43.991       18.253     1354.968     1935.224      333.187        0.928        0.181      122.231       12.318        0.010      345.219       22.594      866.075
07/12/2014  08:33:00      -92.431     -134.429       -3.790       54.780       30.215       27.410     3000.896      912.947      751.322        1.565        0.233      163.140       28.330        0.030      345.248       22.642      866.082
07/12/2014  08:34:00      -99.416     -101.615      -14.526       23.452       40.033       16.538      549.983     1602.628      273.505        1.142        0.121      142.159        8.918        0.004      345.237       22.624      866.092
07/12/2014  08:35:00      -45.050      -20.042       18.527       54.926       44.124       28.748     3016.867     1946.897      826.449        0.428        0.290       49.306       30.288        0.377      345.773       23.543      866.090
07/12/2014  08:36:00      -47.029       26.468       22.779       51.675       24.138       24.394     2670.336      582.652      595.089        0.364        0.192       53.965       19.854        0.135      345.848       23.673      866.085
07/12/2014  08:37:00       -8.539       23.292       60.461       12.203       26.614       16.608      148.914      708.304      275.819        0.270        0.057       24.808        9.318        0.141      346.884       25.454      866.089
07/12/2014  08:38:00      -14.460       16.704       55.617       17.383       25.007       19.259      302.174      625.341      370.913        0.244        0.065       22.093       15.037        0.463      346.673       25.091      866.091
07/12/2014  08:39:00      -17.798       19.086       52.246       20.189       26.637       23.227      407.597      709.539      539.515        0.253        0.083       26.097       17.457        0.447      346.814       25.333      866.093
07/12/2014  08:40:00      -13.645       10.898       66.411       15.410       24.130       17.955      237.479      582.259      322.365        0.293        0.057       17.463       15.874        0.826      346.639       25.032      866.087
07/12/2014  08:41:00      -23.947        1.997       35.220       21.421       24.697       31.320      458.872      609.946      980.937        0.193        0.102       24.030       23.453        0.953      346.213       24.299      866.097
07/12/2014  08:42:00      -29.945       -8.097        5.611       19.770       17.217       17.602      390.851      296.423      309.826        0.100        0.050       31.020       13.859        0.200      345.941       23.831      866.094
07/12/2014  08:43:00      -17.330      -81.204        0.589       48.595       65.467       31.455     2361.472     4285.913      989.390        0.726        0.382       83.032       34.744        0.175      345.827       23.635      866.107
07/12/2014  08:44:00        0.557      -33.565       19.100       36.053       66.830       47.305     1299.792     4466.303     2237.793        0.475        0.400       33.570       38.229        1.297      346.205       24.285      866.108
07/12/2014  08:45:00      -11.380       33.585       85.254       14.702       34.838       22.154      216.138     1213.665      490.813        0.522        0.096       35.461       22.654        0.408      346.618       24.995      866.117
07/12/2014  08:46:00       10.180       46.583       58.769       27.726       43.372       20.856      768.716     1881.097      434.993        0.441        0.154       47.682       18.990        0.159      346.437       24.685      866.121
07/12/2014  08:47:00       -2.700       67.882       84.083       22.336       32.088       17.154      498.882     1029.643      294.266        0.675        0.091       67.936       14.506        0.046      346.309       24.465      866.134
07/12/2014  08:48:00        6.656       52.731       73.961       42.741       44.238       24.698     1826.804     1956.967      609.985        0.634        0.220       53.150       18.161        0.117      346.567       24.908      866.129
07/12/2014  08:49:00       15.995       27.049        8.639       51.254       41.393       26.017     2626.940     1713.408      676.871        0.304        0.251       31.424       23.059        0.538      345.980       23.899      866.125
07/12/2014  08:50:00      -48.733      -10.679       12.180       24.252       20.460       19.543      588.160      418.629      381.928        0.201        0.069       49.889       12.646        0.064      345.907       23.775      866.126
07/12/2014  08:51:00      -26.468        6.962        3.393       16.388       25.972       19.466      268.566      674.520      378.917        0.104        0.066       27.368       11.152        0.166      346.070       24.054      866.102
07/12/2014  08:52:00      -31.261      -42.849        3.149       35.328       36.623       20.749     1248.065     1341.228      430.522        0.292        0.151       53.041       20.641        0.151      346.116       24.132      866.097
07/12/2014  08:53:00      -48.731      -38.726        9.167       49.596       34.439       24.762     2459.761     1186.059      613.162        0.411        0.213       62.245       22.266        0.128      346.112       24.126      866.071
07/12/2014  08:54:00      -62.863      -24.251        2.315       32.230       38.073       22.970     1038.768     1449.558      527.629        0.378        0.151       67.378       17.202        0.065      345.716       23.445      866.068
07/12/2014  08:55:00      -74.411       32.420       -9.240       22.735       21.166       15.094      516.898      448.001      227.829        0.393        0.060       81.167        6.080        0.006      345.641       23.316      866.053
07/12/2014  08:56:00      -88.275       21.476       -7.569       40.430       24.842       19.115     1634.600      617.144      365.368        0.546        0.131       90.850       15.089        0.028      345.649       23.330      866.049
07/12/2014  08:57:00      -91.987      -21.688       -7.736       40.017       24.023       14.771     1601.398      577.115      218.168        0.569        0.120       94.509        9.086        0.009      345.619       23.278      866.049
07/12/2014  08:58:00      -62.072        2.656      -10.222       16.781       11.809       13.214      281.601      139.448      174.618        0.228        0.030       62.129        7.799        0.016      345.623       23.284      866.048
07/12/2014  08:59:00      -38.758        9.256      -13.262       12.724       13.282       11.010      161.907      176.399      121.227        0.111        0.023       39.847        7.251        0.033      345.746       23.496      866.050
07/12/2014  09:00:00       -5.218      -16.853       -8.886       11.462       10.633       10.198      131.369      113.069      103.989        0.037        0.017       17.642        5.860        0.110      346.077       24.066      866.042
07/12/2014  09:01:00      -37.313       -1.213       -4.763       14.149       12.890        9.011      200.200      166.146       81.201        0.093        0.022       37.333        4.469        0.014      345.837       23.654      866.045
07/12/2014  09:02:00      -20.365        7.059       -7.543       17.388       21.539       13.143      302.345      463.941      172.749        0.073        0.047       21.554        7.284        0.114      346.367       24.563      866.033
07/12/2014  09:03:00        0.117      -41.071       -7.809       26.702       21.814       26.124      713.006      475.861      682.441        0.181        0.094       41.071       12.845        0.098      346.198       24.274      866.037
07/12/2014  09:04:00      -13.741       21.470       26.026       31.030       46.680       25.918      962.875     2178.997      671.729        0.257        0.191       25.490       23.816        0.873      346.892       25.468      866.023
07/12/2014  09:05:00        1.091       25.641       36.376       21.761       33.164       21.839      473.557     1099.857      476.937        0.202        0.103       25.664       15.746        0.376      347.206       26.008      866.033
07/12/2014  09:06:00       36.505       32.857       10.730       24.921       23.034       28.214      621.048      530.546      796.015        0.224        0.097       49.114       11.767        0.057      346.563       24.901      866.033
07/12/2014  09:07:00       13.274       23.343       14.282       24.989       28.254       19.470      624.463      798.263      379.094        0.136        0.090       26.853       10.805        0.162      346.849       25.393      866.023
07/12/2014  09:08:00       -0.759        2.716       24.360       40.341       23.492       16.573     1627.426      551.864      274.672        0.153        0.123        2.820       12.651       20.125      346.887       25.459      866.019
07/12/2014  09:09:00       18.091        9.148       12.233       29.372       33.471       21.567      862.731     1120.324      465.120        0.150        0.122       20.273        9.450        0.217      347.283       26.142      866.011
07/12/2014  09:10:00      -24.807      -17.678       34.418       33.488       38.154       27.219     1121.430     1455.745      740.879        0.271        0.166       30.461       27.653        0.824      347.319       26.205      866.002
07/12/2014  09:11:00        5.106      -41.494       27.796       37.011       54.007       27.435     1369.805     2916.804      752.669        0.378        0.252       41.807       23.196        0.308      346.717       25.167      865.997
07/12/2014  09:12:00       83.938       22.052       24.753       70.092       55.851       38.893     4912.829     3119.318     1512.686        0.884        0.477       86.787       34.173        0.155      346.379       24.585      866.002
07/12/2014  09:13:00       46.674      -22.066       40.407       68.882       92.091       45.094     4744.720     8480.680     2033.454        0.978        0.763       51.627       48.578        0.885      346.524       24.834      866.003
07/12/2014  09:14:00       75.527      -10.733       47.375       58.596      106.426       38.592     3433.509    11326.517     1489.331        1.215        0.812       76.286       52.406        0.472      346.302       24.452      866.001
07/12/2014  09:15:00      122.348       73.322        1.061       38.075       31.312       33.147     1449.680      980.452     1098.725        1.194        0.176      142.636       10.156        0.005      346.342       24.521      865.997
07/12/2014  09:16:00      105.587       74.071       13.348       57.838       57.726       44.753     3345.269     3332.249     2002.870        1.275        0.434      128.977       24.516        0.036      346.737       25.200      865.989
07/12/2014  09:17:00       42.897       52.810       45.905       48.962       32.406       36.880     2397.236     1050.153     1360.165        0.577        0.240       68.037       28.684        0.178      346.742       25.207      865.986
07/12/2014  09:18:00       62.374       75.146        0.847       49.216       57.447       38.330     2422.208     3300.199     1469.189        0.836        0.360       97.660       25.012        0.066      346.620       24.999      865.988
07/12/2014  09:19:00       89.069       72.092        2.377       43.543       49.696       35.985     1895.950     2469.740     1294.906        0.940        0.283      114.589       24.960        0.047      346.490       24.774      865.984
07/12/2014  09:20:00       59.582       73.109        0.803       29.797       51.491       35.373      887.876     2651.358     1251.245        0.684        0.240       94.313       34.748        0.136      346.328       24.497      865.964
07/12/2014  09:21:00        8.291       80.349        0.873       31.383       49.844       35.995      984.891     2484.450     1295.642        0.564        0.238       80.776       34.349        0.181      346.739       25.205      865.961
07/12/2014  09:22:00       -6.047       60.639       15.110       48.338       42.709       32.887     2336.562     1824.041     1081.585        0.459        0.262       60.940       30.337        0.248      347.138       25.892      865.956
07/12/2014  09:23:00       59.873       74.521       -1.937       32.169       37.693       29.815     1034.868     1420.780      888.917        0.624        0.167       95.594       17.196        0.032      346.832       25.364      865.962
07/12/2014  09:24:00       -0.005       66.630        6.092       26.319       52.739       30.914      692.670     2781.423      955.697        0.445        0.221       66.630       28.896        0.188      346.695       25.128      865.960
07/12/2014  09:25:00       11.427       74.933        4.795       25.314       40.471       33.505      640.798     1637.890     1122.615        0.458        0.170       75.799       24.711        0.106      346.606       24.974      865.964
07/12/2014  09:26:00       71.224       59.999        0.034       30.145       29.793       29.256      908.751      887.631      855.894        0.566        0.133       93.128       15.144        0.026      346.401       24.621      865.968
07/12/2014  09:27:00       55.787       57.839        1.272       24.635       32.656       27.568      606.877     1066.410      760.021        0.445        0.122       80.359        8.609        0.011      346.481       24.761      865.966
07/12/2014  09:28:00       46.867       51.850       30.736       38.274       24.050       30.211     1464.915      578.380      912.705        0.439        0.148       69.892       18.487        0.070      346.803       25.312      865.957
07/12/2014  09:29:00        4.397       37.729       13.365       27.115       37.010       22.355      735.213     1369.708      499.732        0.211        0.130       37.985       12.673        0.111      347.053       25.746      865.949
07/12/2014  09:30:00      -28.476       24.352       41.115       23.476       31.398       46.249      551.110      985.822     2138.930        0.338        0.184       37.468       29.570        0.623      347.533       26.570      865.946
07/12/2014  09:31:00      -11.630       18.315       77.970       23.393       53.893       23.829      547.250     2904.431      567.833        0.528        0.201       21.695       23.340        1.157      347.650       26.773      865.941
07/12/2014  09:32:00        4.986       54.424       92.731       34.062       50.260       28.789     1160.187     2526.034      828.802        0.805        0.226       54.652       22.791        0.174      347.170       25.944      865.930
07/12/2014  09:33:00       57.302        5.190       51.839       58.755       54.450       47.243     3452.105     2964.804     2231.862        0.732        0.432       57.536       45.562        0.627      347.086       25.800      865.928
07/12/2014  09:34:00       59.756      -46.138       22.976       67.046       83.375       58.550     4495.131     6951.430     3428.148        1.055        0.744       75.495       70.442        0.871      347.004       25.661      865.918
07/12/2014  09:35:00       23.727      -24.586       44.059       50.805       85.873       59.971     2581.103     7374.151     3596.560        0.833        0.678       34.168       69.330        4.117      347.401       26.344      865.905
07/12/2014  09:36:00       -3.094      -78.016        2.240       71.064       69.668       43.102     5050.068     4853.570     1857.812        0.893        0.588       78.078       42.031        0.290      346.946       25.559      865.901
07/12/2014  09:37:00       31.767     -106.475      -23.023       50.429       43.249       44.688     2543.038     1870.458     1997.053        0.964        0.321      111.113       31.922        0.083      347.015       25.678      865.911
07/12/2014  09:38:00       38.887     -147.163      -25.084       40.897       44.709       28.458     1672.563     1998.885      809.874        1.414        0.224      152.214       23.331        0.023      346.349       24.532      865.916
07/12/2014  09:39:00       33.443      -62.747       17.963       39.681       48.098       29.722     1574.620     2313.414      883.407        0.507        0.239       71.103       26.487        0.139      346.839       25.375      865.914
07/12/2014  09:40:00       69.139       31.110       21.039       67.117       51.788       50.698     4504.655     2682.020     2570.274        0.797        0.488       75.816       45.528        0.361      347.041       25.725      865.910
07/12/2014  09:41:00      101.028       75.934        6.849       53.689       37.581       30.726     2882.539     1412.324      944.092        1.063        0.262      126.383       18.886        0.022      346.791       25.293      865.907
07/12/2014  09:42:00      116.584       59.333       25.708       57.242       55.709       39.634     3276.617     3103.540     1570.890        1.286        0.398      130.814       33.680        0.066      346.703       25.142      865.895
07/12/2014  09:43:00      112.824       73.756        6.867       38.576       34.127       24.842     1488.116     1164.682      617.101        1.074        0.163      134.794       20.854        0.024      346.491       24.777      865.896
07/12/2014  09:44:00       88.977       45.066        1.168       47.326       31.703       33.260     2239.754     1005.096     1106.243        0.715        0.218       99.739       24.269        0.059      346.999       25.652      865.882
07/12/2014  09:45:00      111.082       81.899        7.127       37.265       35.914       31.466     1388.682     1289.844      990.114        1.138        0.183      138.009       20.716        0.023      346.726       25.181      865.887
07/12/2014  09:46:00       92.923       88.419       -4.840       47.284       37.348       32.115     2235.740     1394.892     1031.356        1.057        0.233      128.268       20.293        0.025      346.785       25.282      865.889
07/12/2014  09:47:00       60.598       56.411       38.137       45.676       45.544       31.735     2086.287     2074.224     1007.128        0.674        0.258       82.791       19.255        0.054      347.242       26.069      865.898
07/12/2014  09:48:00       41.727       62.158        4.267       57.778       52.120       37.010     3338.306     2716.458     1369.721        0.652        0.371       74.865       30.744        0.169      346.851       25.397      865.909
07/12/2014  09:49:00      112.128       36.193       -0.821       30.002       62.431       32.206      900.104     3897.680     1037.251        0.986        0.292      117.825       17.396        0.022      346.635       25.025      865.909
07/12/2014  09:50:00       24.103       24.490       22.747       26.665       27.502       24.389      711.020      756.381      594.815        0.188        0.103       34.361       12.085        0.124      347.312       26.190      865.915
07/12/2014  09:51:00        4.334       49.411       11.533       28.322       35.162       27.805      802.160     1236.357      773.136        0.270        0.141       49.601       23.263        0.220      347.304       26.177      865.905
07/12/2014  09:52:00       15.978       51.409       14.772       44.031       58.693       34.625     1938.756     3444.812     1198.883        0.485        0.329       53.835       27.694        0.265      347.688       26.839      865.902
07/12/2014  09:53:00      111.990       77.358       15.916       57.380       41.578       47.792     3292.514     1728.716     2284.073        1.304        0.365      136.110       27.653        0.041      347.229       26.047      865.907
07/12/2014  09:54:00       26.130       29.420       29.307       46.209       38.087       30.904     2135.243     1450.627      955.078        0.347        0.227       39.348       23.080        0.344      347.789       27.013      865.917
07/12/2014  09:55:00       10.947       46.797       20.200       30.482       44.281       30.255      929.156     1960.818      915.349        0.326        0.190       48.060       25.079        0.272      348.032       27.432      865.926
07/12/2014  09:56:00       27.234       50.445       47.414       49.540       44.569       37.377     2454.246     1986.357     1397.003        0.568        0.292       57.327       28.818        0.253      347.738       26.925      865.914
07/12/2014  09:57:00       41.370       13.567       22.286       62.475       59.018       37.375     3903.141     3483.072     1396.867        0.559        0.439       43.538       25.393        0.340      347.599       26.685      865.900
07/12/2014  09:58:00       19.878       91.174        2.026       42.505       82.445       32.709     1806.648     6797.176     1069.884        0.919        0.484       93.316       38.131        0.167      347.419       26.373      865.894
07/12/2014  09:59:00       55.640      136.514      -24.188       35.342       52.908       30.601     1249.053     2799.240      936.401        1.365        0.249      147.417       25.471        0.030      347.189       25.978      865.879
07/12/2014  10:00:00       43.448       31.052        4.612       34.290       28.619       27.108     1175.826      819.035      734.856        0.280        0.136       53.404       15.307        0.082      347.258       26.098      865.894
07/12/2014  10:01:00       -1.420       -7.022       -3.892       16.117       28.674       15.432      259.748      822.181      238.135        0.069        0.066        7.164        7.768        1.176      347.064       25.762      865.902
07/12/2014  10:02:00      -46.177      -19.214        4.101       25.970       22.765       17.962      674.439      518.234      322.621        0.202        0.076       50.015       13.822        0.076      347.049       25.738      865.904
07/12/2014  10:03:00      -53.974       47.321       -4.452       30.559       44.278       24.575      933.878     1960.545      603.939        0.433        0.175       71.781       23.752        0.109      347.251       26.085      865.905
07/12/2014  10:04:00       -1.756       40.745       23.924       66.926       42.549       35.749     4479.148     1810.376     1278.020        0.490        0.378       40.783       29.505        0.523      347.389       26.323      865.908
07/12/2014  10:05:00       22.838       39.852       40.122       50.087       42.420       41.124     2508.751     1799.477     1691.209        0.486        0.300       45.932       34.726        0.572      347.591       26.672      865.905
07/12/2014  10:06:00       15.472       67.418       39.111       38.649       42.949       36.246     1493.736     1844.600     1313.752        0.548        0.233       69.171       21.704        0.098      347.584       26.659      865.901
07/12/2014  10:07:00       52.680      102.843       -5.749       48.713       84.036       35.863     2372.988     7062.021     1286.176        1.205        0.536      115.550       45.385        0.154      347.200       25.997      865.915
07/12/2014  10:08:00      -64.019      101.039      -14.134       34.444       51.327       29.702     1186.383     2634.452      882.238        0.960        0.235      119.613       15.581        0.017      346.983       25.623      865.907
07/12/2014  10:09:00      -18.481       57.689        9.131       22.880       33.679       29.655      523.497     1134.292      879.405        0.314        0.127       60.577       19.371        0.102      347.873       27.160      865.901
07/12/2014  10:10:00      100.710       81.773       12.219       94.284       70.182       43.338     8889.539     4925.462     1878.195        1.633        0.785      129.727       37.404        0.083      347.461       26.447      865.888
07/12/2014  10:11:00      171.627      136.319       25.412       66.699       53.761       53.134     4448.771     2890.214     2823.273        2.942        0.508      219.177       32.043        0.021      347.219       26.026      865.883
07/12/2014  10:12:00      154.392      135.040       34.935      102.173       75.247       67.744    10439.274     5662.092     4589.284        3.199        1.035      205.116       45.771        0.050      347.352       26.256      865.878
07/12/2014  10:13:00      163.328      106.349        6.765       54.965       41.099       42.019     3021.156     1689.097     1765.619        2.225        0.324      194.901        6.409        0.001      347.307       26.179      865.887
07/12/2014  10:14:00      148.664       78.752       16.660       68.346       46.365       37.868     4671.198     2149.719     1434.018        1.842        0.413      168.235       28.496        0.029      347.343       26.243      865.882
07/12/2014  10:15:00       96.408       55.282       -0.938       49.711       35.120       37.268     2471.221     1233.389     1388.885        0.872        0.255      111.133       20.432        0.034      347.052       25.741      865.888
07/12/2014  10:16:00       99.448       81.607       17.925       39.421       32.200       33.135     1553.997     1036.822     1097.925        1.028        0.184      128.645       18.586        0.021      347.087       25.801      865.873
07/12/2014  10:17:00       92.222       80.225        2.834       51.846       40.065       37.405     2687.969     1605.244     1399.147        1.032        0.285      122.233       18.284        0.022      346.927       25.527      865.869
07/12/2014  10:18:00       37.949       55.342       73.417       43.820       79.563       75.855     1920.229     6330.215     5753.923        1.195        0.700       67.103       68.087        1.030      347.382       26.310      865.858
07/12/2014  10:19:00       29.256       72.840       86.044       50.586       68.856       43.017     2558.973     4741.163     1850.450        1.136        0.458       78.496       42.354        0.291      347.619       26.719      865.856
07/12/2014  10:20:00        6.190       34.998       86.276       33.707       73.399       35.789     1136.132     5387.379     1280.828        0.825        0.390       35.542       41.721        1.378      347.930       27.257      865.853
07/12/2014  10:21:00       37.993      -25.565       50.330       47.052       89.329       50.505     2213.882     7979.663     2550.735        0.868        0.637       45.794       51.275        1.254      347.788       27.012      865.857
07/12/2014  10:22:00       34.657        1.756       51.140       41.590       31.942       30.636     1729.756     1020.296      938.572        0.375        0.184       34.701       20.043        0.334      348.125       27.594      865.844
07/12/2014  10:23:00       18.388      -17.290       38.665       26.023       57.471       26.334      677.220     3302.871      693.464        0.340        0.234       25.240       28.366        1.263      347.959       27.308      865.843
07/12/2014  10:24:00        3.765      157.452      -14.101       47.761      100.881       38.590     2281.084    10176.970     1489.196        1.947        0.697      157.497       49.206        0.098      347.520       26.546      865.840
07/12/2014  10:25:00        9.832      306.855      -40.658       47.213       52.860       33.182     2229.055     2794.163     1101.074        5.102        0.306      307.012       30.146        0.010      347.145       25.897      865.847
07/12/2014  10:26:00       -3.909      189.788      -23.854       29.410       63.127       27.994      864.924     3984.974      783.666        2.112        0.282      189.828       28.582        0.023      347.412       26.361      865.862
07/12/2014  10:27:00      -22.093      188.033      -17.838       31.149       49.417       24.880      970.267     2442.026      619.029        2.010        0.202      189.326       27.436        0.021      347.406       26.353      865.858
07/12/2014  10:28:00        5.961       76.046      -16.992       40.015       80.711       32.863     1601.183     6514.282     1079.973        0.765        0.460       76.279       16.251        0.045      347.643       26.761      865.861
07/12/2014  10:29:00       -5.856       35.009       21.432       27.265       40.084       28.999      743.358     1606.734      840.941        0.245        0.160       35.496       27.226        0.588      348.475       28.198      865.835
07/12/2014  10:30:00      -22.305       70.064        7.035       24.804       39.799       29.648      615.242     1583.958      879.023        0.427        0.154       73.528       22.511        0.094      348.337       27.961      865.830
07/12/2014  10:31:00       -9.671       18.591       24.630       18.615       25.914       28.097      346.526      671.530      789.414        0.143        0.090       20.956       18.029        0.740      348.747       28.670      865.830
07/12/2014  10:32:00       40.663       38.066       -0.845       36.616       31.976       23.741     1340.729     1022.464      563.613        0.301        0.146       55.699       17.419        0.098      347.784       27.005      865.836
07/12/2014  10:33:00       64.754       97.480        4.489       44.455       54.391       35.835     1976.273     2958.396     1284.135        0.997        0.311      117.027       35.619        0.093      347.712       26.881      865.847
07/12/2014  10:34:00        2.040       61.520       15.436       53.719       43.794       34.119     2885.702     1917.901     1164.133        0.500        0.298       61.554       29.567        0.231      348.113       27.573      865.859
07/12/2014  10:35:00       39.594       26.205       25.167       40.296       30.341       21.542     1623.767      920.601      464.050        0.295        0.150       47.481       14.662        0.095      348.376       28.029      865.846
07/12/2014  10:36:00       28.254        6.732       20.107       46.977       52.951       29.735     2206.881     2803.842      884.185        0.357        0.295       29.045       16.787        0.334      348.391       28.052      865.839
07/12/2014  10:37:00       54.460      -94.974       12.366       79.138       69.710       52.919     6262.847     4859.504     2800.378        1.303        0.696      109.480       50.639        0.214      348.299       27.893      865.833
07/12/2014  10:38:00      133.152     -139.633       -2.226       49.975       80.739       56.614     2497.507     6518.831     3205.148        2.472        0.611      192.943       46.841        0.059      347.791       27.014      865.828
07/12/2014  10:39:00       47.462      -56.436       36.194       56.737       82.998       44.687     3219.093     6888.681     1996.890        0.942        0.605       73.741       38.078        0.267      348.467       28.184      865.834
07/12/2014  10:40:00       88.029       99.428      106.789       78.441       76.542       71.309     6153.037     5858.661     5084.910        2.306        0.855      132.797       62.022        0.218      347.790       27.012      865.843
07/12/2014  10:41:00       25.371      -19.078       24.567       47.982       55.130       37.586     2302.285     3039.317     1412.677        0.418        0.338       31.744       33.937        1.143      347.978       27.342      865.855
07/12/2014  10:42:00       67.877       45.727       35.155       72.547       42.458       39.614     5263.050     1802.692     1569.306        0.828        0.432       81.842       35.979        0.193      348.353       27.988      865.843
07/12/2014  10:43:00       41.132       34.550       49.638       65.891       46.065       38.234     4341.668     2121.943     1461.835        0.664        0.396       53.717       41.202        0.588      348.345       27.973      865.833
07/12/2014  10:44:00       69.277       29.839       29.231       54.353       83.927       46.198     2954.245     7043.758     2134.233        0.934        0.607       75.430       34.054        0.204      348.273       27.850      865.828
07/12/2014  10:45:00       77.446       46.636       28.133       58.234       73.066       33.412     3391.246     5338.710     1116.350        0.940        0.492       90.404        8.325        0.008      348.004       27.385      865.814
07/12/2014  10:46:00       32.950        0.593       42.275       37.604       31.785       32.735     1414.095     1010.301     1071.594        0.318        0.175       32.955       22.054        0.448      348.626       28.459      865.800
07/12/2014  10:47:00        3.397       59.411       58.497       32.458       36.080       24.710     1053.504     1301.781      610.586        0.496        0.148       59.508       17.655        0.088      348.571       28.364      865.796
07/12/2014  10:48:00        0.369       35.849       68.513       51.836       71.555       38.311     2686.957     5120.065     1467.744        0.763        0.464       35.851       36.735        1.050      348.632       28.470      865.772
07/12/2014  10:49:00      -15.373       32.043       61.928       26.823       58.656       31.133      719.472     3440.503      969.238        0.511        0.256       35.540       22.363        0.396      348.768       28.706      865.755
07/12/2014  10:50:00       -4.379        2.418       59.148       29.253       85.696       46.123      855.748     7343.877     2127.295        0.692        0.516        5.002       48.840       95.337      348.766       28.703      865.752
07/12/2014  10:51:00       41.165       58.047       60.402       67.293       50.709       38.767     4528.395     2571.423     1502.916        0.866        0.430       71.162       37.261        0.274      348.385       28.044      865.745
07/12/2014  10:52:00      -13.765        1.610       31.906       34.375       53.606       35.117     1181.609     2873.567     1233.191        0.325        0.264       13.858       26.417        3.634      348.602       28.418      865.742
07/12/2014  10:53:00       50.851       30.844       24.298       31.485       29.946       29.609      991.311      896.753      876.700        0.345        0.138       59.474       20.287        0.116      348.382       28.037      865.744
07/12/2014  10:54:00       -7.268       -8.545       24.784       19.522       26.328       20.881      381.105      693.138      436.005        0.112        0.076       11.218       15.933        2.017      349.138       29.347      865.732
07/12/2014  10:55:00       21.731      -51.213       16.145       55.599       94.005       52.396     3091.301     8836.923     2745.379        0.901        0.734       55.633       56.765        1.041      348.582       28.385      865.731
07/12/2014  10:56:00       74.091     -155.432      -28.334       69.226       69.785       40.189     4792.279     4869.939     1615.158        2.086        0.564      172.187       32.631        0.036      348.068       27.493      865.727
07/12/2014  10:57:00       58.625     -113.433       -8.086       55.869       48.501       43.477     3121.394     2352.395     1890.288        1.187        0.368      127.687       28.039        0.048      348.272       27.846      865.721
07/12/2014  10:58:00       32.528      -87.276      -11.401       50.128       36.569       33.553     2512.819     1337.316     1125.830        0.689        0.249       93.140       30.293        0.106      348.205       27.733      865.725
07/12/2014  10:59:00       33.979      -61.871       11.785       42.677      118.023       51.126     1821.343    13929.492     2613.834        1.174        0.918       70.588       71.793        1.034      348.374       28.022      865.723
07/12/2014  11:00:00       28.879       40.368       32.492       46.183       33.555       32.048     2132.831     1125.929     1027.100        0.390        0.214       49.634       24.284        0.239      348.765       28.700      865.731
07/12/2014  11:01:00       55.679       71.095       32.446       50.084       37.531       32.602     2508.380     1408.576     1062.902        0.709        0.249       90.304       20.329        0.051      348.980       29.073      865.731
07/12/2014  11:02:00       25.373       24.267       29.388       44.900       36.169       20.539     2015.979     1308.176      421.839        0.292        0.187       35.109       10.356        0.087      349.374       29.756      865.727
07/12/2014  11:03:00       86.903       69.090       35.881      115.181       87.850       48.743    13266.723     7717.671     2375.875        1.848        1.168      111.020       37.247        0.113      349.153       29.375      865.720
07/12/2014  11:04:00      125.695       95.502       17.596      117.790       69.757       53.847    13874.597     4866.017     2899.464        2.343        1.082      157.860       45.557        0.083      348.434       28.126      865.708
07/12/2014  11:05:00      116.412       53.544       15.805       80.096       62.049       43.015     6415.397     3850.077     1850.292        1.439        0.606      128.135       29.021        0.051      348.841       28.831      865.696
07/12/2014  11:06:00      172.396      144.131       11.770       93.691       70.210       67.357     8777.975     4929.489     4536.962        3.443        0.912      224.709       50.735        0.051      348.440       28.134      865.701
07/12/2014  11:07:00       98.877       69.208       13.980       89.333       54.385       39.455     7980.323     2957.685     1556.667        1.363        0.625      120.692       31.996        0.070      348.514       28.265      865.715
07/12/2014  11:08:00      101.904       85.662        8.831       76.855       71.558       45.666     5906.642     5120.618     2085.415        1.545        0.656      133.126       18.349        0.019      348.688       28.565      865.716
07/12/2014  11:09:00       49.252      112.514       -2.387       43.573       49.453       39.515     1898.572     2445.600     1561.438        1.050        0.295      122.822       33.060        0.072      348.315       27.922      865.740
07/12/2014  11:10:00       43.865       93.124        4.745       53.027       43.614       43.328     2811.914     1902.140     1877.303        0.860        0.330      102.938       34.536        0.113      348.201       27.724      865.737
07/12/2014  11:11:00       10.196       29.476       70.997       41.996       52.680       52.990     1763.691     2775.193     2807.955        0.668        0.367       31.190       35.472        1.293      348.919       28.967      865.737
07/12/2014  11:12:00       58.186       15.887       60.779       64.513       78.915       51.568     4161.983     6227.566     2659.228        1.019        0.652       60.316       53.873        0.798      348.748       28.672      865.733
07/12/2014  11:13:00       93.994      -18.614       38.972       72.473       73.860       56.779     5252.334     5455.250     3223.895        1.231        0.697       95.820       43.941        0.210      348.507       28.254      865.717
07/12/2014  11:14:00       41.234       53.783       -6.200       43.316       59.217       41.415     1876.278     3506.649     1715.190        0.586        0.355       67.770       28.571        0.178      348.325       27.939      865.716
07/12/2014  11:15:00       62.129       45.044       23.758       52.634       40.228       34.851     2770.286     1618.310     1214.604        0.603        0.280       76.740       16.021        0.044      348.730       28.640      865.692
07/12/2014  11:16:00       91.632       44.173       10.861       52.485       53.761       39.066     2754.664     2890.253     1526.179        0.882        0.359      101.724       25.653        0.064      348.737       28.651      865.688
07/12/2014  11:17:00      -12.229       14.990       -6.472       78.376       38.315       34.575     6142.737     1468.076     1195.425        0.461        0.440       19.345       26.738        1.910      348.793       28.750      865.685
07/12/2014  11:18:00     -105.316       22.168      -18.335       52.526       54.212       36.986     2759.031     2938.945     1367.973        0.949        0.353      107.624       24.961        0.054      348.438       28.135      865.665
07/12/2014  11:19:00      -88.990       28.350       12.088       65.766       42.020       35.288     4325.184     1765.684     1245.226        0.810        0.367       93.396       37.081        0.158      348.648       28.499      865.669
07/12/2014  11:20:00       52.829       33.896       47.589       37.586       40.647       48.449     1412.705     1652.202     2347.354        0.581        0.271       62.768       25.228        0.162      349.383       29.770      865.650
07/12/2014  11:21:00       -6.237        5.397       30.564       93.259       64.740       56.897     8697.276     4191.292     3237.277        0.856        0.806        8.248       40.464       24.069      348.970       29.055      865.655
07/12/2014  11:22:00      -33.849      -25.059       -7.734       45.723       47.776       34.000     2090.547     2282.586     1155.992        0.368        0.276       42.115       29.108        0.478      349.130       29.333      865.641
07/12/2014  11:23:00      -97.684      -86.385       18.296      114.687       82.030       51.050    13153.222     6728.981     2606.079        1.991        1.124      130.401       45.172        0.120      348.547       28.322      865.628
07/12/2014  11:24:00      -82.138      -48.217       22.132       77.172       69.818       39.016     5955.465     4874.596     1522.212        1.095        0.618       95.245       42.789        0.202      348.685       28.560      865.639
07/12/2014  11:25:00      -78.608      -63.451      -10.303       34.087       64.765       20.881     1161.914     4194.457      436.002        0.805        0.290      101.020       20.754        0.042      348.071       27.499      865.621
07/12/2014  11:26:00     -125.200       46.487        1.372       34.428       18.252       14.838     1185.318      333.123      220.163        0.979        0.087      133.552        9.798        0.005      347.950       27.290      865.626
07/12/2014  11:27:00      -61.336       12.681      -12.238       33.029       39.232       24.878     1090.884     1539.156      618.934        0.366        0.162       62.633       24.523        0.153      348.311       27.915      865.618
07/12/2014  11:28:00       65.346       45.361       41.009       85.338       60.933       46.259     7282.568     3712.775     2139.860        1.057        0.657       79.547       45.286        0.324      349.001       29.110      865.588
07/12/2014  11:29:00      189.462      113.883       15.458       64.826       56.380       44.903     4202.444     3178.711     2016.295        2.925        0.470      221.054       22.506        0.010      348.346       27.972      865.564
07/12/2014  11:30:00       30.851       10.704       40.756       42.795       42.744       29.040     1831.407     1827.090      843.338        0.361        0.225       32.655       22.983        0.495      349.080       29.245      865.562
07/12/2014  11:31:00      133.694      136.418       93.609       61.840       51.084       67.659     3824.196     2609.550     4577.696        2.813        0.551      191.008       44.385        0.054      348.352       27.982      865.563
07/12/2014  11:32:00      144.083       84.204       80.747       87.675       84.080       69.536     7686.987     7069.396     4835.240        2.698        0.980      166.883       63.824        0.146      348.382       28.034      865.550
07/12/2014  11:33:00       56.063       74.352       76.187       65.212       53.707       55.090     4252.654     2884.457     3034.963        1.232        0.509       93.120       37.301        0.160      348.456       28.166      865.551
07/12/2014  11:34:00       94.721       47.753       17.572       37.758       48.363       30.175     1425.699     2338.980      910.503        0.812        0.234      106.077       16.306        0.024      348.114       27.574      865.545
07/12/2014  11:35:00       48.810       12.497       31.340       38.379       34.333       25.482     1472.912     1178.771      649.310        0.341        0.165       50.384       22.133        0.193      348.680       28.553      865.522
07/12/2014  11:36:00       18.754       23.384       15.310       23.760       16.855       22.382      564.519      284.090      500.962        0.124        0.067       29.975       13.633        0.207      348.860       28.864      865.512
07/12/2014  11:37:00      -13.149       24.086       12.772       24.337       32.045       24.962      592.286     1026.875      623.100        0.158        0.112       27.442       21.685        0.624      349.006       29.117      865.495
07/12/2014  11:38:00       -7.624        9.466       18.667       14.011       20.168       16.170      196.322      406.760      261.478        0.068        0.043       12.155       10.062        0.685      349.486       29.950      865.489
07/12/2014  11:39:00      -67.379       -1.524        0.579       33.064       24.736       20.049     1093.252      611.890      401.959        0.332        0.105       67.396       17.399        0.067      348.711       28.607      865.470
07/12/2014  11:40:00      -39.692      -41.215        3.152       45.249       20.364       18.028     2047.445      414.673      325.016        0.304        0.139       57.220       10.541        0.034      348.825       28.804      865.463
07/12/2014  11:41:00      -53.754      -29.667        1.825       57.574       47.073       32.310     3314.782     2215.827     1043.952        0.517        0.329       61.398       24.334        0.157      348.918       28.966      865.453
07/12/2014  11:42:00      -50.271      -43.167       16.116       54.665       45.643       27.890     2988.269     2083.305      777.831        0.525        0.292       66.261       24.467        0.136      349.077       29.240      865.433
07/12/2014  11:43:00      -96.922      -85.251        8.054       78.966       85.476       38.257     6235.565     7306.199     1463.592        1.586        0.750      129.080       46.505        0.130      349.049       29.191      865.435
07/12/2014  11:44:00     -104.582     -109.115       11.632       75.308       45.098       35.377     5671.344     2033.840     1251.527        1.597        0.448      151.140       35.338        0.055      348.600       28.414      865.419
07/12/2014  11:45:00     -103.133     -102.230        7.456       75.242       49.311       36.656     5661.389     2431.594     1343.683        1.529        0.472      145.215       26.085        0.032      348.619       28.447      865.411
07/12/2014  11:46:00      -86.594      -42.111       -5.922       44.291       72.265       25.570     1961.722     5222.262      653.833        0.857        0.392       96.291       27.248        0.080      348.429       28.120      865.412
07/12/2014  11:47:00      -85.495      -25.921        6.364       44.410       48.228       25.530     1972.275     2325.907      651.786        0.648        0.247       89.338       27.212        0.093      348.560       28.345      865.404
07/12/2014  11:48:00      -42.428      -42.509        7.943       37.622       68.764       24.888     1415.450     4728.443      619.396        0.522        0.338       60.060       33.951        0.320      348.909       28.948      865.406
07/12/2014  11:49:00      -39.793      -60.524       -1.377       32.718       48.848       23.594     1070.438     2386.155      556.659        0.463        0.201       72.434       20.404        0.079      348.736       28.652      865.408
07/12/2014  11:50:00      -19.087      -10.695       11.718       20.955       13.161       18.895      439.117      173.213      357.003        0.079        0.048       21.879       15.555        0.505      349.218       29.485      865.413
07/12/2014  11:51:00      -19.737       22.154       36.336       25.187       28.343       21.595      634.374      803.333      466.338        0.205        0.095       29.671       19.635        0.438      349.832       30.551      865.404
07/12/2014  11:52:00       50.781       46.618        3.959       30.901       47.720       29.458      954.871     2277.189      867.761        0.443        0.205       68.934       23.157        0.113      349.445       29.878      865.401
07/12/2014  11:53:00      -13.693       32.442        2.890       53.988       54.125       36.407     2914.750     2929.503     1325.474        0.421        0.358       35.213       42.395        1.449      349.436       29.866      865.388
07/12/2014  11:54:00      -14.308       -4.027       21.071       26.064       24.958       21.173      679.353      622.877      448.299        0.121        0.088       14.864       11.675        0.617      350.220       31.224      865.375
07/12/2014  11:55:00      -34.042       14.945        7.275       37.240       66.615       30.013     1386.851     4437.575      900.763        0.408        0.336       37.178       26.330        0.502      349.825       30.539      865.361
07/12/2014  11:56:00      -51.585       28.901       19.075       61.273       41.183       29.738     3754.323     1696.011      884.368        0.510        0.317       59.129       35.681        0.364      349.828       30.545      865.353
07/12/2014  11:57:00      -63.055        0.865       14.606       65.771       35.524       36.036     4325.769     1261.971     1298.591        0.554        0.344       63.061       42.204        0.448      349.673       30.275      865.337
07/12/2014  11:58:00      -22.067        3.355       22.585       20.027       32.283       25.075      401.067     1042.214      628.733        0.154        0.104       22.321       17.241        0.597      349.998       30.839      865.338
07/12/2014  11:59:00      -21.387       30.629       17.265       26.477       36.376       25.655      701.007     1323.249      658.189        0.219        0.134       37.356       20.089        0.289      349.721       30.357      865.325
07/12/2014  12:00:00      -11.659       89.158       10.150       52.934       72.708       42.774     2801.993     5286.408     1829.603        0.905        0.496       89.917       40.413        0.202      349.598       30.144      865.324
07/12/2014  12:01:00      -51.141      191.823       -4.224       41.927       60.026       38.988     1757.881     3603.118     1520.076        2.315        0.344      198.523       33.433        0.028      348.950       29.018      865.309
07/12/2014  12:02:00      -25.723       76.441       11.253       36.536       62.309       37.696     1334.883     3882.393     1421.005        0.663        0.332       80.653       33.035        0.168      349.349       29.712      865.293
07/12/2014  12:03:00       69.885       94.539        1.101       62.349       60.466       42.088     3887.380     3656.127     1771.398        1.157        0.466      117.566       36.355        0.096      349.165       29.393      865.280
07/12/2014  12:04:00       34.819      123.450       -3.005       49.036       72.816       44.246     2404.525     5302.193     1957.709        1.306        0.483      128.267       37.381        0.085      349.158       29.381      865.271
07/12/2014  12:05:00        6.905      105.251       -1.945       46.938       80.324       32.915     2203.162     6451.977     1083.368        1.043        0.487      105.478       33.531        0.101      349.476       29.931      865.271
07/12/2014  12:06:00        3.677      177.185      -11.475       50.703       73.296       42.890     2570.804     5372.316     1839.531        2.066        0.489      177.223       36.952        0.043      349.297       29.621      865.269
07/12/2014  12:07:00       -4.827       93.349        0.615       39.479       71.617       34.072     1558.602     5128.963     1160.890        0.829        0.392       93.473       33.710        0.130      349.626       30.193      865.267
07/12/2014  12:08:00       41.818       86.031       13.427       72.197       57.662       57.056     5212.409     3324.906     3255.394        1.056        0.590       95.656       38.019        0.158      349.453       29.891      865.253
07/12/2014  12:09:00       49.367      148.410      -22.280       59.482       57.092       39.085     3538.073     3259.445     1527.663        1.664        0.416      156.405       34.611        0.049      348.870       28.882      865.256
07/12/2014  12:10:00      -14.265       69.121        3.368       33.588       45.514       30.491     1128.140     2071.555      929.730        0.456        0.206       70.577       20.215        0.082      349.325       29.669      865.259
07/12/2014  12:11:00       88.988       85.306        2.526       95.494       49.350       45.738     9119.140     2435.401     2091.965        1.442        0.682      123.272       29.681        0.058      349.315       29.652      865.239
07/12/2014  12:12:00       86.568      111.427       -6.204       55.792       59.171       51.831     3112.748     3501.194     2686.431        1.462        0.465      141.102       41.416        0.086      349.211       29.473      865.246
07/12/2014  12:13:00       66.777       61.172        1.519       32.730       35.018       30.934     1071.231     1226.269      956.891        0.573        0.163       90.560       18.266        0.041      349.073       29.234      865.234
07/12/2014  12:14:00      104.169       86.285       37.317       48.221       40.007       46.152     2325.253     1600.597     2130.038        1.287        0.303      135.264       17.520        0.017      349.062       29.213      865.229
07/12/2014  12:15:00       91.185       61.432       15.099       54.740       57.663       50.605     2996.489     3324.973     2560.857        1.060        0.444      109.949       30.886        0.079      349.231       29.508      865.216
07/12/2014  12:16:00      152.220       96.259       30.115       47.357       44.003       40.256     2242.696     1936.276     1620.549        1.957        0.290      180.102       20.133        0.012      348.967       29.049      865.189
07/12/2014  12:17:00      106.631       91.863        5.469       43.612       38.823       41.517     1902.037     1507.188     1723.644        1.248        0.257      140.744       26.476        0.035      348.934       28.993      865.166
07/12/2014  12:18:00       33.103       37.446      -10.001       36.330       35.479       27.314     1319.855     1258.783      746.071        0.296        0.166       49.980       22.017        0.194      349.315       29.653      865.165
07/12/2014  12:19:00        2.702       27.859       12.869       24.360       34.539       27.256      593.426     1192.946      742.916        0.174        0.126       27.990       24.202        0.748      349.746       30.402      865.149
07/12/2014  12:20:00      -33.321        5.002       -1.568       48.356       44.089       36.795     2338.331     1943.871     1353.847        0.339        0.282       33.694       15.838        0.221      349.634       30.207      865.144
07/12/2014  12:21:00     -131.293       55.445        5.956       49.125       36.368       32.615     2413.302     1322.649     1063.710        1.257        0.240      142.520       25.067        0.031      349.308       29.642      865.136
07/12/2014  12:22:00      -91.163       38.324        3.253       69.189       35.655       30.355     4787.071     1271.250      921.408        0.838        0.349       98.891       25.861        0.068      349.499       29.972      865.131
07/12/2014  12:23:00     -102.466       44.092       -3.073       55.596       65.202       35.755     3090.871     4251.286     1278.432        1.054        0.431      111.550       33.046        0.088      349.376       29.758      865.108
07/12/2014  12:24:00     -126.468      -80.672       14.130       80.381       59.455       42.169     6461.075     3534.878     1778.227        1.724        0.589      150.007       38.964        0.067      349.406       29.811      865.089
07/12/2014  12:25:00      -69.314      -38.021       12.057       86.828       61.268       41.230     7539.163     3753.810     1699.880        0.969        0.650       79.057       49.630        0.394      349.729       30.372      865.069
07/12/2014  12:26:00     -244.315      -66.564      -12.155       59.395       42.883       32.544     3527.740     1838.936     1059.132        3.535        0.321      253.221       23.867        0.009      348.900       28.928      865.045
07/12/2014  12:27:00     -182.967       14.801      -19.745       34.302       48.863       23.032     1176.647     2387.569      530.474        1.909        0.205      183.564       23.252        0.016      348.863       28.869      865.042
07/12/2014  12:28:00     -216.217       -4.071      -10.327       96.950       56.316       36.911     9399.377     3171.524     1362.427        3.040        0.697      216.255       45.429        0.044      349.223       29.491      865.015
07/12/2014  12:29:00     -197.887      -22.578      -23.106       85.227       46.510       36.906     7263.578     2163.209     1362.066        2.549        0.539      199.171       40.079        0.040      349.096       29.271      865.008
07/12/2014  12:30:00     -159.841      -77.103      -19.607       57.761       61.962       35.973     3336.283     3839.280     1294.064        2.017        0.423      177.465       15.390        0.008      348.989       29.086      864.998
07/12/2014  12:31:00      -38.487       -9.441      -25.505       47.478       76.926       37.184     2254.144     5917.600     1382.639        0.589        0.478       39.628       29.863        0.568      349.003       29.111      865.003
07/12/2014  12:32:00      -11.522       -8.413       13.129       50.932       30.142       33.607     2594.035      908.531     1129.411        0.250        0.232       14.267       23.033        2.606      349.489       29.954      864.982
07/12/2014  12:33:00     -100.932        1.985       -3.360       53.807       46.660       30.916     2895.160     2177.170      955.813        0.811        0.301      100.951       22.158        0.048      349.297       29.623      864.984
07/12/2014  12:34:00     -125.008       53.026      -17.259       53.053       21.091       16.515     2814.653      444.826      272.736        1.113        0.177      135.790       16.028        0.014      348.829       28.810      864.978
07/12/2014  12:35:00       17.710       34.026       28.952       42.617       38.594       32.397     1816.211     1489.468     1049.554        0.333        0.218       38.359       29.509        0.592      350.161       31.121      864.975
07/12/2014  12:36:00     -105.257      -95.489      -16.182       83.647       42.277       35.563     6996.838     1787.319     1264.755        1.525        0.502      142.117       44.745        0.099      349.380       29.764      864.979
07/12/2014  12:37:00      -31.771        4.130       11.158       36.814       43.885       33.700     1355.303     1925.934     1135.673        0.278        0.221       32.039       32.356        1.020      350.142       31.090      864.961
07/12/2014  12:38:00       13.498      -41.248        3.749       39.994       36.007       34.379     1599.499     1296.533     1181.936        0.299        0.204       43.400       20.565        0.225      350.122       31.055      864.967
07/12/2014  12:39:00       36.420       -6.156       16.733       49.450       42.285       42.022     2445.330     1788.058     1765.878        0.382        0.300       36.937       27.541        0.556      350.390       31.522      864.958
07/12/2014  12:40:00       47.055      -77.923        1.140       37.659       60.748       43.531     1418.165     3690.288     1894.945        0.764        0.350       91.028       37.037        0.166      349.475       29.932      864.960
07/12/2014  12:41:00        6.273      -72.729       -2.354       23.878       44.382       22.522      570.143     1969.773      507.247        0.419        0.152       72.999       12.809        0.031      349.224       29.496      864.956
07/12/2014  12:42:00      -10.010        4.412        5.541       17.100       25.735       19.818      292.418      662.309      392.772        0.075        0.067       10.939       11.316        1.070      350.002       30.846      864.935
07/12/2014  12:43:00        4.738       -6.508       42.227       20.189       27.829       21.661      407.576      774.470      469.188        0.175        0.083        8.051       18.276        5.154      350.782       32.203      864.941
07/12/2014  12:44:00       47.802      -20.878       40.493       60.362       84.960       49.531     3643.521     7218.130     2453.316        0.884        0.666       52.162       39.747        0.581      349.986       30.818      864.908
07/12/2014  12:45:00      125.711      -61.790       37.603      100.908      111.197       60.490    10182.486    12364.777     3659.078        2.362        1.310      140.076       66.428        0.225      349.723       30.359      864.891
07/12/2014  12:46:00      156.218      -66.143       45.089      112.732       94.835       71.676    12708.576     8993.668     5137.409        2.882        1.342      169.644       67.319        0.157      349.769       30.440      864.869
07/12/2014  12:47:00      116.574        1.307       56.717       73.217       74.784       67.481     5360.715     5592.678     4553.721        1.615        0.775      116.582       54.108        0.215      349.637       30.210      864.875
07/12/2014  12:48:00      127.214      110.426       98.243      104.814       69.070       56.200    10985.900     4770.658     3158.385        2.847        0.946      168.456       46.213        0.075      349.755       30.414      864.881
07/12/2014  12:49:00       51.269      -10.819       40.618       65.126       45.341       30.654     4241.452     2055.781      939.666        0.581        0.362       52.398       11.784        0.051      349.738       30.387      864.892
07/12/2014  12:50:00       13.043      -69.078        3.951       31.029       72.256       34.265      962.804     5220.935     1174.094        0.616        0.368       70.299       38.956        0.307      349.742       30.394      864.887
07/12/2014  12:51:00      -39.231       53.153       21.455       39.431       39.899       32.650     1554.784     1591.894     1066.021        0.452        0.211       66.063       23.429        0.126      350.358       31.464      864.864
07/12/2014  12:52:00      -30.618       81.228        8.551       34.692       52.316       32.344     1203.501     2736.951     1046.120        0.630        0.249       86.807       31.518        0.132      350.269       31.310      864.858
07/12/2014  12:53:00      -29.270       74.805        2.622       24.217       55.799       30.849      586.464     3113.516      951.657        0.555        0.233       80.327       30.169        0.141      350.167       31.133      864.857
07/12/2014  12:54:00      -60.962      100.033      -16.834       24.999       53.772       30.588      624.943     2891.394      935.619        0.923        0.223      117.145       13.944        0.014      349.625       30.191      864.851
07/12/2014  12:55:00     -131.757       45.210       -1.585       50.485       38.474       25.996     2548.756     1480.224      675.798        1.205        0.235      139.297       12.764        0.008      349.544       30.050      864.810
07/12/2014  12:56:00       24.130       32.091       37.519       29.626       32.277       35.327      877.721     1041.797     1248.006        0.309        0.158       40.151       17.098        0.181      350.619       31.918      864.813
07/12/2014  12:57:00       53.305       59.575       35.953       46.689       39.448       40.801     2179.901     1556.130     1664.706        0.654        0.270       79.942       33.193        0.172      350.126       31.060      864.801
07/12/2014  12:58:00       81.000       58.302       42.342       84.053       75.184       46.346     7064.849     5652.629     2147.994        1.331        0.743       99.800       30.350        0.092      350.371       31.486      864.784
07/12/2014  12:59:00        9.061      246.791      -24.175       57.398      112.095       59.346     3294.496    12565.279     3521.976        4.047        0.969      246.958       63.003        0.065      349.615       30.172      864.791
07/12/2014  13:00:00     -113.333      198.554      -56.215       64.710      103.085       37.029     4187.393    10626.598     1371.169        3.580        0.809      228.622       47.750        0.044      349.358       29.725      864.799
07/12/2014  13:01:00        8.265      176.293      -24.456       56.050      102.935       41.649     3141.623    10595.595     1734.601        2.361        0.774      176.486       45.418        0.066      349.590       30.129      864.780
07/12/2014  13:02:00      -83.500      144.749      -18.855       56.148       70.157       41.501     3152.575     4922.062     1722.319        1.904        0.490      167.107       39.566        0.056      349.795       30.483      864.752
07/12/2014  13:03:00       46.391       92.805        5.371       71.131       62.255       49.076     5059.580     3875.677     2408.427        1.107        0.567      103.754       32.322        0.097      350.149       31.103      864.746
07/12/2014  13:04:00       80.099     -115.556      -10.100       95.866       98.019       32.898     9190.211     9607.741     1082.289        1.987        0.994      140.603       27.768        0.039      349.704       30.326      864.777
07/12/2014  13:05:00      187.343     -166.075      -32.486       99.256      124.182       80.801     9851.766    15421.185     6528.869        4.776        1.590      250.357       82.815        0.109      349.819       30.526      864.738
07/12/2014  13:06:00      124.462      -89.712       16.103       80.002      105.546       81.484     6400.333    11139.879     6639.616        2.398        1.209      153.424       74.401        0.235      350.069       30.957      864.738
07/12/2014  13:07:00       75.319       31.534       84.021       89.098       97.664       66.003     7938.476     9538.188     4356.430        1.778        1.092       81.654       68.398        0.702      350.104       31.021      864.760
07/12/2014  13:08:00       55.001        3.658       64.071       69.149       51.897       48.886     4781.646     2693.350     2389.866        0.850        0.493       55.123       44.420        0.649      349.826       30.539      864.774
07/12/2014  13:09:00      -76.695      -11.700       -4.536       57.353       52.851       26.422     3289.424     2793.244      698.121        0.641        0.339       77.582       17.367        0.050      349.996       30.835      864.721
07/12/2014  13:10:00     -114.462      -91.406        0.423       69.629       50.983       35.002     4848.208     2599.231     1225.112        1.506        0.434      146.481       26.156        0.032      349.709       30.336      864.701
07/12/2014  13:11:00      -70.398      -59.779       -1.132       71.216       44.527       26.693     5071.768     1982.664      712.512        0.815        0.388       92.355       30.135        0.106      349.725       30.363      864.713
07/12/2014  13:12:00      -59.789      -88.344      -10.159       54.608       69.925       38.151     2982.019     4889.573     1455.468        1.040        0.466      106.675       28.954        0.074      349.922       30.705      864.713
07/12/2014  13:13:00       22.786     -113.186      -11.635      103.567       97.459       59.345    10726.193     9498.324     3521.789        1.860        1.187      115.457       56.444        0.239      350.284       31.336      864.704
07/12/2014  13:14:00       20.251     -135.035      -20.529       64.776       62.786       44.779     4195.908     3942.130     2005.193        1.460        0.507      136.545       24.959        0.033      350.307       31.373      864.701
07/12/2014  13:15:00       31.016      -68.923       42.690       67.873      106.271       47.481     4606.792    11293.483     2254.416        1.284        0.908       75.580       47.156        0.389      350.303       31.369      864.727
07/12/2014  13:16:00       13.458       44.052       65.846       43.498       40.971       39.926     1892.109     1678.609     1594.092        0.581        0.258       46.062       37.256        0.654      350.481       31.679      864.739
07/12/2014  13:17:00      111.086       77.959       47.882       67.673       42.567       44.828     4579.669     1811.961     2009.558        1.455        0.420      135.712       29.241        0.046      350.033       30.898      864.741
07/12/2014  13:18:00       65.400       76.910        4.730       70.880       51.916       37.570     5024.024     2695.271     1411.525        0.967        0.457      100.957       24.657        0.060      349.871       30.618      864.739
07/12/2014  13:19:00       20.673       66.721       15.794       38.732       61.078       38.248     1500.129     3730.557     1462.924        0.591        0.335       69.851       31.696        0.206      350.289       31.345      864.718
07/12/2014  13:20:00      -41.462       10.665      -13.159       25.183       34.695       20.678      634.171     1203.732      427.600        0.214        0.113       42.811        8.072        0.036      349.792       30.480      864.705
07/12/2014  13:21:00      -22.902       38.613       -7.765       22.697       32.359       22.436      515.138     1047.087      503.376        0.207        0.103       44.894       19.730        0.193      350.310       31.383      864.681
07/12/2014  13:22:00      -29.528       15.941        6.491       32.742       20.776       19.749     1072.020      431.653      390.008        0.153        0.095       33.556       10.126        0.091      350.230       31.243      864.674
07/12/2014  13:23:00        9.694      -61.343       -7.324       29.660       43.950       20.297      879.743     1931.624      411.955        0.357        0.161       62.105       17.046        0.075      349.830       30.548      864.649
07/12/2014  13:24:00      -57.371      -57.340       10.705       62.513       30.531       26.617     3907.858      932.166      708.480        0.612        0.277       81.113       19.209        0.056      349.998       30.838      864.641
07/12/2014  13:25:00     -103.106       33.435        8.043       50.512       51.333       31.909     2551.470     2635.062     1018.172        0.901        0.310      108.392       29.199        0.073      350.160       31.118      864.628
07/12/2014  13:26:00       -4.958       64.475       11.853       26.175       41.435       29.914      685.140     1716.826      894.850        0.381        0.165       64.666       22.501        0.121      350.463       31.647      864.606
07/12/2014  13:27:00       -5.414      108.161       -0.216       39.874       51.088       38.894     1589.959     2609.967     1512.731        0.872        0.286      108.297       36.800        0.115      350.379       31.501      864.578
07/12/2014  13:28:00      103.009      142.540       -0.702       78.975       58.385       50.540     6237.075     3408.861     2554.279        2.156        0.610      175.865       34.471        0.038      350.133       31.070      864.578
07/12/2014  13:29:00       54.818       44.938       59.167       66.419       72.189       42.189     4411.426     5211.239     1779.947        0.996        0.570       70.884       35.893        0.256      350.485       31.685      864.569
07/12/2014  13:30:00       37.030      -23.634       40.952       51.857       76.995       43.691     2689.173     5928.214     1908.937        0.706        0.526       43.929       52.503        1.428      350.094       31.006      864.553
07/12/2014  13:31:00        9.912       35.350       36.780       35.303       26.720       35.894     1246.324      713.963     1288.415        0.297        0.162       36.713       32.168        0.768      350.273       31.316      864.543
07/12/2014  13:32:00       20.205        1.244       12.005       31.574       27.710       27.531      996.887      767.848      757.972        0.154        0.126       20.243       23.861        1.389      350.497       31.705      864.538
07/12/2014  13:33:00      -48.306      -10.785       14.498       37.089       38.972       24.731     1375.616     1518.827      611.625        0.308        0.175       49.495       25.858        0.273      350.624       31.928      864.522
07/12/2014  13:34:00      -10.465      -21.790        6.428       32.720       27.203       20.917     1070.591      740.021      437.522        0.144        0.112       24.173       19.039        0.620      350.811       32.254      864.518
07/12/2014  13:35:00       40.558      -72.693        5.221       34.187       46.851       36.717     1168.729     2195.051     1348.147        0.583        0.236       83.242       24.823        0.089      350.266       31.305      864.521
07/12/2014  13:36:00      143.778       63.346       52.345      142.576       85.919       73.104    20327.862     7382.127     5344.133        3.023        1.653      157.114       61.862        0.155      350.302       31.364      864.484
07/12/2014  13:37:00       76.554       67.128       43.983      101.916       95.129       70.308    10386.805     9049.448     4943.269        1.834        1.219      101.817       69.568        0.467      350.484       31.683      864.459
07/12/2014  13:38:00       63.619      -81.533       31.264       93.626      116.274       52.751     8765.847    13519.680     2782.621        1.837        1.253      103.417       63.797        0.381      350.496       31.704      864.480
07/12/2014  13:39:00       53.724      -99.826        5.035       67.849      101.206       63.710     4603.528    10242.554     4058.913        1.589        0.945      113.365       63.634        0.315      350.685       32.030      864.485
07/12/2014  13:40:00       82.442     -103.461        6.525       65.927      146.133       65.869     4346.328    21354.975     4338.720        2.379        1.502      132.291       71.562        0.293      350.470       31.657      864.486
07/12/2014  13:41:00      100.441     -128.262      -18.490       94.583      157.929       89.885     8945.961    24941.557     8079.347        3.442        2.098      162.910       95.625        0.345      350.253       31.279      864.462
07/12/2014  13:42:00      111.740     -187.316       -6.220       72.902       89.214       54.057     5314.764     7959.193     2922.124        3.190        0.810      218.113       61.284        0.079      350.207       31.200      864.472
07/12/2014  13:43:00      -19.592     -115.027       28.116       83.535      112.919       83.051     6978.028    12750.774     6897.504        2.051        1.331      116.684       76.565        0.431      350.863       32.342      864.468
07/12/2014  13:44:00       58.294     -187.601      -29.644       96.327       90.583       57.555     9278.798     8205.232     3312.551        3.013        1.040      196.449       56.250        0.082      350.435       31.594      864.466
07/12/2014  13:45:00      -17.713     -151.626      -10.483       72.268       83.416       34.773     5222.733     6958.308     1209.191        1.840        0.670      152.658       37.929        0.062      350.212       31.208      864.483
07/12/2014  13:46:00        9.381        5.727       28.931       23.840       18.458       17.353      568.330      340.703      301.113        0.108        0.061       10.991       11.885        1.169      351.119       32.789      864.463
07/12/2014  13:47:00       23.185       70.520        7.974       39.683       39.617       34.059     1574.764     1569.495     1160.043        0.494        0.215       74.234       21.264        0.082      350.385       31.511      864.428
07/12/2014  13:48:00       70.943       44.066       -0.634       29.931       31.245       25.616      895.866      976.262      656.181        0.475        0.126       83.515        7.294        0.008      350.182       31.158      864.424
07/12/2014  13:49:00       -5.918      -51.175        3.306       67.890       49.051       32.319     4609.055     2405.999     1044.488        0.536        0.403       51.516       33.961        0.435      350.484       31.683      864.423
07/12/2014  13:50:00       67.523      -96.051       23.706       66.774      111.543       52.195     4458.720    12441.869     2724.322        1.698        0.981      117.410       46.175        0.155      350.754       32.150      864.409
07/12/2014  13:51:00      113.424     -195.880      -17.823       96.305       86.843       60.669     9274.634     7541.717     3680.724        3.602        1.025      226.350       58.009        0.066      350.113       31.035      864.419
07/12/2014  13:52:00        4.748      -92.435      -19.142       86.431       70.120       30.650     7470.292     4916.871      939.431        1.113        0.666       92.557       17.986        0.038      350.281       31.328      864.403
07/12/2014  13:53:00      -32.782     -109.590       19.176       95.788       85.909       47.131     9175.363     7380.314     2221.365        1.611        0.939      114.388       37.571        0.108      350.404       31.543      864.382
07/12/2014  13:54:00      -21.392      -67.120       17.150       97.263       78.610       53.735     9460.089     6179.598     2887.426        1.189        0.926       70.446       53.648        0.580      350.617       31.914      864.362
07/12/2014  13:55:00       46.831     -135.731       17.016       72.306      127.738       83.461     5228.225    16316.872     6965.776        2.470        1.426      143.582       86.673        0.364      350.698       32.053      864.373
07/12/2014  13:56:00       84.888      -94.651       15.560       63.542      104.814       54.863     4037.630    10985.920     3009.922        1.722        0.902      127.141       57.620        0.205      350.442       31.608      864.389
07/12/2014  13:57:00       60.293      -70.720       15.255       33.782       91.764       32.696     1141.191     8420.706     1069.032        0.975        0.532       92.933       45.170        0.236      350.206       31.199      864.392
07/12/2014  13:58:00       18.810       -7.112       11.919       33.753       55.509       31.096     1139.272     3081.217      966.982        0.287        0.259       20.109       25.797        1.646      350.335       31.425      864.369
07/12/2014  13:59:00        2.066        9.673      -12.660       49.521       63.074       30.699     2452.355     3978.338      942.429        0.381        0.369        9.891       22.257        5.064      350.187       31.165      864.344
07/12/2014  14:00:00      111.265     -152.381        5.009       70.844      123.661       66.429     5018.832    15292.040     4412.844        3.017        1.236      188.679       64.648        0.117      350.334       31.420      864.339
07/12/2014  14:01:00      -61.734      -80.732       19.490       49.039      105.474       45.481     2404.834    11124.769     2068.522        1.315        0.780      101.630       60.067        0.349      350.517       31.741      864.352
07/12/2014  14:02:00        3.131      -19.215       44.340       37.787       62.376       31.656     1427.831     3890.705     1002.118        0.433        0.316       19.468       22.132        1.292      351.079       32.720      864.336
07/12/2014  14:03:00       52.883       69.169       50.819       64.844       50.840       59.951     4204.696     2584.704     3594.160        1.027        0.519       87.069       49.023        0.317      350.494       31.700      864.321
07/12/2014  14:04:00       39.572       56.375       20.812       56.315       47.198       36.804     3171.428     2227.671     1354.502        0.596        0.338       68.877       24.985        0.132      350.677       32.020      864.311
07/12/2014  14:05:00       34.274       42.692        6.172       44.787       55.299       33.966     2005.871     3057.933     1153.677        0.463        0.311       54.747       20.929        0.146      350.418       31.568      864.306
07/12/2014  14:06:00       12.507       -8.442        9.426       25.184       34.024       27.410      634.211     1157.638      751.319        0.143        0.127       15.089       21.210        1.976      350.472       31.661      864.304
07/12/2014  14:07:00       48.904     -126.203      -21.206       93.995       93.273       65.662     8835.064     8699.813     4311.453        2.030        1.092      135.347       63.777        0.222      350.416       31.563      864.276
07/12/2014  14:08:00      110.853     -147.522      -52.542       78.178       74.455       43.615     6111.770     5543.603     1902.303        2.518        0.678      184.529       33.300        0.033      350.346       31.440      864.271
07/12/2014  14:09:00       11.456      -40.916       19.870       41.331       59.818       53.382     1708.265     3578.222     2849.625        0.517        0.407       42.490       38.532        0.822      350.721       32.095      864.278
07/12/2014  14:10:00       28.398      -87.822       -0.077       55.411       51.318       38.507     3070.429     2633.540     1482.758        0.785        0.359       92.299       25.649        0.077      350.573       31.837      864.275
07/12/2014  14:11:00       29.908      -59.276       19.003       58.794       64.447       49.894     3456.708     4153.382     2489.412        0.743        0.505       66.394       43.810        0.435      350.712       32.079      864.259
07/12/2014  14:12:00        5.200      -56.013       11.453       48.116       52.924       48.000     2315.172     2800.936     2303.959        0.536        0.371       56.253       33.460        0.354      350.792       32.220      864.240
07/12/2014  14:13:00      -34.824      -47.479       -2.796       44.307       71.713       29.803     1963.126     5142.748      888.211        0.573        0.400       58.881       27.540        0.219      350.894       32.395      864.231
07/12/2014  14:14:00       38.455      -29.569       13.939       46.355       57.373       37.972     2148.784     3291.647     1441.883        0.471        0.344       48.509       31.745        0.428      350.770       32.181      864.215
07/12/2014  14:15:00        5.134      -19.744       -9.662       20.668       27.001       22.800      427.160      729.040      519.828        0.109        0.084       20.401       13.135        0.415      350.314       31.387      864.196
07/12/2014  14:16:00       34.907       48.112        0.311       31.470       36.787       27.122      990.332     1353.248      735.597        0.331        0.154       59.441       21.162        0.127      350.339       31.431      864.167
07/12/2014  14:17:00       31.043       46.029        5.415       37.797       56.774       27.833     1428.578     3223.325      774.648        0.427        0.271       55.519       33.539        0.365      350.315       31.389      864.143
07/12/2014  14:18:00       -8.687       85.920      -15.065       18.333       36.414       28.231      336.101     1325.997      796.968        0.507        0.123       86.358       21.099        0.060      350.336       31.424      864.127
07/12/2014  14:19:00       -3.278       31.616        2.776       15.886       26.736       18.773      252.380      714.830      352.418        0.117        0.066       31.785       10.604        0.111      350.671       32.009      864.095
07/12/2014  14:20:00        4.129       83.718       13.882       24.207       75.076       33.987      585.979     5636.396     1155.083        0.730        0.369       83.820       42.974        0.263      350.918       32.438      864.076
07/12/2014  14:21:00       -0.480       91.405       -4.709       34.984       75.215       31.260     1223.882     5657.315      977.211        0.812        0.393       91.406       19.827        0.047      350.520       31.746      864.061
07/12/2014  14:22:00       16.533       -1.811       17.560       27.170       30.778       32.450      738.183      947.289     1053.027        0.166        0.137       16.632       25.468        2.345      350.883       32.378      864.029
07/12/2014  14:23:00       17.633       63.559        7.958       37.065       35.871       28.138     1373.847     1286.704      791.741        0.393        0.173       65.959       26.366        0.160      350.747       32.140      864.006
07/12/2014  14:24:00       -8.937      141.307       -5.886       62.284       98.792       47.441     3879.312     9759.777     2250.694        1.798        0.794      141.590       44.217        0.098      350.750       32.146      863.991
07/12/2014  14:25:00      -42.559       93.868       -4.204       53.337       62.045       37.198     2844.885     3849.586     1383.705        0.936        0.404      103.065       32.987        0.102      350.965       32.519      863.978
07/12/2014  14:26:00        2.132       62.130       10.189       44.326       77.786       35.867     1964.777     6050.623     1286.430        0.663        0.465       62.166       42.780        0.474      350.974       32.535      863.962
07/12/2014  14:27:00      -24.345       41.684      -10.752       44.374       56.368       33.776     1969.015     3177.391     1140.785        0.437        0.314       48.272       20.348        0.178      350.986       32.556      863.953
07/12/2014  14:28:00       88.597       38.165       23.182       64.018       54.133       48.594     4098.354     2930.328     2361.402        0.961        0.470       96.467       32.452        0.113      350.691       32.043      863.958
07/12/2014  14:29:00       -0.401      -40.096       10.600       38.934       44.676       32.894     1515.890     1995.975     1082.016        0.316        0.230       40.098       26.991        0.453      350.522       31.750      863.954
07/12/2014  14:30:00       -0.409      -20.551       33.531       33.381       45.083       35.438     1114.323     2032.467     1255.856        0.297        0.220       20.555       20.019        0.948      350.710       32.075      863.945
07/12/2014  14:31:00       35.625       25.302       39.527       68.670       60.169       78.923     4715.623     3620.286     6228.813        0.902        0.728       43.696       51.105        1.368      350.479       31.672      863.949
07/12/2014  14:32:00      -23.249      -30.364       -0.530       23.833       42.084       23.738      568.003     1771.086      563.512        0.218        0.145       38.242        9.539        0.062      350.508       31.724      863.951
07/12/2014  14:33:00       42.572       51.691       14.591       40.453       51.624       40.966     1636.473     2664.997     1678.201        0.534        0.299       66.965       26.112        0.152      350.595       31.877      863.948
07/12/2014  14:34:00      122.564       88.867        7.918       54.960       63.116       56.181     3020.646     3983.593     3156.320        1.657        0.508      151.391       29.387        0.038      350.488       31.688      863.922
07/12/2014  14:35:00      102.248       42.304       50.717       40.684       58.758       56.570     1655.225     3452.493     3200.170        1.156        0.415      110.654       30.117        0.074      350.322       31.401      863.923
07/12/2014  14:36:00       32.009        0.747       45.952       42.135       47.788       30.465     1775.356     2283.722      928.131        0.406        0.249       32.018       32.639        1.039      350.782       32.201      863.917
07/12/2014  14:37:00       20.765       -4.887      -19.066       58.450       31.121       27.908     3416.356      968.519      778.868        0.299        0.258       21.332       26.884        1.588      350.625       31.929      863.907
07/12/2014  14:38:00       61.270     -118.420      -17.128       75.294       74.523       35.328     5669.252     5553.630     1248.080        1.527        0.624      133.332       32.379        0.059      350.621       31.919      863.901
07/12/2014  14:39:00       86.957     -115.697       -8.198       80.452       84.417       56.654     6472.540     7126.276     3209.651        1.891        0.840      144.732       42.449        0.086      350.775       32.187      863.869
07/12/2014  14:40:00       67.873       43.697       70.907       86.308       64.064       54.809     7449.146     4104.185     3003.988        1.305        0.728       80.723       61.655        0.583      350.916       32.435      863.859
07/12/2014  14:41:00        7.547      -25.235       -0.806       37.853       19.210       20.449     1432.838      369.033      418.144        0.146        0.111       26.340       13.083        0.247      350.884       32.379      863.869
07/12/2014  14:42:00       28.207      -24.453       27.902       59.765       58.813       38.187     3571.872     3459.016     1458.232        0.533        0.424       37.331       33.772        0.818      351.247       33.011      863.862
07/12/2014  14:43:00       45.683      -10.215       35.389       76.360       91.701       41.938     5830.808     8408.986     1758.765        0.972        0.800       46.812       49.579        1.122      351.095       32.746      863.857
07/12/2014  14:44:00       47.558      -75.158       10.957       73.851       79.887       54.183     5454.031     6381.857     2935.835        1.140        0.739       88.941       41.950        0.222      351.278       33.065      863.844
07/12/2014  14:45:00       54.202     -123.750      -10.797       82.118      105.172       72.027     6743.356    11061.085     5187.902        2.068        1.150      135.100       47.742        0.125      351.145       32.831      863.854
07/12/2014  14:46:00        2.852      -38.111        7.152       35.775       61.464       33.539     1279.868     3777.825     1124.874        0.385        0.309       38.217       33.075        0.749      351.248       33.013      863.859
07/12/2014  14:47:00     -120.780     -161.695      -11.768       93.811       87.391       56.753     8800.433     7637.137     3220.915        3.026        0.983      201.824       39.767        0.039      350.819       32.264      863.851
07/12/2014  14:48:00       12.658      -64.595      -24.261       70.397       86.774       49.802     4955.700     7529.686     2480.275        0.994        0.748       65.823       42.288        0.413      350.593       31.872      863.864
07/12/2014  14:49:00       66.544      -30.036       -0.067       63.495       63.785       48.904     4031.554     4068.466     2391.602        0.791        0.525       73.008       45.630        0.391      350.627       31.933      863.852
07/12/2014  14:50:00     -139.136      -70.900       -0.004      104.060       79.902       48.616    10828.495     6384.268     2363.509        2.198        0.979      156.159       51.248        0.108      351.016       32.605      863.839
07/12/2014  14:51:00     -126.843      -90.931        3.895       74.814       58.231       39.697     5597.162     3390.832     1575.850        1.747        0.528      156.069       31.893        0.042      350.928       32.455      863.837
07/12/2014  14:52:00      -53.280     -124.942       -8.691       47.992       79.597       33.408     2303.220     6335.742     1116.087        1.414        0.488      135.828       25.663        0.036      350.862       32.339      863.841
07/12/2014  14:53:00      -30.025      -75.625       -4.644       83.270       43.669       31.867     6933.829     1907.011     1015.499        0.825        0.493       81.367       24.874        0.093      351.123       32.795      863.835
07/12/2014  14:54:00      -56.570      -98.627      -12.145       65.783       71.390       48.698     4327.355     5096.493     2371.489        1.243        0.590      113.699       38.065        0.112      350.931       32.460      863.827
07/12/2014  14:55:00     -136.275     -133.803      -21.254       43.878       76.736       31.421     1925.249     5888.340      987.295        2.286        0.440      190.982       18.675        0.010      350.555       31.805      863.804
07/12/2014  14:56:00      -33.655      -75.522       -0.437       61.745       47.402       20.725     3812.481     2246.974      429.516        0.666        0.324       82.682       17.369        0.044      350.671       32.007      863.794
07/12/2014  14:57:00     -124.440      -27.097        6.260       91.389       41.416       31.727     8351.892     1715.247     1006.622        1.366        0.554      127.356       42.714        0.112      350.960       32.511      863.760
07/12/2014  14:58:00      -78.188      -24.672        7.061       51.115       37.774       21.514     2612.784     1426.852      462.857        0.564        0.225       81.988       20.468        0.062      350.969       32.528      863.748
07/12/2014  14:59:00      -99.488      -69.137        0.158       64.798       49.297       25.108     4198.792     2430.200      630.411        1.097        0.363      121.152       29.989        0.061      350.869       32.354      863.725
07/12/2014  15:00:00     -113.057      -50.766        1.454       68.108       50.332       33.897     4638.740     2533.266     1148.982        1.184        0.416      123.932       38.709        0.098      351.055       32.678      863.693
07/12/2014  15:01:00      -15.582      -49.129      -11.253       37.097       33.619       24.990     1376.178     1130.241      624.489        0.296        0.157       51.541       15.387        0.089      350.868       32.350      863.685
07/12/2014  15:02:00       32.784       40.256       14.794       37.901       32.489       36.395     1436.474     1055.507     1324.579        0.336        0.191       51.917       29.871        0.331      351.454       33.373      863.677
07/12/2014  15:03:00       12.504      -10.705       13.813       33.073       40.191       26.860     1093.798     1615.280      721.477        0.195        0.172       16.460       18.316        1.238      351.295       33.096      863.654
07/12/2014  15:04:00       12.744      -20.872       19.282       24.973       41.370       21.686      623.671     1711.495      470.270        0.189        0.140       24.455        9.873        0.163      351.498       33.450      863.638
07/12/2014  15:05:00       17.314      -13.929       18.086       28.421       28.805       23.357      807.739      829.719      545.559        0.150        0.109       22.222       17.096        0.592      351.270       33.051      863.641
07/12/2014  15:06:00       17.871     -130.589       -3.455       39.673       52.586       43.459     1573.944     2765.271     1888.659        1.181        0.311      131.806       26.815        0.041      351.247       33.011      863.633
07/12/2014  15:07:00      174.687      -87.745       28.882      130.729      148.806       96.424    17090.094    22143.295     9297.663        4.378        2.427      195.485       99.382        0.258      351.144       32.828      863.603
07/12/2014  15:08:00       99.094       -3.037       81.743      114.153      113.660       69.399    13030.906    12918.560     4816.262        2.363        1.538       99.140       82.235        0.688      351.043       32.653      863.616
07/12/2014  15:09:00      109.113      -10.086       72.459      113.536       76.060       52.114    12890.472     5785.065     2715.906        1.932        1.070      109.578       50.758        0.215      351.011       32.597      863.609
07/12/2014  15:10:00      155.608       59.459       57.834      130.679       93.450       72.652    17077.068     8732.874     5278.265        3.108        1.554      166.581       55.407        0.111      350.956       32.501      863.570
07/12/2014  15:11:00      207.954       75.321       19.161      124.709       96.337       73.783    15552.359     9280.752     5443.975        3.978        1.514      221.175       17.135        0.006      351.145       32.830      863.546
07/12/2014  15:12:00      116.337       -9.771       71.398      134.363      158.329       92.616    18053.452    25068.044     8577.631        3.520        2.585      116.746      101.726        0.759      351.402       33.279      863.557
07/12/2014  15:13:00      160.714      -59.408       88.612      164.515      194.309      123.978    27065.086    37756.006    15370.587        5.869        4.010      171.343      149.301        0.759      351.216       32.954      863.559
07/12/2014  15:14:00      101.860     -178.573       11.235      115.195      163.477       87.915    13269.821    26724.653     7729.085        4.505        2.386      205.581       70.561        0.118      351.540       33.518      863.535
07/12/2014  15:15:00       94.599       17.383      105.985      116.745      147.285      111.046    13629.281    21692.828    12331.133        3.406        2.383       96.182      112.595        1.370      351.430       33.328      863.570
07/12/2014  15:16:00       69.908       84.881      113.158       88.640       82.337       68.560     7856.962     6779.322     4700.511        2.211        0.967      109.963       56.375        0.263      351.009       32.597      863.626
07/12/2014  15:17:00      138.547       -5.656       54.300      100.606       79.746       57.700    10121.622     6359.467     3329.299        2.099        0.991      138.662       54.772        0.156      350.680       32.022      863.639
07/12/2014  15:18:00       78.111      -40.329       58.970       75.650       88.617       54.300     5722.907     7853.030     2948.456        1.386        0.826       87.908       51.601        0.345      351.067       32.697      863.619
07/12/2014  15:19:00       90.508       62.747       45.257       78.091       68.461       44.890     6098.194     4686.962     2015.116        1.349        0.640      110.132       37.740        0.117      351.275       33.060      863.605
07/12/2014  15:20:00      155.151       81.453       24.888       61.425       67.506       47.424     3773.044     4557.073     2249.019        2.095        0.529      175.232       26.549        0.023      350.813       32.254      863.606
07/12/2014  15:21:00       40.086       24.093       34.335       32.441       29.886       24.185     1052.420      893.192      584.930        0.295        0.127       46.770       21.412        0.210      350.916       32.435      863.603
07/12/2014  15:22:00       55.023       57.590       13.351       36.777       32.321       38.680     1352.523     1044.655     1496.107        0.521        0.195       79.651       19.907        0.062      350.613       31.908      863.584
07/12/2014  15:23:00       66.973       14.102       11.913       29.776       46.049       23.772      886.584     2120.465      565.107        0.420        0.179       68.442       19.354        0.080      350.560       31.815      863.572
07/12/2014  15:24:00       38.729       10.313       23.260       31.213       37.602       30.811      974.262     1413.941      949.309        0.274        0.167       40.078       28.540        0.507      350.602       31.888      863.572
07/12/2014  15:25:00       35.765       22.402       26.788       49.322       36.321       26.943     2432.639     1319.210      725.901        0.349        0.224       42.202       23.286        0.304      350.573       31.839      863.559
07/12/2014  15:26:00       -6.157      -75.172      -10.892       60.303       68.131       27.538     3636.422     4641.833      758.328        0.742        0.452       75.423       23.015        0.093      350.588       31.863      863.555
07/12/2014  15:27:00        3.914      -58.151        4.238       44.677       46.764       46.566     1996.000     2186.864     2168.398        0.488        0.318       58.282       22.201        0.145      351.514       33.478      863.542
07/12/2014  15:28:00      -60.033      -86.811        1.087       55.879       71.305       35.021     3122.470     5084.405     1226.490        1.029        0.472      105.546       25.003        0.056      351.386       33.253      863.547
07/12/2014  15:29:00      -42.628     -162.530        1.828       78.634       91.141       36.666     6183.374     8306.614     1344.423        2.203        0.792      168.027       32.444        0.037      351.151       32.842      863.556
07/12/2014  15:30:00     -133.774      -90.878        3.115      107.610       80.433       46.031    11580.013     6469.448     2118.887        2.316        1.008      161.723       43.693        0.073      351.264       33.038      863.544
07/12/2014  15:31:00     -180.948     -112.067       -7.353      108.537       75.926       58.388    11780.318     5764.736     3409.127        3.315        1.048      212.841       54.618        0.066      351.033       32.635      863.516
07/12/2014  15:32:00      -42.549      -65.806        7.311       91.165       84.181       46.359     8310.975     7086.515     2149.196        1.187        0.877       78.364       43.438        0.307      351.142       32.828      863.510
07/12/2014  15:33:00       38.259      -30.773       31.953       75.249       71.630       44.547     5662.447     5130.840     1984.417        0.810        0.639       49.100       54.613        1.237      351.127       32.802      863.519
07/12/2014  15:34:00        1.231       -2.174        9.413       33.908       40.152       18.273     1149.750     1612.177      333.914        0.159        0.155        2.498        7.575        9.191      351.328       33.152      863.492
07/12/2014  15:35:00       -9.992      -14.498       18.579       37.892       30.416       25.565     1435.805      925.152      653.585        0.183        0.151       17.607       23.310        1.753      351.608       33.641      863.471
07/12/2014  15:36:00        6.540      -69.297       10.762       32.154       56.126       28.788     1033.865     3150.109      828.730        0.499        0.251       69.605       33.285        0.229      351.180       32.896      863.460
07/12/2014  15:37:00       34.157      -46.592       48.753       63.074       71.534       54.818     3978.381     5117.075     3005.058        0.891        0.605       57.771       37.602        0.424      351.367       33.221      863.435
07/12/2014  15:38:00       73.378      -73.972       -4.954       82.156      109.312       80.864     6749.613    11949.048     6538.936        1.805        1.262      104.193       59.936        0.331      351.108       32.768      863.408
07/12/2014  15:39:00        4.038       78.926      100.434       41.248       48.380       46.267     1701.362     2340.589     2140.670        1.126        0.309       79.029       35.580        0.203      351.029       32.631      863.400
07/12/2014  15:40:00       66.416      -81.854        9.560       53.527       46.600       30.923     2865.102     2171.560      956.259        0.860        0.300      105.410       28.003        0.071      351.076       32.714      863.390
07/12/2014  15:41:00       97.675     -158.298      -34.940       48.340       71.276       42.926     2336.729     5080.229     1842.609        2.254        0.463      186.007       30.519        0.027      351.282       33.070      863.360
07/12/2014  15:42:00       61.418     -156.798       -4.634       88.449       84.712       46.829     7823.311     7176.187     2192.960        2.278        0.860      168.397       35.990        0.046      351.218       32.958      863.363
07/12/2014  15:43:00       91.200     -256.120      -11.551       81.999       98.921       59.747     6723.872     9785.352     3569.673        4.706        1.004      271.873       48.458        0.032      350.820       32.265      863.352
07/12/2014  15:44:00       95.027     -173.907       -4.015      105.252      122.793       69.646    11077.991    15078.138     4850.556        3.514        1.550      198.176       72.499        0.134      350.950       32.492      863.344
07/12/2014  15:45:00      117.357     -208.948      -28.204       89.514       74.066       50.021     8012.830     5485.742     2502.102        3.711        0.800      239.650       43.488        0.033      351.170       32.874      863.347
07/12/2014  15:46:00       56.131     -152.878      -19.522       41.899       46.725       32.582     1755.504     2183.220     1061.598        1.595        0.250      162.857       23.434        0.021      350.944       32.485      863.357
07/12/2014  15:47:00       68.848     -127.048      -20.426       41.339       53.680       29.477     1708.892     2881.565      868.885        1.338        0.273      144.504        9.339        0.004      351.051       32.669      863.354
07/12/2014  15:48:00      -29.872       -9.037        1.405       60.873       36.182       25.135     3705.474     1309.164      631.756        0.331        0.282       31.209       16.725        0.287      351.131       32.808      863.348
07/12/2014  15:49:00     -155.481        4.317       -2.302       58.316       48.585       34.511     3400.739     2360.493     1190.980        1.557        0.348      155.541       29.521        0.036      351.215       32.955      863.328
07/12/2014  15:50:00     -119.457      -64.457       -1.108       57.386       43.201       31.220     3293.130     1866.340      974.680        1.228        0.307      135.738       28.170        0.043      351.098       32.752      863.312
07/12/2014  15:51:00       19.976      -11.588       14.690       39.526       22.096       17.143     1562.313      488.254      293.883        0.155        0.117       23.093       14.224        0.379      351.130       32.808      863.289
07/12/2014  15:52:00      -13.490      -71.480        0.385       37.404       66.488       25.138     1399.062     4420.621      631.911        0.587        0.323       72.742       20.527        0.080      351.159       32.859      863.278
07/12/2014  15:53:00     -131.193     -136.957      -15.742       68.035       66.739       45.230     4628.751     4454.089     2045.788        2.367        0.556      189.655       36.649        0.037      351.106       32.763      863.277
07/12/2014  15:54:00     -144.954      -58.431       -6.927       45.577       38.861       28.681     2077.265     1510.163      822.604        1.444        0.221      156.287       20.059        0.016      351.140       32.825      863.273
07/12/2014  15:55:00     -121.675       -0.493        1.563       63.367       49.432       31.126     4015.343     2443.534      968.812        1.112        0.371      121.676       34.069        0.078      351.247       33.010      863.273
07/12/2014  15:56:00      -45.349      -44.278       19.309       58.475       46.004       29.296     3419.331     2116.384      858.244        0.539        0.320       63.380       35.052        0.306      351.774       33.931      863.256
07/12/2014  15:57:00     -110.184      -31.454        1.275       43.049       51.258       27.563     1853.218     2627.409      759.698        0.918        0.262      114.586       19.128        0.028      351.268       33.048      863.247
07/12/2014  15:58:00      -98.725      -81.266        8.709      114.658       63.040       43.879    13146.369     3973.984     1925.382        1.773        0.952      127.870       53.338        0.174      351.343       33.176      863.237
07/12/2014  15:59:00     -156.096       -1.641       -3.363       82.508       65.726       41.387     6807.623     4319.843     1712.912        1.861        0.642      156.104       35.900        0.053      351.658       33.726      863.236
07/12/2014  16:00:00      -85.442      -39.578       -6.503       41.444       33.286       32.355     1717.621     1107.954     1046.814        0.639        0.194       94.163       21.521        0.052      351.301       33.106      863.227
07/12/2014  16:01:00      -22.036      -87.576       -8.836       63.128       42.810       31.319     3985.191     1832.720      980.905        0.751        0.340       90.306       22.583        0.063      351.621       33.663      863.218
07/12/2014  16:02:00       36.633     -129.402      -11.623       43.530       38.196       17.122     1894.820     1458.951      293.154        1.093        0.182      134.487       11.362        0.007      351.403       33.283      863.220
07/12/2014  16:03:00       55.904      -90.259       -4.400       40.334       51.632       36.325     1626.807     2665.903     1319.534        0.845        0.281      106.170       25.073        0.056      351.343       33.179      863.211
07/12/2014  16:04:00      146.765     -174.275      -28.030       76.510       98.447       42.812     5853.765     9691.867     1832.850        3.503        0.869      227.842       55.443        0.059      351.150       32.839      863.197
07/12/2014  16:05:00        1.372      -14.311       36.937       39.775       51.412       40.512     1582.086     2643.155     1641.206        0.372        0.293       14.376       17.245        1.439      351.650       33.716      863.182
07/12/2014  16:06:00      -36.649      -97.985        1.231       74.839       59.154       34.559     5600.833     3499.242     1194.305        1.062        0.515      104.615       27.006        0.067      351.426       33.323      863.181
07/12/2014  16:07:00     -101.579      -65.054       -7.575       72.781       48.133       24.713     5297.045     2316.748      610.745        1.141        0.411      120.625       19.473        0.026      351.441       33.351      863.172
07/12/2014  16:08:00       66.070     -143.693        3.249       45.851       55.310       43.622     2102.325     3059.190     1902.883        1.604        0.353      158.154       35.282        0.050      351.570       33.575      863.161
07/12/2014  16:09:00       29.589      -73.458       11.544       43.510       71.027       44.464     1893.120     5044.800     1977.073        0.766        0.446       79.194       47.769        0.364      351.748       33.885      863.167
07/12/2014  16:10:00      -14.364       -9.953       26.607       72.490       37.306       31.577     5254.810     1391.749      997.130        0.433        0.382       17.475       18.448        1.114      352.277       34.810      863.188
07/12/2014  16:11:00     -179.690     -132.467       -6.467       86.765       55.810       35.389     7528.191     3114.764     1252.396        3.088        0.595      223.240       33.536        0.023      351.211       32.947      863.174
07/12/2014  16:12:00     -176.666      -99.877        8.102       75.801       84.762       47.752     5745.851     7184.563     2280.282        2.823        0.761      202.944       45.570        0.050      351.244       33.003      863.160
07/12/2014  16:13:00     -184.731      -73.450       -3.872      124.272       77.056       62.497    15443.633     5937.680     3905.899        3.241        1.264      198.797       71.664        0.130      350.991       32.561      863.149
07/12/2014  16:14:00     -128.106      -46.641       -6.071       99.913       56.585       31.744     9982.685     3201.894     1007.700        1.641        0.710      136.332       39.699        0.085      351.201       32.930      863.140
07/12/2014  16:15:00     -204.312      -95.757       -5.795       85.504       66.214       43.064     7310.921     4384.341     1854.475        3.225        0.677      225.638       42.494        0.035      351.181       32.894      863.132
07/12/2014  16:16:00     -199.422      -93.488       -0.284      105.901       94.299       47.996    11215.125     8892.252     2303.639        3.546        1.121      220.248       36.951        0.028      351.263       33.035      863.121
07/12/2014  16:17:00     -194.889      -36.691      -17.139       63.456       37.632       31.892     4026.643     1416.156     1017.114        2.304        0.323      198.313       25.804        0.017      351.060       32.684      863.130
07/12/2014  16:18:00     -174.204      -45.639       -8.741       96.858       67.075       26.157     9381.483     4499.096      684.186        2.353        0.728      180.083       32.359        0.032      351.067       32.693      863.118
07/12/2014  16:19:00     -273.859      -85.726      -17.134       61.411       50.084       37.341     3771.359     2508.456     1394.322        4.516        0.384      286.963       29.226        0.010      351.069       32.696      863.110
07/12/2014  16:20:00     -196.167      -36.599      -28.793       32.143       73.087       32.579     1033.183     5341.690     1061.360        2.404        0.372      199.552       27.153        0.019      351.021       32.614      863.108
07/12/2014  16:21:00      -28.746       40.538       -1.887       28.667       36.380       28.644      821.784     1323.513      820.474        0.272        0.148       49.696       22.683        0.208      351.357       33.204      863.102
07/12/2014  16:22:00      -25.457       25.822       18.125       59.533       46.653       36.810     3544.139     2176.520     1354.991        0.436        0.354       36.261       33.381        0.847      351.519       33.486      863.095
07/12/2014  16:23:00       52.818       19.048      -13.334       33.632       32.063       24.834     1131.126     1028.007      616.714        0.305        0.139       56.148       18.561        0.109      351.155       32.850      863.090
07/12/2014  16:24:00      -60.825       70.342      -12.657       57.804       81.961       38.196     3341.347     6717.611     1458.959        1.016        0.576       92.993       27.872        0.090      351.423       33.319      863.091
07/12/2014  16:25:00      -75.125       24.755       -9.674       73.747       69.255       28.337     5438.606     4796.267      803.013        0.869        0.552       79.098       31.218        0.156      351.606       33.638      863.081
07/12/2014  16:26:00     -212.342       10.917      -17.708       91.379       66.923       40.667     8350.078     4478.635     1653.794        3.000        0.724      212.622       38.599        0.033      351.659       33.729      863.079
07/12/2014  16:27:00     -222.322       40.257      -20.071       78.288       65.075       36.350     6128.973     4234.710     1321.307        3.157        0.584      225.937       30.821        0.019      351.378       33.237      863.085
07/12/2014  16:28:00     -146.931       33.339      -15.549       44.364       49.678       30.010     1968.195     2467.912      900.606        1.414        0.267      150.666       20.891        0.019      351.551       33.541      863.099
07/12/2014  16:29:00     -104.608       -8.330       -1.102       54.264       36.922       28.458     2944.620     1363.259      809.854        0.806        0.256      104.939       28.659        0.075      351.703       33.807      863.088
07/12/2014  16:30:00      -35.844       41.060       -3.489       31.980       53.526       26.365     1022.690     2864.994      695.101        0.378        0.229       54.504       30.013        0.303      351.638       33.694      863.078
07/12/2014  16:31:00        6.214       69.529        5.070       34.205       35.220       28.845     1169.997     1240.431      832.040        0.407        0.162       69.806       20.728        0.088      351.425       33.323      863.071
07/12/2014  16:32:00       31.702       75.037      -19.998       22.131       58.830       22.012      489.772     3460.998      484.520        0.573        0.222       81.459       22.645        0.077      351.120       32.790      863.061
07/12/2014  16:33:00       24.110      111.137      -15.896       19.100       50.639       26.854      364.807     2564.339      721.155        0.842        0.183      113.722       30.187        0.070      351.096       32.749      863.041
07/12/2014  16:34:00       74.069       58.421        6.427       46.481       30.196       24.189     2160.470      911.820      585.086        0.630        0.183       94.336       10.927        0.013      351.238       32.996      863.023
07/12/2014  16:35:00       79.476       41.000        2.077       43.375       31.324       27.407     1881.424      981.203      751.134        0.581        0.181       89.429       15.332        0.029      351.192       32.916      863.014
07/12/2014  16:36:00       -1.614      137.357      -19.929       29.885       55.712       20.323      893.129     3103.877      413.028        1.184        0.221      137.366       22.607        0.027      351.120       32.789      863.001
07/12/2014  16:37:00      -43.918      110.299      -22.735       28.301       41.683       22.457      800.936     1737.478      504.300        0.883        0.152      118.721       18.380        0.024      351.102       32.759      862.990
07/12/2014  16:38:00      -47.502      122.013      -23.594       27.252       36.898       20.479      742.681     1361.457      419.392        1.011        0.126      130.934       11.052        0.007      351.092       32.741      862.971
07/12/2014  16:39:00      -37.222       98.812      -11.250       38.794       56.012       25.749     1504.988     3137.354      663.034        0.829        0.265      105.591       25.780        0.060      351.307       33.116      862.958
07/12/2014  16:40:00      -63.437      121.484      -13.560       31.071       58.062       27.934      965.382     3371.252      780.298        1.204        0.256      137.049       31.436        0.053      351.322       33.142      862.950
07/12/2014  16:41:00      -95.473      147.850      -21.730       40.553       49.682       26.141     1644.559     2468.342      683.352        1.812        0.240      175.996       22.593        0.016      351.200       32.928      862.951
07/12/2014  16:42:00     -123.044       94.931      -19.585       47.341       45.182       33.424     2241.189     2041.393     1117.191        1.497        0.270      155.409       32.249        0.043      351.386       33.253      862.949
07/12/2014  16:43:00     -131.501      114.868      -35.397       55.456       50.355       28.548     3075.334     2535.659      814.979        1.908        0.321      174.605       34.238        0.038      351.332       33.157      862.944
07/12/2014  16:44:00      -33.289      104.001      -15.005       36.429       45.025       28.439     1327.104     2027.257      808.797        0.816        0.208      109.198       20.143        0.034      351.282       33.072      862.934
07/12/2014  16:45:00      -19.015       27.589        3.967       27.758       31.133       18.731      770.497      969.289      350.846        0.161        0.105       33.507       15.707        0.220      351.601       33.629      862.930
07/12/2014  16:46:00      -11.748       57.013       19.286       29.998       41.073       31.358      899.884     1687.021      983.336        0.366        0.179       58.211       31.936        0.301      351.593       33.614      862.928
07/12/2014  16:47:00       -3.773       12.853       37.200       51.402       25.443       32.367     2642.140      647.340     1047.637        0.295        0.217       13.395       34.215        6.525      351.829       34.026      862.922
07/12/2014  16:48:00       12.000       16.625        6.537       44.676       38.277       27.772     1995.973     1465.124      771.285        0.235        0.212       20.504       16.648        0.659      351.218       32.959      862.921
07/12/2014  16:49:00     -158.528      -22.848       -9.846       37.371       39.732       20.293     1396.602     1578.654      411.800        1.457        0.169      160.166       16.292        0.010      351.232       32.986      862.919
07/12/2014  16:50:00      -53.760       21.502       -4.621       24.075       16.454       19.974      579.603      270.730      398.967        0.231        0.062       57.901       10.878        0.035      351.457       33.378      862.902
07/12/2014  16:51:00      -63.712       23.132       -8.744       49.152       32.373       25.635     2415.897     1048.030      657.158        0.440        0.206       67.781       26.992        0.159      351.701       33.804      862.888
07/12/2014  16:52:00      -91.733       22.950       -4.489       22.683       24.353       17.336      514.511      593.078      300.535        0.518        0.070       94.560       13.818        0.021      351.448       33.363      862.871
07/12/2014  16:53:00      -31.329       22.360        5.938       28.858       23.593       24.184      832.811      556.616      584.861        0.175        0.099       38.490       19.799        0.265      351.899       34.150      862.860
07/12/2014  16:54:00      -33.512       56.786       -0.743       41.190       40.868       26.923     1696.604     1670.194      724.868        0.422        0.205       65.937       22.765        0.119      351.643       33.702      862.851
07/12/2014  16:55:00      -46.652      -15.584      -11.587       39.213       45.425       24.113     1537.654     2063.455      581.419        0.337        0.209       49.186       14.179        0.083      351.592       33.614      862.842
07/12/2014  16:56:00      -17.613       86.299      -11.509       28.963       55.646       29.391      838.875     3096.426      863.832        0.634        0.240       88.078       28.351        0.104      351.461       33.386      862.836
07/12/2014  16:57:00       -1.775       86.908      -17.290       25.576       50.121       24.463      654.119     2512.091      598.449        0.581        0.188       86.926       14.224        0.027      351.291       33.089      862.829
07/12/2014  16:58:00       44.637       21.780       16.319       30.412       28.358       21.551      924.886      804.165      464.464        0.246        0.110       49.667       11.397        0.053      351.387       33.257      862.819
07/12/2014  16:59:00       61.814        3.302       22.467       27.932       33.694       29.871      780.180     1135.269      892.266        0.357        0.140       61.902       24.437        0.156      350.634       31.944      862.815
07/12/2014  17:00:00       33.860      -11.240      -11.255       31.984       24.278       23.363     1023.005      589.423      545.828        0.178        0.108       35.677       16.634        0.217      350.416       31.565      862.803
07/12/2014  17:01:00       29.622      -18.364       22.323       29.096       20.083       19.407      846.590      403.328      376.616        0.167        0.081       34.852       10.725        0.095      350.846       32.311      862.796
07/12/2014  17:02:00       94.469       29.208       17.717       77.826       46.052       44.321     6056.874     2120.824     1964.337        1.011        0.507       98.881       28.330        0.082      350.826       32.277      862.786
07/12/2014  17:03:00       70.241       12.723       39.586       67.447       77.085       43.289     4549.159     5942.165     1873.937        0.951        0.618       71.384       40.237        0.318      351.121       32.791      862.788
07/12/2014  17:04:00       70.438     -111.448        1.977       39.329       81.462       31.896     1546.780     6636.036     1017.345        1.329        0.460      131.841       31.950        0.059      351.304       33.110      862.782
07/12/2014  17:05:00       32.850      -55.372       28.534       25.932       67.917       24.233      672.459     4612.701      587.241        0.541        0.294       64.383       26.620        0.171      351.399       33.275      862.771
07/12/2014  17:06:00       53.224       34.743       19.552       35.219       32.806       22.828     1240.397     1076.253      521.138        0.363        0.142       63.560       18.948        0.089      350.714       32.083      862.759
07/12/2014  17:07:00       85.381        4.280       33.966       70.713       57.739       51.059     5000.381     3333.751     2607.060        0.970        0.547       85.488       46.754        0.299      351.098       32.753      862.734
07/12/2014  17:08:00       25.294       -7.857       38.381       35.872       37.442       33.064     1286.828     1401.890     1093.235        0.298        0.189       26.486       20.062        0.574      351.112       32.777      862.735
07/12/2014  17:09:00       -0.892       60.323       96.178       34.184       67.629       51.914     1168.579     4573.681     2695.098        1.066        0.422       60.330       50.668        0.705      350.789       32.214      862.730
07/12/2014  17:10:00       25.361       51.406       61.966       60.412       73.876       63.896     3649.560     5457.592     4082.676        1.016        0.659       57.321       61.620        1.156      350.810       32.250      862.707
07/12/2014  17:11:00       -9.243       -8.085       51.237       77.082       93.174       65.638     5941.695     8681.364     4308.404        1.085        0.947       12.280       64.299       27.417      351.499       33.452      862.686
07/12/2014  17:12:00       26.998      -82.089        8.063       99.049       87.862       74.082     9810.619     7719.774     5488.182        1.527        1.151       86.415       63.527        0.540      351.355       33.199      862.665
07/12/2014  17:13:00       25.876      -15.313       54.838       58.369      107.753       84.002     3406.955    11610.695     7056.394        1.299        1.104       30.067       80.862        7.233      351.294       33.093      862.638
07/12/2014  17:14:00      -25.111      -30.747       83.420       74.677      100.240       68.771     5576.707    10048.079     4729.497        1.444        1.018       39.699       32.402        0.666      351.716       33.828      862.541
07/12/2014  17:15:00      -12.829     -512.034      -31.883      189.769      299.215      126.257    36012.173    89529.500    15940.919       20.239        7.074      512.194      136.609        0.071      351.566       33.565      862.444
07/12/2014  17:16:00     -284.979     -301.867       -0.221      172.828      174.589      111.636    29869.636    30481.319    12462.644       12.256        3.641      415.135       95.817        0.053      351.577       33.584      862.584
07/12/2014  17:17:00     -325.087     -125.309       -0.296      160.468       86.190       57.274    25750.093     7428.675     3280.360        7.891        1.823      348.401       71.124        0.042      351.591       33.608      862.654
07/12/2014  17:18:00     -267.143     -112.838      -13.237       88.651       68.357       49.007     7858.939     4672.618     2401.678        4.960        0.747      289.996       53.325        0.034      351.717       33.827      862.661
07/12/2014  17:19:00     -174.312      -50.352       -9.331       89.886       75.769       37.961     8079.561     5740.896     1441.042        2.413        0.763      181.438       42.083        0.054      351.849       34.060      862.703
07/12/2014  17:20:00      -35.520       52.537       20.831       57.806       44.641       31.319     3341.518     1992.790      980.884        0.538        0.316       63.418       34.621        0.298      351.974       34.281      862.713
07/12/2014  17:21:00      -97.083      -13.093        1.084       59.140       52.464       33.708     3497.567     2752.437     1136.204        0.849        0.369       97.962       30.778        0.099      351.765       33.914      862.730
07/12/2014  17:22:00      -47.428      -25.834        5.668       61.418       47.533       37.306     3772.153     2259.418     1391.761        0.518        0.371       54.008       25.413        0.221      351.827       34.022      862.717
07/12/2014  17:23:00     -129.033      -19.667        3.596       80.139       59.949       38.002     6422.212     3593.931     1444.144        1.425        0.573      130.523       37.481        0.082      351.841       34.046      862.719
07/12/2014  17:24:00     -215.503      -37.887       -8.098       57.114       65.757       33.166     3262.064     4324.048     1099.987        2.831        0.434      218.808       30.182        0.019      351.609       33.639      862.722
07/12/2014  17:25:00      -31.512       37.134       29.091       55.524       32.937       41.569     3082.859     1084.879     1728.021        0.456        0.295       48.703       36.758        0.570      351.920       34.184      862.723
07/12/2014  17:26:00       19.769        8.966        2.913       24.969       38.343       20.241      623.429     1470.171      409.711        0.149        0.125       21.707       13.579        0.391      351.662       33.737      862.731
07/12/2014  17:27:00      -69.230       35.397      -15.851       69.587       51.376       30.379     4842.359     2639.543      922.855        0.735        0.420       77.754       34.550        0.197      351.848       34.059      862.733
07/12/2014  17:28:00      -79.237       51.708        6.619       51.427       60.724       35.514     2644.721     3687.451     1261.267        0.829        0.380       94.616       35.634        0.142      351.771       33.925      862.736
07/12/2014  17:29:00     -178.176        9.884      -34.658       77.026       44.052       31.583     5932.954     1940.561      997.482        2.096        0.444      178.449       30.843        0.030      351.868       34.095      862.728
07/12/2014  17:30:00     -150.341      -22.418       -9.896       51.094       39.807       33.067     2610.646     1584.590     1093.404        1.424        0.264      152.003       26.807        0.031      351.698       33.797      862.727
07/12/2014  17:31:00     -148.809      -16.270       -5.789       48.866       36.147       27.583     2387.933     1306.602      760.813        1.345        0.223      149.695       20.275        0.018      351.819       34.009      862.709
07/12/2014  17:32:00     -182.992      -70.327      -23.385       57.376       51.315       28.289     3291.954     2633.217      800.278        2.285        0.336      196.040       14.374        0.005      351.648       33.708      862.690
07/12/2014  17:33:00     -202.407      -66.178       -5.459       90.940       58.277       38.105     8270.163     3396.159     1451.971        2.925        0.656      212.951       35.635        0.028      351.567       33.566      862.677
07/12/2014  17:34:00     -222.985      -54.749      -12.156       63.858       47.596       32.132     4077.798     2265.390     1032.443        3.012        0.369      229.608       32.174        0.020      351.412       33.295      862.675
07/12/2014  17:35:00     -144.483      -13.197      -14.060       48.500       51.247       23.648     2352.202     2626.232      559.219        1.339        0.277      145.084       17.365        0.014      351.497       33.445      862.671
07/12/2014  17:36:00      -62.242       -8.995        1.163       41.433       31.847       18.849     1716.708     1014.200      355.295        0.352        0.154       62.889       22.162        0.124      351.630       33.679      862.660
07/12/2014  17:37:00      -48.562       31.007        7.184       40.426       24.466       17.970     1634.281      598.599      322.916        0.296        0.128       57.617       12.516        0.047      351.756       33.899      862.649
07/12/2014  17:38:00     -128.802        4.979      -18.634       44.222       74.694       25.504     1955.617     5579.159      650.438        1.257        0.409      128.898       20.285        0.025      351.580       33.592      862.646
07/12/2014  17:39:00      -84.113      -51.456       13.408       90.180       59.499       44.631     8132.353     3540.078     1991.919        1.178        0.683       98.604       41.395        0.176      351.687       33.778      862.639
07/12/2014  17:40:00      -17.802       -0.831       22.065       50.060       38.913       32.626     2506.027     1514.243     1064.431        0.294        0.254       17.821       21.728        1.486      351.588       33.606      862.646
07/12/2014  17:41:00      -35.069       57.462       -6.535       48.511       61.597       29.725     2353.320     3794.249      883.592        0.580        0.352       67.318       38.677        0.330      351.524       33.493      862.649
07/12/2014  17:42:00      -41.348       70.204        3.841       38.576       37.605       29.624     1488.094     1414.145      877.555        0.522        0.189       81.475       24.585        0.091      351.457       33.376      862.650
07/12/2014  17:43:00      -79.317       12.444       -1.421       39.626       45.118       29.342     1570.245     2035.621      860.962        0.546        0.223       80.287       20.795        0.067      351.756       33.899      862.645
07/12/2014  17:44:00      -16.447       -6.516       21.313       39.774       33.643       23.090     1582.000     1131.835      533.145        0.201        0.162       17.690       19.239        1.183      351.937       34.215      862.634
07/12/2014  17:45:00      -90.402      -26.384      -12.814       53.883       41.207       29.706     2903.334     1697.996      882.422        0.726        0.274       94.174       27.062        0.083      351.688       33.780      862.639
07/12/2014  17:46:00      -99.182       77.820      -17.287       40.145       83.196       34.104     1611.639     6921.652     1163.063        1.294        0.485      126.068       39.836        0.100      351.412       33.298      862.630
07/12/2014  17:47:00     -108.952       59.081      -16.335       41.247       32.153       24.576     1701.340     1033.823      603.984        0.948        0.167      123.940       18.799        0.023      351.377       33.238      862.623
07/12/2014  17:48:00      -70.200      123.531       -8.539       41.838       59.065       25.394     1750.387     3488.669      644.857        1.307        0.294      142.084       29.580        0.043      351.338       33.170      862.598
07/12/2014  17:49:00      -37.792      119.234       -4.833       39.567       32.793       25.869     1565.535     1075.378      669.208        0.949        0.166      125.080       17.650        0.020      351.295       33.096      862.593
07/12/2014  17:50:00        1.373      142.331      -10.554       50.362       65.928       36.732     2536.303     4346.544     1349.212        1.430        0.412      142.337       37.932        0.071      351.283       33.073      862.587
07/12/2014  17:51:00       12.093      106.155      -19.179       34.603       42.546       24.100     1197.335     1810.194      580.793        0.768        0.179      106.841       19.610        0.034      351.369       33.224      862.586
07/12/2014  17:52:00      -34.224       15.794      -12.266       46.433       37.190       26.997     2156.027     1383.104      728.841        0.292        0.213       37.693       16.510        0.192      351.557       33.552      862.591
07/12/2014  17:53:00      -86.975      -25.278        0.721       66.198       29.018       24.318     4382.114      842.035      591.356        0.701        0.291       90.574       30.172        0.111      351.665       33.740      862.598
07/12/2014  17:54:00      -42.716       11.515        1.422       35.280       37.874       21.437     1244.674     1434.418      459.544        0.255        0.157       44.241       14.383        0.106      351.526       33.498      862.602
07/12/2014  17:55:00        8.916       16.455       10.762       26.284       17.728       16.461      690.874      314.279      270.969        0.087        0.064       18.716       13.913        0.553      350.703       32.064      862.610
07/12/2014  17:56:00      -16.255       18.357       13.624       33.196       18.546       18.859     1101.989      343.959      355.650        0.129        0.090       24.519        7.190        0.086      351.023       32.620      862.613
07/12/2014  17:57:00      -77.008      -12.862       12.742       57.737       52.309       29.396     3333.607     2736.186      864.117        0.659        0.347       78.075       30.991        0.158      351.387       33.255      862.614
07/12/2014  17:58:00      -71.148      -39.252        2.588       37.077       37.759       15.076     1374.715     1425.722      227.298        0.482        0.151       81.257       15.360        0.036      351.442       33.350      862.624
07/12/2014  17:59:00      -72.259       -5.481       -7.168       16.606       27.553       22.222      275.775      759.164      493.839        0.342        0.076       72.466       18.179        0.063      351.389       33.260      862.615
07/12/2014  18:00:00      -21.195       48.651       18.961       45.484       19.503       19.039     2068.760      380.354      362.491        0.299        0.141       53.067       14.723        0.077      351.373       33.231      862.606
07/12/2014  18:01:00       37.058       13.630       -4.100       14.458       19.511       15.751      209.036      380.696      248.081        0.121        0.042       39.485       12.823        0.105      351.265       33.042      862.595
07/12/2014  18:02:00       21.785       23.307       12.129       15.900       14.927       17.506      252.825      222.811      306.469        0.097        0.039       31.903       14.651        0.211      351.010       32.598      862.596
07/12/2014  18:03:00       65.633       53.057       32.968       51.123       28.694       29.020     2613.528      823.345      842.144        0.624        0.214       84.397       15.510        0.034      350.721       32.095      862.592
07/12/2014  18:04:00      150.789       78.102       21.124       59.456       45.423       43.395     3535.043     2063.262     1883.129        1.838        0.374      169.815       15.999        0.009      351.478       33.413      862.584
07/12/2014  18:05:00       81.697       23.964       27.913       53.878       46.816       31.869     2902.872     2191.711     1015.632        0.707        0.306       85.139       28.504        0.112      351.051       32.670      862.580
07/12/2014  18:06:00       31.926      -37.207        1.224       23.446       59.286       25.503      549.737     3514.840      650.425        0.356        0.236       49.027       18.585        0.144      350.857       32.333      862.575
07/12/2014  18:07:00        0.927       18.036        2.106       47.656       43.493       29.040     2271.135     1891.603      843.346        0.267        0.250       18.059       22.698        1.580      351.333       33.163      862.573
07/12/2014  18:08:00       39.414       62.436       71.510       47.455       53.155       38.999     2251.967     2825.416     1520.888        0.858        0.330       73.836       34.904        0.223      350.940       32.478      862.568
07/12/2014  18:09:00      147.953       98.578       31.352       37.604       35.833       34.763     1414.033     1283.979     1208.481        1.825        0.195      177.786       14.276        0.006      351.179       32.890      862.561
07/12/2014  18:10:00       99.222       62.013       13.754       41.012       35.768       24.266     1682.021     1279.332      588.859        0.871        0.178      117.007       12.809        0.012      351.267       33.045      862.553
07/12/2014  18:11:00       55.441       22.345       27.004       39.017       25.283       23.443     1522.303      639.254      549.570        0.351        0.136       59.774       10.927        0.033      350.819       32.266      862.545
07/12/2014  18:12:00       73.275       54.723       17.391       50.555       24.086       28.745     2555.830      580.117      826.274        0.631        0.198       91.454       19.895        0.047      350.880       32.372      862.539
07/12/2014  18:13:00       84.085       57.255       33.949       33.550       28.055       31.716     1125.606      787.095     1005.881        0.721        0.146      101.728       14.863        0.021      350.914       32.432      862.525
07/12/2014  18:14:00       62.302       14.765       12.048       41.339       67.895       27.880     1708.877     4609.698      777.300        0.567        0.355       64.028       30.399        0.225      351.117       32.784      862.515
07/12/2014  18:15:00       82.442       55.735       20.346       45.889       88.285       44.642     2105.842     7794.238     1992.934        1.110        0.595       99.514       34.177        0.118      351.078       32.717      862.513
07/12/2014  18:16:00      123.180       94.606       69.011       60.526       49.415       50.881     3663.405     2441.810     2588.855        1.879        0.435      155.318       45.094        0.084      351.017       32.609      862.516
07/12/2014  18:17:00      132.459       76.470       53.633       85.087       53.083       53.770     7239.780     2817.797     2891.246        1.961        0.647      152.948       37.492        0.060      351.191       32.912      862.516
07/12/2014  18:18:00       83.578       52.237       38.020       87.507       60.879       49.703     7657.446     3706.285     2470.368        1.249        0.692       98.560       43.128        0.191      351.297       33.096      862.539
07/12/2014  18:19:00      123.298       44.918       47.358       57.488       66.226       48.640     3304.833     4385.925     2365.808        1.476        0.503      131.225       31.931        0.059      351.043       32.656      862.545
07/12/2014  18:20:00      109.586       61.958       29.937       69.958       53.395       42.094     4894.171     2851.024     1771.884        1.313        0.476      125.889       26.735        0.045      351.088       32.735      862.551
07/12/2014  18:21:00       59.654       57.616       33.351       29.560       27.241       27.339      873.796      742.097      747.444        0.518        0.118       82.935        9.632        0.013      351.250       33.016      862.553
07/12/2014  18:22:00      -16.484       18.539       -0.074       25.284       27.039       27.009      639.300      731.124      729.467        0.136        0.105       24.808       21.221        0.732      351.440       33.350      862.548
07/12/2014  18:23:00       14.023       -4.172       16.011       23.267       39.786       26.236      541.366     1582.939      688.337        0.164        0.141       14.631       23.554        2.592      351.031       32.636      862.539
07/12/2014  18:24:00       47.378       -0.054       18.102       44.416       23.411       16.210     1972.739      548.056      262.761        0.268        0.139       47.378        9.562        0.041      350.916       32.436      862.525
07/12/2014  18:25:00      111.597     -171.175      -23.769       69.215       56.373       36.386     4790.783     3177.889     1323.967        2.580        0.465      204.340       26.161        0.016      351.477       33.409      862.509
07/12/2014  18:26:00      133.306     -145.526      -12.457       43.146       47.048       26.533     1861.587     2213.517      703.984        2.194        0.239      197.354       25.362        0.017      351.415       33.301      862.509
07/12/2014  18:27:00       59.663     -109.167      -29.480       53.020       40.879       25.493     2811.073     1671.092      649.874        1.074        0.257      124.408       12.116        0.009      351.546       33.532      862.506
07/12/2014  18:28:00       39.994     -120.113       -7.895       42.026       48.788       25.638     1766.161     2380.226      657.287        1.045        0.240      126.597       12.394        0.010      351.528       33.500      862.515
07/12/2014  18:29:00       51.805      -90.860        7.234       37.805       48.014       36.521     1429.251     2305.363     1333.819        0.803        0.253      104.591       26.287        0.063      351.419       33.311      862.513
07/12/2014  18:30:00       29.780      -36.347       -5.828       32.205       33.090       27.088     1037.172     1094.948      733.760        0.255        0.143       46.989       22.107        0.221      351.092       32.741      862.513
07/12/2014  18:31:00       77.528      -57.363       13.259       87.634      124.438       61.191     7679.786    15484.915     3744.318        1.819        1.345       96.442       82.309        0.728      351.027       32.627      862.507
07/12/2014  18:32:00       86.231       -4.976       70.562       85.299      113.707       69.228     7275.939    12929.189     4792.450        1.871        1.250       86.375       84.895        0.966      351.357       33.202      862.504
07/12/2014  18:33:00       28.451       34.288       31.423       31.469       26.925       26.063      990.315      724.977      679.260        0.268        0.120       44.554       16.141        0.131      350.974       32.534      862.514
07/12/2014  18:34:00       45.960      -51.635       -5.686       31.053       34.101       19.788      964.264     1162.883      391.564        0.366        0.126       69.127       18.717        0.073      351.197       32.924      862.511
07/12/2014  18:35:00       23.674      -20.345       13.265       32.720       41.563       30.277     1070.627     1727.518      916.727        0.243        0.186       31.215       32.713        1.098      351.144       32.832      862.522
07/12/2014  18:36:00       17.436        4.752        8.619       15.873       25.836       20.754      251.958      667.523      430.745        0.088        0.068       18.072       18.756        1.077      351.033       32.639      862.521
07/12/2014  18:37:00        2.731      -29.301       -1.670       18.340       17.817       15.118      336.339      317.448      228.564        0.088        0.044       29.428       12.787        0.189      351.379       33.242      862.530
07/12/2014  18:38:00       54.763      -18.246        5.767       23.102       22.684       20.387      533.680      514.558      415.620        0.241        0.073       57.722       13.134        0.052      351.051       32.671      862.539
07/12/2014  18:39:00       17.521       -9.942       18.342       32.220       28.679       17.921     1038.097      822.496      321.154        0.146        0.109       20.145       16.323        0.657      350.961       32.512      862.540
07/12/2014  18:40:00      -23.340      -43.000       15.437       32.333       51.836       36.366     1045.416     2687.018     1322.496        0.384        0.253       48.926       30.188        0.381      351.335       33.166      862.543
07/12/2014  18:41:00      -17.940      -45.033        5.467       35.213       52.386       30.034     1239.958     2744.345      902.045        0.363        0.244       48.475       21.768        0.202      351.429       33.329      862.548
07/12/2014  18:42:00       11.803      -15.601       -2.513       39.386       33.630       20.955     1551.249     1130.982      439.119        0.175        0.156       19.563       15.713        0.645      351.490       33.434      862.556
07/12/2014  18:43:00        3.047       -7.757        9.437       27.347       31.788       22.247      747.836     1010.490      494.946        0.121        0.113        8.334       15.799        3.594      351.176       32.887      862.570
07/12/2014  18:44:00      -10.561      -41.672      -11.268       33.955       29.099       21.661     1152.967      846.755      469.218        0.222        0.123       42.990       16.090        0.140      351.540       33.524      862.579
07/12/2014  18:45:00      -26.382      -37.830       -8.449       29.035       35.469       18.257      843.012     1258.062      333.310        0.232        0.122       46.121       13.420        0.085      351.427       33.325      862.590
07/12/2014  18:46:00      -40.233      -12.561       -1.716       24.620       23.398       21.945      606.131      547.445      481.590        0.171        0.082       42.148       17.179        0.166      351.422       33.317      862.588
07/12/2014  18:47:00      -51.979      -39.244        4.129       36.580       25.540       16.692     1338.095      652.283      278.634        0.326        0.113       65.129       14.908        0.052      351.382       33.248      862.584
07/12/2014  18:48:00      -57.008      -22.635       -1.509       43.907       40.333       18.836     1927.825     1626.748      354.782        0.384        0.195       61.337       23.754        0.150      351.321       33.140      862.577
07/12/2014  18:49:00        8.586       17.199       13.433       20.568       12.447       14.264      423.037      154.935      203.457        0.067        0.039       19.223        6.556        0.116      350.396       31.530      862.572
07/12/2014  18:50:00      -35.627        3.689       11.074       48.851       34.296       24.208     2386.441     1176.196      586.028        0.278        0.207       35.817       22.797        0.405      350.994       32.570      862.568
07/12/2014  18:51:00      -37.371        6.884        5.548       47.302       26.180       21.993     2237.448      685.385      483.706        0.244        0.170       37.999       21.013        0.306      350.973       32.533      862.577
07/12/2014  18:52:00     -104.794        6.339       -7.206       38.457       33.560       23.596     1478.906     1126.284      556.764        0.712        0.158      104.985       20.678        0.039      351.372       33.228      862.582
07/12/2014  18:53:00     -108.465       -9.152      -13.967       37.484       48.653       19.910     1405.022     2367.143      396.396        0.811        0.208      108.851       15.625        0.021      351.402       33.281      862.592
07/12/2014  18:54:00     -113.117      -27.525       -3.758       45.947       45.972       23.246     2111.082     2113.442      540.384        0.917        0.238      116.418       22.404        0.037      351.421       33.315      862.592
07/12/2014  18:55:00     -116.736      -31.915       -6.841       45.595       43.610       24.219     2078.930     1901.861      586.580        0.963        0.228      121.020       24.700        0.042      351.369       33.223      862.605
07/12/2014  18:56:00     -129.971       -2.552       -9.634       40.245       25.594       19.926     1619.675      655.038      397.040        0.983        0.134      129.996       22.716        0.031      351.526       33.496      862.617
07/12/2014  18:57:00     -115.904       26.515       -9.837       43.510       34.419       20.148     1893.131     1184.691      405.950        0.886        0.174      118.899       18.677        0.025      351.368       33.223      862.627
07/12/2014  18:58:00      -77.361      -21.233       -3.346       47.395       20.927       17.214     2246.271      437.934      296.325        0.471        0.149       80.222       23.573        0.086      351.493       33.440      862.622
07/12/2014  18:59:00     -118.282      -28.001       -0.355       44.754       27.782       18.592     2002.886      771.836      345.677        0.895        0.156      121.551       24.340        0.040      351.358       33.204      862.620
07/12/2014  19:00:00     -137.499      -24.696      -13.814       19.954       20.790       13.639      398.166      432.218      186.031        1.036        0.051      139.699        7.530        0.003      351.439       33.344      862.621
07/12/2014  19:01:00      -85.323      -35.391        1.455       34.035       33.958       18.387     1158.386     1153.129      338.085        0.559        0.132       92.371       18.027        0.038      351.348       33.188      862.630
07/12/2014  19:02:00      -56.086       24.014       -1.148       20.816       36.071       15.941      433.290     1301.112      254.114        0.286        0.099       61.011       14.217        0.054      351.342       33.179      862.625
07/12/2014  19:03:00      -68.477       15.942        3.466       34.275       30.770       19.332     1174.790      946.791      373.730        0.372        0.125       70.308       20.189        0.082      351.359       33.208      862.623
07/12/2014  19:04:00      -64.884       65.731       -9.644       28.162       37.724       18.731      793.075     1423.101      350.832        0.559        0.128       92.361       13.624        0.022      351.323       33.142      862.629
07/12/2014  19:05:00      -61.021       44.281       -1.412       29.118       22.777       18.958      847.866      518.808      359.416        0.371        0.086       75.395       12.251        0.026      351.301       33.105      862.624
07/12/2014  19:06:00      -54.419       46.548        3.536       37.114       25.562       23.258     1377.455      653.441      540.940        0.386        0.129       71.611       25.306        0.125      351.214       32.953      862.624
07/12/2014  19:07:00      -54.647       27.941       -5.289       17.390       22.259       13.182      302.399      495.475      173.769        0.238        0.049       61.376        7.906        0.017      351.216       32.958      862.635
07/12/2014  19:08:00      -42.327       14.196        3.656       21.593       32.626       15.166      466.246     1064.471      230.017        0.188        0.088       44.644       10.267        0.053      351.224       32.972      862.631
07/12/2014  19:09:00      -29.770       48.535       -3.795       21.108       19.927       12.643      445.560      397.098      159.850        0.213        0.050       56.937        9.683        0.029      350.971       32.530      862.641
07/12/2014  19:10:00      -64.889       55.346       -9.494       25.627       28.041       18.989      656.720      786.290      360.563        0.458        0.090       85.286       13.353        0.025      351.149       32.841      862.645
07/12/2014  19:11:00      -96.173       45.487      -12.594       26.990       35.257       20.851      728.438     1243.026      434.748        0.694        0.120      106.388       19.688        0.034      351.252       33.022      862.648
07/12/2014  19:12:00     -123.292       60.361      -18.215       38.314       46.956       36.168     1467.986     2204.889     1308.155        1.208        0.249      137.275       28.968        0.045      351.292       33.091      862.650
07/12/2014  19:13:00      -99.622       16.406      -25.190       39.119       65.786       24.092     1530.298     4327.817      580.448        0.863        0.322      100.964       18.211        0.033      351.303       33.109      862.639
07/12/2014  19:14:00      -89.782        9.174       -7.438       47.581       44.035       33.408     2263.914     1939.061     1116.093        0.676        0.266       90.250       29.176        0.105      351.217       32.960      862.641
07/12/2014  19:15:00      -92.749       44.180       -8.447       41.581       33.008       23.404     1728.969     1089.536      547.736        0.700        0.168      102.734       22.476        0.048      351.232       32.987      862.638
07/12/2014  19:16:00      -94.349       66.054      -14.021       32.572       36.313       22.354     1060.922     1318.651      499.700        0.817        0.144      115.173       19.385        0.028      351.226       32.973      862.650
07/12/2014  19:17:00      -84.419       60.125      -15.592       30.952       56.351       14.143      958.017     3175.420      200.027        0.766        0.217      103.642       18.648        0.032      351.258       33.030      862.643
07/12/2014  19:18:00      -39.678       22.821        2.408       22.547       11.336       17.474      508.374      128.498      305.323        0.152        0.047       45.773       13.150        0.083      351.119       32.788      862.650
07/12/2014  19:19:00      -32.720       65.704       -3.800       16.097       29.740       16.764      259.116      884.458      281.040        0.341        0.071       73.400       15.763        0.046      350.986       32.556      862.644
07/12/2014  19:20:00      -72.244       90.744      -18.455       22.633       44.977       14.974      512.230     2022.937      224.219        0.828        0.138      115.990        8.777        0.006      351.099       32.753      862.651
07/12/2014  19:21:00      -49.153       81.412      -18.981       29.397       22.157       10.870      864.185      490.931      118.147        0.544        0.074       95.100       12.893        0.018      351.135       32.815      862.652
07/12/2014  19:22:00      -14.022       50.704       -3.512       15.529       16.192        9.833      241.144      262.181       96.682        0.169        0.030       52.607       11.508        0.048      351.023       32.623      862.654
07/12/2014  19:23:00       -6.558       61.809       -0.328       10.480       23.628       17.068      109.825      558.280      291.322        0.241        0.048       62.156       15.954        0.066      350.853       32.323      862.661
07/12/2014  19:24:00      -14.990       93.893      -13.454       20.108       28.758       14.053      404.316      827.004      197.484        0.532        0.071       95.082       14.119        0.022      350.999       32.580      862.675
07/12/2014  19:25:00        0.659       58.883       -4.239       21.734       39.847       18.432      472.363     1587.789      339.745        0.294        0.120       58.886       18.985        0.104      350.961       32.513      862.679
07/12/2014  19:26:00      -18.410       82.425      -11.791       19.251       26.977        9.420      370.607      727.752       88.740        0.423        0.059       84.456        7.900        0.009      351.133       32.812      862.683
07/12/2014  19:27:00       -4.448       71.538       -4.113       14.392       16.556       11.879      207.125      274.090      141.113        0.289        0.031       71.677       10.239        0.020      351.100       32.756      862.689
07/12/2014  19:28:00       -6.588       93.090      -19.134       21.041       24.459       19.143      442.712      598.262      366.441        0.524        0.070       93.323       15.637        0.028      351.231       32.984      862.705
07/12/2014  19:29:00      -19.959      154.601      -22.463       59.477       96.862       33.026     3537.557     9382.208     1090.698        1.940        0.701      155.884       44.089        0.080      351.097       32.747      862.698
07/12/2014  19:30:00       11.496      214.472      -34.873       44.936       80.017       29.279     2019.214     6402.709      857.263        2.831        0.464      214.780       32.300        0.023      351.154       32.845      862.715
07/12/2014  19:31:00      -31.358      172.633      -31.279       47.967       56.394       24.929     2300.848     3180.230      621.440        1.893        0.305      175.458       28.930        0.027      351.149       32.840      862.721
07/12/2014  19:32:00      -85.667       41.379      -12.273       28.075       42.352       17.750      788.198     1793.718      315.053        0.605        0.145       95.137       11.972        0.016      351.099       32.756      862.743
07/12/2014  19:33:00     -142.844       58.599      -15.415       44.405       34.020       22.975     1971.786     1157.391      527.832        1.387        0.183      154.396       18.540        0.014      351.243       33.004      862.753
07/12/2014  19:34:00     -143.162       -7.100      -16.958       94.912       61.246       35.270     9008.270     3751.038     1243.990        1.742        0.700      143.338       44.654        0.097      351.218       32.959      862.768
07/12/2014  19:35:00     -179.294       45.247      -29.695       88.574       86.905       44.066     7845.351     7552.428     1941.815        2.620        0.867      184.915       44.978        0.059      351.088       32.732      862.766
07/12/2014  19:36:00     -253.336      165.945      -53.033       90.939       95.663       53.995     8269.980     9151.375     2915.509        5.743        1.017      302.848       49.135        0.026      351.014       32.602      862.798
07/12/2014  19:37:00     -160.320      241.529      -32.790       81.605      119.905       66.005     6659.389    14377.290     4356.652        5.525        1.270      289.894       63.697        0.048      350.980       32.542      862.796
07/12/2014  19:38:00     -165.865       91.111      -18.503      115.501      135.331       65.774    13340.396    18314.474     4326.220        3.606        1.799      189.242       50.194        0.070      350.981       32.546      862.811
07/12/2014  19:39:00     -226.218      236.465      -42.493      104.082      148.707       83.404    10833.053    22113.880     6956.212        7.439        1.995      327.246       74.701        0.052      350.940       32.473      862.816
07/12/2014  19:40:00     -238.335      164.673      -34.070      121.340       94.579       59.340    14723.394     8945.115     3521.291        5.613        1.359      289.691       58.537        0.041      350.920       32.438      862.823
07/12/2014  19:41:00     -211.983       83.088      -22.852      143.663      104.319       65.858    20639.132    10882.491     4337.286        4.410        1.793      227.685       67.632        0.088      350.908       32.420      862.820
07/12/2014  19:42:00     -155.083      153.715      -29.097      113.365       74.606       50.079    12851.557     5565.984     2507.878        3.472        1.046      218.355       52.067        0.057      350.835       32.290      862.825
07/12/2014  19:43:00     -172.459      250.226      -43.553       77.983      105.361       54.823     6081.356    11101.029     3005.533        5.722        1.009      303.900       61.625        0.041      350.858       32.332      862.833
07/12/2014  19:44:00     -117.070      245.347      -26.524       63.829      100.316       50.032     4074.203    10063.242     2503.179        4.562        0.832      271.847       38.700        0.020      350.854       32.324      862.820
07/12/2014  19:45:00     -102.671      119.479      -17.357       57.514       51.631       41.174     3307.872     2665.748     1695.298        1.639        0.383      157.533       31.767        0.041      350.875       32.362      862.823
07/12/2014  19:46:00      -76.694      133.684      -23.528       71.384       73.496       45.268     5095.658     5401.696     2049.213        1.842        0.627      154.121       45.622        0.088      350.875       32.361      862.826
07/12/2014  19:47:00     -138.552      258.342      -43.577       62.075      104.994       45.762     3853.268    11023.718     2094.176        5.240        0.849      293.150       42.915        0.021      350.873       32.358      862.818
07/12/2014  19:48:00      -95.354       83.955      -10.495       61.401       69.682       37.820     3770.052     4855.617     1430.354        1.315        0.503      127.046       37.973        0.089      350.930       32.459      862.822
07/12/2014  19:49:00      -88.857       -5.116        3.500       60.378       84.874       39.746     3645.482     7203.642     1579.713        1.018        0.621       89.004       30.551        0.118      350.970       32.529      862.829
07/12/2014  19:50:00     -126.216       55.725      -21.138       86.134       86.531       54.620     7419.123     7487.685     2983.296        1.868        0.895      137.970       56.265        0.166      350.898       32.402      862.839
07/12/2014  19:51:00     -152.536       21.398      -20.208      122.061       91.206       45.569    14898.804     8318.526     2076.556        2.471        1.265      154.029       48.909        0.101      350.886       32.382      862.844
07/12/2014  19:52:00     -186.509       80.332      -25.939       77.955       63.912       39.594     6077.048     4084.767     1567.690        2.682        0.586      203.073       33.254        0.027      350.804       32.237      862.855
07/12/2014  19:53:00     -251.110      152.777      -44.425      104.410       78.725       53.649    10901.517     6197.651     2878.179        5.417        0.999      293.934       55.391        0.036      350.798       32.228      862.873
07/12/2014  19:54:00     -187.776      136.311      -37.675       90.575       73.172       49.686     8203.758     5354.102     2468.668        3.564        0.801      232.035       27.001        0.014      350.755       32.152      862.884
07/12/2014  19:55:00     -163.170       15.109      -11.297       75.023       84.031       41.812     5628.518     7061.190     1748.256        2.071        0.722      163.868       42.710        0.068      350.721       32.093      862.883
07/12/2014  19:56:00     -310.131      -83.656      -15.060       88.518       80.113       43.957     7835.427     6418.017     1932.178        5.979        0.809      321.216       43.719        0.019      350.613       31.902      862.888
07/12/2014  19:57:00     -190.071      -85.121       -7.302       67.862       67.020       35.180     4605.228     4491.639     1237.649        2.688        0.517      208.261       27.950        0.018      350.573       31.835      862.891
07/12/2014  19:58:00     -130.799      -26.733      -20.104       85.750       56.658       33.920     7353.051     3210.106     1150.558        1.497        0.586      133.503       20.677        0.024      350.582       31.852      862.886
07/12/2014  19:59:00      -99.975       27.884      -17.133       47.446       36.400       31.355     2251.130     1324.972      983.107        0.781        0.228      103.791       18.820        0.033      350.606       31.895      862.890
07/12/2014  20:00:00     -149.379      -21.674      -21.333       69.475       71.565       41.313     4826.838     5121.618     1706.771        1.744        0.583      150.944       39.752        0.069      350.603       31.890      862.891
07/12/2014  20:01:00     -158.277      -55.709       -0.800       43.365       45.540       22.997     1880.515     2073.873      528.863        1.632        0.224      167.795       17.212        0.011      350.591       31.868      862.883
07/12/2014  20:02:00     -150.139      -24.595       -6.758       70.750       47.980       36.834     5005.618     2302.058     1356.743        1.593        0.433      152.141       41.832        0.076      350.554       31.804      862.904
07/12/2014  20:03:00     -192.948      -66.764       -7.751       53.746       62.858       41.084     2888.634     3951.185     1687.910        2.514        0.426      204.173       34.943        0.029      350.546       31.788      862.904
07/12/2014  20:04:00     -141.003      -27.976        1.266       53.632       47.911       29.739     2876.355     2295.454      884.389        1.336        0.303      143.751       20.146        0.020      350.432       31.592      862.909
07/12/2014  20:05:00     -164.883      -14.578      -11.694       66.518       57.438       32.952     4424.579     3299.113     1085.866        1.817        0.440      165.526       28.239        0.029      350.396       31.526      862.925
07/12/2014  20:06:00     -133.746      -49.479        4.443       61.968       65.701       36.001     3840.089     4316.592     1296.083        1.490        0.473      142.605       35.129        0.061      350.503       31.716      862.916
07/12/2014  20:07:00     -152.480      -36.773      -16.466       65.617       65.418       46.556     4305.645     4279.559     2167.428        1.781        0.538      156.852       34.896        0.049      350.500       31.709      862.920
07/12/2014  20:08:00     -198.831      -75.635       -4.089       83.736       72.125       38.746     7011.753     5201.946     1501.268        2.949        0.686      212.731       32.971        0.024      350.426       31.579      862.928
07/12/2014  20:09:00      -95.469       -5.637        1.566       79.784       68.121       42.718     6365.446     4640.499     1824.847        1.099        0.642       95.635       49.117        0.264      350.329       31.413      862.939
07/12/2014  20:10:00     -163.586       66.804      -39.869       66.181       61.658       47.473     4379.914     3801.668     2253.678        2.162        0.522      176.701       33.378        0.036      350.340       31.431      862.961
07/12/2014  20:11:00     -104.839      108.407      -17.196       48.120       61.345       30.364     2315.500     3763.236      921.977        1.502        0.350      150.809       23.032        0.023      350.320       31.399      862.967
07/12/2014  20:12:00     -100.224       61.408      -13.673       56.245       65.537       37.319     3163.535     4295.090     1392.730        1.143        0.443      117.541       14.693        0.016      350.423       31.579      862.966
07/12/2014  20:13:00     -117.868      -18.823       -1.425       99.143       58.440       41.718     9829.398     3415.288     1740.396        1.461        0.749      119.362       45.141        0.143      350.353       31.456      862.985
07/12/2014  20:14:00     -181.830      -15.715       -5.191      122.685       75.291       47.470    15051.501     5668.727     2253.437        2.815        1.149      182.507       60.306        0.109      350.344       31.436      863.001
07/12/2014  20:15:00     -218.708      -33.458      -15.473       71.116       78.001       46.857     5057.528     6084.183     2195.553        3.126        0.667      221.253       45.040        0.041      350.335       31.420      863.006
07/12/2014  20:16:00     -212.519      -22.128      -16.880       80.144       65.935       40.240     6423.100     4347.420     1619.256        2.916        0.619      213.668       37.977        0.032      350.326       31.405      863.027
07/12/2014  20:17:00      -53.313       -9.909        7.811       67.732       48.095       36.643     4587.587     2313.085     1342.673        0.562        0.412       54.226       40.041        0.545      350.188       31.167      863.041
07/12/2014  20:18:00     -200.791      -65.988       -8.997       60.696       62.557       36.090     3683.981     3913.352     1302.482        2.682        0.445      211.357       24.363        0.013      350.261       31.290      863.048
07/12/2014  20:19:00     -149.431      -43.048      -14.334       50.141       59.108       36.646     2514.140     3493.744     1342.953        1.587        0.368      155.508       26.678        0.029      350.241       31.260      863.066
07/12/2014  20:20:00     -176.532      -35.850       -2.577       63.002       47.109       33.806     3969.301     2219.220     1142.870        1.989        0.367      180.136       31.388        0.030      350.215       31.211      863.069
07/12/2014  20:21:00     -161.641      -40.113       -2.002       64.132       64.631       42.179     4112.859     4177.175     1779.026        1.890        0.503      166.544       32.400        0.038      350.249       31.273      863.075
07/12/2014  20:22:00     -195.725      -71.243      -19.422       82.058       54.546       37.170     6733.530     2975.315     1381.615        2.742        0.555      208.288       43.202        0.043      350.238       31.254      863.069
07/12/2014  20:23:00     -125.699      -27.385       10.310       70.468       50.529       36.357     4965.808     2553.162     1321.838        1.275        0.442      128.647       29.653        0.053      350.185       31.161      863.060
07/12/2014  20:24:00     -207.506       -5.900      -20.519       71.783       51.056       26.024     5152.750     2606.749      677.257        2.597        0.422      207.590       26.953        0.017      350.153       31.105      863.061
07/12/2014  20:25:00     -207.436        8.085      -17.368       80.661       39.264       36.680     6506.244     1541.638     1345.418        2.639        0.470      207.593       34.512        0.028      350.113       31.034      863.051
07/12/2014  20:26:00     -200.836      -42.454       -0.881       84.038       54.727       44.850     7062.365     2995.039     2011.483        2.710        0.603      205.274       44.840        0.048      350.040       30.908      863.051
07/12/2014  20:27:00     -195.657      -11.743      -15.746       59.833       45.712       27.100     3579.942     2089.617      734.407        2.253        0.320      196.009       27.605        0.020      350.037       30.903      863.052
07/12/2014  20:28:00     -133.527       -6.092       -8.702       60.534       38.668       32.797     3664.384     1495.242     1075.649        1.209        0.312      133.666       27.485        0.042      350.050       30.928      863.043
07/12/2014  20:29:00     -162.838      -45.042       -3.572       61.508       33.970       22.946     3783.252     1153.954      526.527        1.701        0.273      168.953       26.146        0.024      350.041       30.913      863.053
07/12/2014  20:30:00     -163.299      -16.585      -17.291       54.641       42.307       28.966     2985.627     1789.844      839.014        1.643        0.281      164.139       25.089        0.023      350.032       30.896      863.059
07/12/2014  20:31:00     -124.343      -43.775       -1.663       65.803       53.661       32.646     4329.990     2879.470     1065.753        1.283        0.414      131.824       32.959        0.063      349.985       30.814      863.075
07/12/2014  20:32:00     -110.220      -24.620        0.216       50.405       48.863       24.060     2540.692     2387.545      578.894        0.913        0.275      112.937       25.306        0.050      350.014       30.865      863.064
07/12/2014  20:33:00     -109.879      -59.089        0.333       52.997       44.866       23.407     2808.715     2012.930      547.899        1.047        0.268      124.759       28.469        0.052      349.992       30.827      863.071
07/12/2014  20:34:00     -147.905       -7.197        5.004       64.830       45.979       35.749     4202.878     2114.102     1277.986        1.477        0.380      148.080       32.882        0.049      350.016       30.867      863.080
07/12/2014  20:35:00     -160.865      -60.935       -8.126       29.616       27.700       18.307      877.116      767.306      335.159        1.582        0.099      172.020       11.064        0.004      350.050       30.928      863.081
07/12/2014  20:36:00     -150.859      -42.970       -0.538       44.642       33.875       21.629     1992.918     1147.538      467.808        1.411        0.180      156.859       24.328        0.024      350.023       30.879      863.090
07/12/2014  20:37:00     -161.744      -39.396      -11.676       35.865       27.974       19.019     1286.280      782.527      361.728        1.514        0.122      166.472       15.926        0.009      350.077       30.974      863.089
07/12/2014  20:38:00     -136.664      -52.261        3.872       96.173       50.462       23.598     9249.250     2546.452      556.873        1.689        0.618      146.315       39.620        0.073      350.000       30.838      863.101
07/12/2014  20:39:00     -132.146      -29.567       -1.562       52.188       44.008       25.008     2723.589     1936.725      625.383        1.181        0.264      135.413       25.505        0.035      350.069       30.960      863.111
07/12/2014  20:40:00     -136.806      -53.617       -7.065       22.523       23.680       18.077      507.297      560.738      326.791        1.152        0.070      146.937       12.732        0.008      350.035       30.903      863.130
07/12/2014  20:41:00     -138.784      -31.188       -2.514       35.316       34.100       18.987     1247.245     1162.811      360.510        1.150        0.139      142.246       18.767        0.017      350.013       30.862      863.134
07/12/2014  20:42:00     -148.011      -39.744       -6.024       49.793       43.039       23.389     2479.300     1852.334      547.049        1.420        0.244      153.254       24.582        0.026      349.952       30.758      863.157
07/12/2014  20:43:00      -98.301      -30.446        6.480       47.031       46.708       27.826     2211.894     2181.622      774.304        0.790        0.258      102.908       26.811        0.068      349.962       30.775      863.168
07/12/2014  20:44:00     -141.526      -60.000       -1.535       63.449       68.475       33.901     4025.713     4688.824     1149.297        1.675        0.493      153.719       33.038        0.046      350.014       30.863      863.178
07/12/2014  20:45:00     -101.928      -37.680        8.519       66.084       51.901       25.424     4367.093     2693.670      646.392        0.979        0.385      108.670       30.195        0.077      349.920       30.703      863.192
07/12/2014  20:46:00     -124.728      -42.846        8.806      124.678       62.326       41.265    15544.619     3884.500     1702.823        1.930        1.057      131.881       62.364        0.224      349.859       30.594      863.203
07/12/2014  20:47:00     -175.077     -114.911        4.109      114.548      108.274       58.906    13121.223    11723.285     3469.929        3.609        1.416      209.420       68.261        0.106      349.948       30.748      863.199
07/12/2014  20:48:00     -151.936      -63.116      -16.018       84.955       77.349       46.476     7217.305     5982.887     2159.997        2.134        0.768      164.524       41.992        0.065      349.973       30.792      863.208
07/12/2014  20:49:00      -65.485        9.645       -5.763       61.255       52.832       43.112     3752.236     2791.240     1858.618        0.641        0.420       66.191       30.197        0.208      349.817       30.524      863.219
07/12/2014  20:50:00     -145.044      -75.231      -14.496       47.395       70.010       30.570     2246.257     4901.416      934.501        1.749        0.404      163.394       21.998        0.018      349.914       30.691      863.234
07/12/2014  20:51:00     -137.949      -33.867        7.702       98.911       82.105       45.920     9783.397     6741.181     2108.603        1.943        0.932      142.045       40.230        0.080      349.862       30.601      863.245
07/12/2014  20:52:00     -276.786      -60.529      -21.822       95.083       52.388       38.458     9040.740     2744.493     1479.029        4.700        0.663      283.327       40.705        0.021      349.958       30.763      863.252
07/12/2014  20:53:00     -283.957       10.275      -20.397       91.732       85.351       47.741     8414.726     7284.742     2279.173        4.956        0.899      284.143       45.084        0.025      349.908       30.678      863.260
07/12/2014  20:54:00     -341.317      -34.707      -14.799      130.807       87.781       49.314    17110.453     7705.462     2431.896        7.258        1.362      343.077       59.524        0.030      349.894       30.654      863.266
07/12/2014  20:55:00     -344.142      -79.577      -20.472      105.365       89.053       44.700    11101.697     7930.507     1998.071        7.310        1.052      353.223       48.664        0.019      349.869       30.613      863.278
07/12/2014  20:56:00     -180.606      -30.149       -2.248       92.570       55.222       38.225     8569.163     3049.488     1461.180        2.330        0.654      183.105       46.579        0.065      349.829       30.541      863.295
07/12/2014  20:57:00     -344.972       26.869      -33.675       83.073       76.795       38.933     6901.069     5897.484     1515.779        6.759        0.716      346.017       33.844        0.010      349.874       30.619      863.306
07/12/2014  20:58:00     -290.545      -60.375      -31.588      102.322       88.171       49.712    10469.892     7774.110     2471.304        5.488        1.036      296.751       53.192        0.032      349.859       30.591      863.323
07/12/2014  20:59:00     -259.699      -48.179      -10.539      116.181      115.097       55.302    13497.994    13247.228     3058.270        4.983        1.490      264.130       48.608        0.034      349.832       30.547      863.336
07/12/2014  21:00:00     -302.950      -51.649       -9.825      151.040       77.178       55.469    22813.022     5956.510     3076.795        6.319        1.592      307.322       70.056        0.052      349.828       30.538      863.358
07/12/2014  21:01:00     -283.302      -49.483      -15.166      121.555       94.357       61.098    14775.544     8903.163     3732.923        5.517        1.371      287.591       68.401        0.057      349.815       30.516      863.382
07/12/2014  21:02:00     -363.175      -91.049      -21.239      107.046      105.766       57.801    11458.747    11186.359     3340.928        8.331        1.299      374.414       54.519        0.021      349.900       30.665      863.412
07/12/2014  21:03:00     -294.777     -135.589      -14.576      132.737       87.235       54.664    17619.007     7609.908     2988.145        6.685        1.411      324.465       66.005        0.041      349.855       30.586      863.424
07/12/2014  21:04:00     -284.824      -42.485      -21.308       96.772       96.237       48.314     9364.830     9261.490     2334.274        5.217        1.048      287.975       47.643        0.027      349.869       30.611      863.453
07/12/2014  21:05:00     -228.499      -62.327      -15.116       83.941       86.126       43.872     7046.133     7417.723     1924.790        3.635        0.819      236.847       35.127        0.022      349.868       30.610      863.468
07/12/2014  21:06:00     -122.827      -37.397        0.143       76.173       85.337       40.721     5802.269     7282.438     1658.208        1.561        0.737      128.394       46.026        0.129      349.779       30.456      863.494
07/12/2014  21:07:00     -191.373       16.290      -28.704       54.166       57.561       31.129     2933.949     3313.293      969.016        2.246        0.361      192.065       15.856        0.007      349.753       30.410      863.504
07/12/2014  21:08:00     -226.295       83.556      -24.309       91.669       77.732       47.809     8403.202     6042.269     2285.711        3.775        0.837      241.228       58.566        0.059      349.696       30.310      863.521
07/12/2014  21:09:00     -160.924       38.937      -14.098       53.846       60.654       34.003     2899.428     3678.968     1156.219        1.767        0.387      165.568       27.467        0.028      349.638       30.211      863.514
07/12/2014  21:10:00      -76.866      -23.993      -13.654       43.653       50.935       27.369     1905.555     2594.356      749.062        0.596        0.262       80.523        6.948        0.007      349.625       30.190      863.524
07/12/2014  21:11:00     -187.712      -46.098       -9.957       90.698       81.926       39.289     8226.182     6711.816     1543.588        2.697        0.824      193.290       30.825        0.025      349.604       30.150      863.527
07/12/2014  21:12:00     -299.234      -74.056      -23.645       77.211       75.657       55.713     5961.573     5724.047     3103.896        5.518        0.739      308.262       36.048        0.014      349.554       30.065      863.534
07/12/2014  21:13:00     -243.314      -74.461      -15.232      113.687       72.909       53.260    12924.787     5315.669     2836.678        4.302        1.054      254.453       39.843        0.025      349.580       30.108      863.551
07/12/2014  21:14:00     -354.542     -127.505      -21.780       98.997       94.846       47.787     9800.375     8995.747     2283.644        8.175        1.054      376.773       34.184        0.008      349.638       30.208      863.578
07/12/2014  21:15:00     -281.240      -44.394      -17.053       93.471      103.016       55.380     8736.901    10612.359     3066.900        5.188        1.121      284.722       48.025        0.028      349.634       30.200      863.582
07/12/2014  21:16:00     -250.405      -70.127       -1.955       83.417       71.676       39.221     6958.337     5137.392     1538.289        4.063        0.682      260.039       38.977        0.022      349.634       30.201      863.596
07/12/2014  21:17:00     -218.872      -42.955      -12.326       88.474       44.775       44.261     7827.708     2004.817     1959.024        3.084        0.590      223.047       45.223        0.041      349.580       30.110      863.596
07/12/2014  21:18:00     -164.653      -61.922       -4.183       91.362       43.211       37.464     8347.093     1867.219     1403.515        2.129        0.581      175.912       46.319        0.069      349.572       30.096      863.613
07/12/2014  21:19:00     -197.778      -68.056       -9.241       70.928       42.907       30.595     5030.845     1841.043      936.055        2.582        0.390      209.160       37.207        0.032      349.575       30.101      863.616
07/12/2014  21:20:00     -169.882      -92.262       -0.022      151.070      103.998       52.036    22822.106    10815.675     2707.693        3.685        1.817      193.319       71.040        0.135      349.487       29.947      863.641
07/12/2014  21:21:00     -177.509      -48.517       -7.612      110.047       88.735       48.799    12110.438     7873.917     2381.379        2.814        1.118      184.020       41.599        0.051      349.542       30.045      863.648
07/12/2014  21:22:00     -202.305      -70.150        4.920       98.676       72.416       51.566     9736.994     5244.024     2659.051        3.175        0.882      214.122       47.970        0.050      349.545       30.050      863.661
07/12/2014  21:23:00      -76.547      -44.646       14.294       76.628       67.798       36.766     5871.872     4596.540     1351.775        0.994        0.591       88.616       43.852        0.245      349.431       29.854      863.669
07/12/2014  21:24:00      -57.018      -26.254        1.224       81.598       70.618       27.818     6658.214     4986.910      773.836        0.818        0.621       62.772       21.874        0.121      349.443       29.874      863.691
07/12/2014  21:25:00     -193.498      -67.167        0.406       52.578       45.493       29.675     2764.419     2069.637      880.577        2.383        0.286      204.824       24.518        0.014      349.555       30.066      863.708
07/12/2014  21:26:00     -161.118      -23.990      -12.284       56.018       52.628       36.014     3138.012     2769.730     1297.002        1.694        0.360      162.894       31.181        0.037      349.472       29.925      863.726
07/12/2014  21:27:00     -157.650       25.081       -6.017       68.527       43.609       38.541     4695.911     1901.721     1485.423        1.680        0.404      159.633       39.836        0.062      349.470       29.922      863.737
07/12/2014  21:28:00     -148.670      -43.281       -7.219       66.222       56.369       30.779     4385.331     3177.479      947.357        1.627        0.426      154.842       27.725        0.032      349.445       29.879      863.748
07/12/2014  21:29:00     -236.027      -59.327       -4.127       98.597       86.640       45.702     9721.432     7506.498     2088.689        3.928        0.966      243.369       45.717        0.035      349.565       30.082      863.749
07/12/2014  21:30:00     -281.827       27.892      -29.780       92.002       68.351       46.046     8464.457     4671.894     2120.257        4.817        0.763      283.203       28.497        0.010      349.563       30.079      863.754
07/12/2014  21:31:00     -290.085      -80.865      -16.787       93.181       89.275       44.530     8682.609     7970.100     1982.934        5.480        0.932      301.145       48.527        0.026      349.579       30.107      863.744
07/12/2014  21:32:00     -191.646      -28.439      -13.389       84.243       70.452       37.754     7096.859     4963.520     1425.378        2.560        0.674      193.744       38.484        0.039      349.505       29.980      863.745
07/12/2014  21:33:00     -130.320      -27.298        4.823       65.184       55.442       33.850     4248.940     3073.779     1145.854        1.311        0.423      133.148       33.396        0.063      349.445       29.878      863.766
07/12/2014  21:34:00     -181.969      -64.087       -2.748       86.282       65.866       35.647     7444.664     4338.267     1270.723        2.514        0.653      192.925       40.220        0.043      349.468       29.916      863.774
07/12/2014  21:35:00     -245.735        2.800      -22.777       82.278       99.410       43.763     6769.645     9882.441     1915.211        3.974        0.928      245.751       42.549        0.030      349.530       30.021      863.784
07/12/2014  21:36:00     -247.331      -59.434       -3.437       83.254       82.419       48.372     6931.208     6792.850     2339.866        4.039        0.803      254.372       43.417        0.029      349.468       29.914      863.785
07/12/2014  21:37:00     -281.895      -50.316       -6.118       93.916       79.032       46.632     8820.208     6245.993     2174.548        4.963        0.862      286.350       48.339        0.028      349.491       29.954      863.809
07/12/2014  21:38:00     -236.887      -58.119      -17.225       97.646       81.635       43.619     9534.823     6664.230     1902.620        3.894        0.905      243.912       45.767        0.035      349.461       29.902      863.825
07/12/2014  21:39:00     -236.379      -59.463       -5.131       88.987       62.510       35.407     7918.737     3907.512     1253.673        3.626        0.654      243.744       37.558        0.024      349.430       29.849      863.848
07/12/2014  21:40:00     -152.089      -50.050        2.102       78.836       67.657       42.551     6215.037     4577.536     1810.584        1.912        0.630      160.113       45.014        0.079      349.369       29.745      863.858
07/12/2014  21:41:00     -114.027      -65.668       -1.925       71.377       67.032       32.480     5094.671     4493.283     1054.966        1.398        0.532      131.584       34.377        0.068      349.374       29.753      863.868
07/12/2014  21:42:00     -161.501      -48.109        0.300      104.054       57.470       45.277    10827.328     3302.756     2049.984        2.229        0.809      168.514       49.619        0.087      349.330       29.675      863.875
07/12/2014  21:43:00     -261.171      -38.577       -9.960      115.094       67.707       53.593    13246.556     4584.211     2872.162        4.525        1.035      264.005       43.329        0.027      349.391       29.781      863.878
07/12/2014  21:44:00     -237.463      -44.253        1.687      107.954       81.081       53.920    11654.041     6574.135     2907.395        3.974        1.057      241.551       55.669        0.053      349.335       29.684      863.900
07/12/2014  21:45:00     -213.549      -43.548       -2.643      111.884       74.230       41.494    12518.050     5510.108     1721.733        3.362        0.987      217.944       47.235        0.047      349.289       29.605      863.919
07/12/2014  21:46:00     -159.606      -60.033        4.237       80.975       81.887       47.547     6557.002     6705.432     2260.675        2.231        0.776      170.522       46.676        0.075      349.307       29.636      863.931
07/12/2014  21:47:00     -181.823      -38.807      -11.697       56.932       57.341       29.344     3241.198     3287.970      861.050        2.104        0.370      185.918       29.053        0.024      349.294       29.615      863.947
07/12/2014  21:48:00     -149.850      -43.006       -2.701       80.215       65.470       35.166     6434.391     4286.271     1236.681        1.813        0.598      155.899       39.933        0.066      349.239       29.519      863.953
07/12/2014  21:49:00     -199.829       -2.603      -11.034       80.298       63.359       37.547     6447.791     4014.404     1409.744        2.596        0.594      199.846       40.028        0.040      349.207       29.463      863.965
07/12/2014  21:50:00     -238.385      -71.001        4.865       97.330       69.420       41.472     9473.143     4819.124     1719.888        3.895        0.801      248.734       44.239        0.032      349.207       29.461      863.970
07/12/2014  21:51:00     -251.608      -69.703       -5.046       70.260       53.526       36.036     4936.440     2865.014     1298.562        3.864        0.455      261.084       33.591        0.017      349.241       29.520      863.975
07/12/2014  21:52:00     -147.371      -77.736        2.529       94.928       69.670       41.428     9011.289     4853.929     1716.244        2.167        0.779      166.616       42.123        0.064      349.166       29.392      863.979
07/12/2014  21:53:00     -194.815     -107.258       -1.081       55.888       47.930       31.124     3123.516     2297.314      968.701        2.792        0.319      222.389       23.268        0.011      349.223       29.490      863.991
07/12/2014  21:54:00     -155.073      -56.406       -5.867       39.648       49.716       31.578     1571.996     2471.676      997.197        1.615        0.252      165.013       25.214        0.023      349.212       29.473      863.982
07/12/2014  21:55:00     -222.906      -63.518       -2.633       99.095      101.030       48.405     9819.889    10206.977     2343.086        3.804        1.118      231.779       53.064        0.052      349.349       29.707      863.982
07/12/2014  21:56:00     -238.775      -61.475      -22.915       90.005       54.411       36.866     8100.926     2960.512     1359.075        3.687        0.621      246.561       31.548        0.016      349.255       29.546      863.973
07/12/2014  21:57:00     -253.231      -89.581      -15.687      126.600       97.862       49.783    16027.480     9576.890     2478.366        5.023        1.404      268.608       49.072        0.033      349.241       29.520      863.966
07/12/2014  21:58:00     -164.782      -64.167      -13.214       64.597       74.895       36.927     4172.765     5609.277     1363.575        2.129        0.557      176.835       28.551        0.026      349.210       29.468      863.986
07/12/2014  21:59:00     -209.667      -52.221       -1.129       94.051       50.055       46.026     8845.536     2505.507     2118.351        3.008        0.673      216.073       50.822        0.055      349.216       29.478      863.995
07/12/2014  22:00:00     -182.344      -64.447       -3.811       81.631       61.635       33.579     6663.603     3798.876     1127.517        2.450        0.579      193.398       29.633        0.023      349.197       29.444      863.992
07/12/2014  22:01:00     -171.929      -74.149       -2.200       68.448       75.483       42.339     4685.073     5697.735     1792.604        2.362        0.609      187.236       40.353        0.046      349.155       29.375      864.003
07/12/2014  22:02:00     -272.932      -94.502      -17.164       79.472       95.582       47.717     6315.772     9135.891     2276.869        5.072        0.886      288.829       39.999        0.019      349.229       29.501      864.001
07/12/2014  22:03:00     -286.303      -90.773       -4.898      145.054      117.474       54.279    21040.685    13800.137     2946.174        6.400        1.889      300.348       67.617        0.051      349.213       29.473      864.005
07/12/2014  22:04:00     -285.382      -65.903      -11.404      144.377      105.594       57.056    20844.651    11150.179     3255.392        6.058        1.763      292.892       65.003        0.049      349.227       29.498      864.019
07/12/2014  22:05:00     -267.405      -82.621      -22.322      148.531      113.994       64.249    22061.353    12994.583     4127.910        5.900        1.959      279.877       58.620        0.044      349.234       29.509      864.008
07/12/2014  22:06:00     -257.210     -123.669       -9.538      154.235       90.944       59.462    23788.444     8270.797     3535.724        5.856        1.780      285.396       79.426        0.077      349.172       29.404      864.034
07/12/2014  22:07:00     -202.664      -11.518       -5.078      105.118       64.780       50.054    11049.817     4196.444     2505.383        2.949        0.888      202.991       58.879        0.084      349.147       29.357      864.054
07/12/2014  22:08:00     -227.847       25.498      -24.285       82.318       76.118       39.898     6776.257     5794.021     1591.854        3.366        0.708      229.270       32.779        0.020      349.139       29.345      864.063
07/12/2014  22:09:00     -190.591       -6.019      -10.685       73.106       79.925       38.287     5344.470     6388.046     1465.868        2.483        0.660      190.686       38.353        0.040      349.099       29.277      864.069
07/12/2014  22:10:00     -169.160       38.430        0.135       84.957       78.702       49.449     7217.735     6193.974     2445.237        2.297        0.793      173.471       43.599        0.063      349.151       29.366      864.037
07/12/2014  22:11:00     -204.897        3.002      -22.225       55.724       63.360       35.478     3105.205     4014.491     1258.706        2.543        0.419      204.919       27.948        0.019      349.101       29.280      864.052
07/12/2014  22:12:00     -331.613      -32.886      -32.975      100.033       55.937       49.289    10006.691     3129.001     2429.387        6.385        0.778      333.240       42.921        0.017      349.052       29.191      864.059
07/12/2014  22:13:00     -370.074      -88.023      -30.903      109.934      105.045       48.020    12085.492    11034.531     2305.901        8.554        1.271      380.398       52.378        0.019      349.018       29.133      864.059
07/12/2014  22:14:00     -299.840      -90.275      -18.037       79.235       68.980       50.346     6278.257     4758.172     2534.756        5.597        0.679      313.136       38.131        0.015      349.008       29.118      864.066
07/12/2014  22:15:00     -321.022      -91.693      -17.833       96.086       77.304       46.495     9232.568     5975.983     2161.805        6.457        0.869      333.860       42.965        0.017      348.998       29.100      864.075
07/12/2014  22:16:00     -257.376     -104.628       -0.442      101.755       73.260       45.165    10354.133     5366.976     2039.886        4.747        0.888      277.830       50.573        0.033      348.921       28.967      864.078
07/12/2014  22:17:00     -304.002     -105.361        0.489       88.976      104.869       46.417     7916.760    10997.483     2154.507        6.229        1.053      321.743       45.337        0.020      349.001       29.104      864.086
07/12/2014  22:18:00     -283.173      -33.047      -15.249       79.138       63.736       44.594     6262.841     4062.268     1988.637        4.691        0.616      285.094       36.125        0.016      348.997       29.097      864.094
07/12/2014  22:19:00     -337.895     -103.349       -9.390      132.301      113.019       62.854    17503.664    12773.212     3950.643        7.958        1.711      353.347       63.255        0.032      349.033       29.161      864.123
07/12/2014  22:20:00     -304.245     -153.822       -6.258      143.888      110.391       67.360    20703.868    12186.256     4537.302        7.684        1.871      340.920       76.747        0.051      349.106       29.286      864.121
07/12/2014  22:21:00     -178.932      -45.533       -3.896       95.618       71.017       32.761     9142.823     5043.387     1073.284        2.468        0.763      184.635       38.494        0.043      348.997       29.098      864.146
07/12/2014  22:22:00     -186.695      -60.997       -7.854       76.357       64.674       44.078     5830.320     4182.786     1942.901        2.529        0.598      196.407       41.961        0.046      348.977       29.062      864.162
07/12/2014  22:23:00     -262.808      -40.214      -25.662       60.625       42.665       30.568     3675.399     1820.336      934.387        3.889        0.322      265.867       26.982        0.010      348.929       28.979      864.172
07/12/2014  22:24:00     -167.292      -60.129        0.940       80.446       65.548       39.089     6471.528     4296.494     1527.955        2.195        0.615      177.770       43.294        0.059      348.808       28.773      864.182
07/12/2014  22:25:00     -205.841       -3.187      -14.514       74.913       64.837       42.059     5611.940     4203.857     1768.949        2.709        0.579      205.866       39.819        0.037      348.851       28.846      864.189
07/12/2014  22:26:00     -224.308      -28.366      -27.908       47.328       80.197       32.001     2239.909     6431.615     1024.033        3.079        0.485      226.095       19.988        0.008      348.871       28.879      864.189
07/12/2014  22:27:00     -183.153      -35.239      -10.968       62.814       55.249       38.504     3945.547     3052.483     1482.595        2.169        0.424      186.512       32.026        0.029      348.787       28.736      864.216
07/12/2014  22:28:00     -240.176      -17.416      -16.016       57.291       30.542       32.764     3282.244      932.819     1073.507        3.177        0.264      240.807       32.688        0.018      348.749       28.667      864.220
07/12/2014  22:29:00     -181.690      -76.306       -9.761       46.337       47.983       28.914     2147.081     2302.358      836.024        2.211        0.264      197.063       23.178        0.014      348.798       28.754      864.219
07/12/2014  22:30:00     -190.548      -63.462       -7.160       36.455       41.174       28.711     1328.932     1695.338      824.344        2.212        0.192      200.838       19.803        0.010      348.804       28.765      864.219
07/12/2014  22:31:00     -176.168      -73.866       -2.426       60.405       57.838       35.688     3648.771     3345.265     1273.630        2.238        0.413      191.027       29.268        0.023      348.797       28.752      864.214
07/12/2014  22:32:00     -205.027      -50.483       -8.163       80.887       43.873       34.156     6542.737     1924.820     1166.616        2.714        0.482      211.150       39.996        0.036      348.836       28.819      864.216
07/12/2014  22:33:00     -152.501      -26.095       -8.491       52.009       53.199       29.130     2704.969     2830.081      848.544        1.520        0.319      154.718       24.674        0.025      348.781       28.728      864.218
07/12/2014  22:34:00     -191.053     -120.336       -8.223       83.245       90.586       44.005     6929.695     8205.767     1936.463        3.406        0.854      225.792       38.368        0.029      348.910       28.948      864.218
07/12/2014  22:35:00     -208.974      -28.814        3.989      137.994       77.789       46.932    19042.358     6051.099     2202.595        3.590        1.365      210.951       55.947        0.070      348.791       28.741      864.245
07/12/2014  22:36:00     -238.651     -103.021       -5.835       84.865       86.668       49.122     7202.083     7511.424     2412.975        4.236        0.856      259.938       40.087        0.024      348.952       29.020      864.235
07/12/2014  22:37:00      -87.519      -49.009       12.541      103.725       70.579       52.836    10758.899     4981.394     2791.606        1.437        0.927      100.307       46.555        0.215      348.745       28.664      864.228
07/12/2014  22:38:00     -224.616      -80.544       -6.031       77.912       64.157       40.284     6070.244     4116.163     1622.823        3.439        0.590      238.620       40.885        0.029      348.845       28.834      864.239
07/12/2014  22:39:00     -255.323       -7.539      -10.074       92.204       63.904       44.736     8501.517     4083.784     2001.276        3.996        0.729      255.434       46.165        0.033      348.796       28.751      864.234
07/12/2014  22:40:00     -182.243      -28.870       -1.704      146.046       65.458       40.113    21329.319     4284.748     1609.062        3.063        1.361      184.516       68.461        0.138      348.746       28.666      864.237
07/12/2014  22:41:00     -183.905       12.485       -9.377       77.726       60.681       42.054     6041.324     3682.213     1768.510        2.278        0.575      184.329       42.639        0.054      348.689       28.566      864.255
07/12/2014  22:42:00     -147.503       19.093      -13.864       91.810       62.669       40.008     8429.109     3927.462     1600.642        1.813        0.698      148.734       38.227        0.066      348.682       28.555      864.266
07/12/2014  22:43:00     -119.416       15.703       -3.557       85.466       45.500       29.371     7304.431     2070.282      862.671        1.238        0.512      120.444       33.660        0.078      348.610       28.429      864.261
07/12/2014  22:44:00     -156.166      -59.879      -18.481       67.638       74.397       40.003     4574.887     5534.889     1600.203        2.001        0.585      167.253       38.670        0.053      348.672       28.538      864.254
07/12/2014  22:45:00     -211.619      -15.177      -16.435       57.738       64.920       35.061     3333.680     4214.542     1229.292        2.703        0.439      212.163       31.778        0.022      348.694       28.574      864.262
07/12/2014  22:46:00     -203.639      -95.113        0.240       82.670       51.205       35.566     6834.404     2621.988     1264.922        3.062        0.536      224.756       41.103        0.033      348.665       28.523      864.270
07/12/2014  22:47:00     -267.696      -50.228       -9.706      106.953       70.032       55.382    11438.912     4904.515     3067.161        4.684        0.971      272.368       64.709        0.056      348.682       28.555      864.270
07/12/2014  22:48:00     -129.706      -53.165        9.776      101.845       62.816       39.365    10372.464     3945.795     1549.583        1.780        0.793      140.179       44.434        0.100      348.543       28.312      864.267
07/12/2014  22:49:00     -132.633      -63.327        3.739       84.102       73.145       39.475     7073.062     5350.221     1558.270        1.780        0.699      146.975       36.008        0.060      348.620       28.447      864.266
07/12/2014  22:50:00     -157.545      -60.408        6.709      146.395       69.385       51.190    21431.372     4814.233     2620.421        2.868        1.443      168.730       62.235        0.136      348.674       28.541      864.267
07/12/2014  22:51:00     -230.053       -9.193        5.183      134.461       95.758       58.590    18079.850     9169.608     3432.738        4.185        1.534      230.237       70.267        0.093      348.701       28.586      864.303
07/12/2014  22:52:00     -156.633       37.040      -16.550       62.156       64.920       28.999     3863.407     4214.580      840.926        1.755        0.446      160.953       32.240        0.040      348.603       28.419      864.337
07/12/2014  22:53:00     -197.090      -54.039      -16.033       71.700       65.143       37.164     5140.917     4243.551     1381.161        2.639        0.538      204.364       36.183        0.031      348.646       28.493      864.345
07/12/2014  22:54:00     -274.264        2.611      -28.931       70.622       61.782       28.985     4987.421     3817.073      840.131        4.285        0.482      274.276       24.223        0.008      348.670       28.532      864.350
07/12/2014  22:55:00     -220.526      -40.006       -6.625       90.723       77.587       42.835     8230.605     6019.702     1834.809        3.318        0.804      224.125       35.459        0.025      348.664       28.521      864.353
07/12/2014  22:56:00     -284.874      -96.054      -26.476       91.084       66.888       44.237     8296.276     4473.994     1956.939        5.290        0.736      300.632       32.642        0.012      348.708       28.597      864.350
07/12/2014  22:57:00     -220.385      -71.862      -10.658       84.539       64.959       39.654     7146.902     4219.693     1572.452        3.339        0.647      231.805       42.666        0.034      348.626       28.457      864.339
07/12/2014  22:58:00     -229.329        6.369      -12.010      115.989       97.701       49.983    13453.529     9545.575     2498.275        3.913        1.275      229.418       61.858        0.073      348.617       28.441      864.336
07/12/2014  22:59:00     -254.557      -77.781      -19.687      120.301       91.091       40.874    14472.426     8297.490     1670.719        4.783        1.222      266.175       44.473        0.028      348.652       28.500      864.318
07/12/2014  23:00:00     -346.688      -66.558      -10.142      163.798      121.890       62.142    26829.654    14857.250     3861.638        8.513        2.277      353.019       80.458        0.052      348.611       28.430      864.299
07/12/2014  23:01:00     -299.002        4.112      -10.871      121.032      104.895       63.000    14648.755    11002.884     3969.041        5.957        1.481      299.030       63.979        0.046      348.667       28.527      864.316
07/12/2014  23:02:00     -332.819      -43.420      -18.010      122.532       84.432       59.585    15014.173     7128.828     3550.423        6.933        1.285      335.639       67.510        0.040      348.629       28.461      864.318
07/12/2014  23:03:00     -306.742      -59.735        6.196      168.731      116.957       60.809    28470.091    13678.825     3697.727        7.176        2.292      312.504       72.772        0.054      348.631       28.465      864.298
07/12/2014  23:04:00     -377.490       56.450      -22.670       91.148       73.339       64.266     8307.938     5378.660     4130.069        8.200        0.891      381.687       45.792        0.014      348.692       28.570      864.302
07/12/2014  23:05:00     -365.265      -34.616      -28.900       97.470       83.083       63.959     9500.432     6902.748     4090.803        7.797        1.025      366.901       65.278        0.032      348.632       28.467      864.309
07/12/2014  23:06:00     -333.885      -90.047      -36.379       97.327       96.960       55.274     9472.633     9401.333     3055.268        7.142        1.096      345.815       45.738        0.017      348.639       28.477      864.306
07/12/2014  23:07:00     -368.938      -82.929      -19.829      118.210       81.655       56.210    13973.721     6667.618     3159.531        8.359        1.190      378.144       61.712        0.027      348.662       28.518      864.297
07/12/2014  23:08:00     -240.986      -77.576      -12.155      119.328       78.281       53.805    14239.111     6127.861     2894.970        4.375        1.163      253.165       64.577        0.065      348.557       28.335      864.305
07/12/2014  23:09:00     -246.338      -10.490       -5.645       88.635      101.321       43.238     7856.112    10265.975     1869.493        4.040        1.000      246.562       40.322        0.027      348.639       28.478      864.328
07/12/2014  23:10:00     -305.910       -3.470      -18.809      101.045      100.864       54.239    10210.132    10173.591     2941.870        5.863        1.166      305.929       48.607        0.025      348.617       28.441      864.348
07/12/2014  23:11:00     -207.347      -33.562        1.240       93.385       69.773       45.111     8720.727     4868.341     2034.992        2.987        0.781      210.046       23.685        0.013      348.600       28.411      864.348
07/12/2014  23:12:00     -208.244       -7.905      -19.943       55.193       64.645       37.302     3046.278     4178.933     1391.464        2.622        0.431      208.394       24.204        0.013      348.579       28.374      864.370
07/12/2014  23:13:00     -235.210        0.601      -16.988       73.345       69.770       42.989     5379.478     4867.868     1848.096        3.385        0.605      235.211       32.488        0.019      348.495       28.229      864.396
07/12/2014  23:14:00     -251.582      -22.489      -16.487      132.618       70.630       42.030    17587.469     4988.578     1766.533        4.420        1.217      252.585       56.444        0.050      348.497       28.234      864.403
07/12/2014  23:15:00     -309.068      -24.592      -14.796      100.877       67.154       46.071    10176.151     4509.593     2122.582        5.657        0.840      310.045       43.604        0.020      348.507       28.249      864.418
07/12/2014  23:16:00     -251.870      -22.306      -14.864      100.185       78.821       53.286    10037.063     6212.754     2839.404        4.162        0.954      252.856       54.549        0.047      348.449       28.150      864.429
07/12/2014  23:17:00     -264.114       -0.722      -25.531       78.994       79.165       44.975     6240.006     6267.135     2022.733        4.247        0.726      264.115       37.960        0.021      348.444       28.141      864.436
07/12/2014  23:18:00     -236.614      -56.413       -2.414       86.661       60.674       44.522     7510.209     3681.323     1982.215        3.617        0.659      243.246       49.183        0.041      348.437       28.129      864.444
07/12/2014  23:19:00     -219.576      -41.159       -6.802      103.594       65.512       44.210    10731.650     4291.847     1954.514        3.346        0.849      223.400       52.073        0.054      348.405       28.074      864.437
07/12/2014  23:20:00     -324.033      -25.570      -17.513      103.394       86.984       50.336    10690.227     7566.209     2533.754        6.337        1.040      325.040       52.321        0.026      348.458       28.167      864.424
07/12/2014  23:21:00     -347.369      -30.935      -14.548       97.057       96.020       51.932     9420.017     9219.826     2696.916        7.158        1.067      348.744       54.828        0.025      348.470       28.186      864.445
07/12/2014  23:22:00     -226.111      -26.286      -12.095       71.025       80.708       43.044     5044.570     6513.782     1852.793        3.268        0.671      227.634       38.646        0.029      348.386       28.039      864.441
07/12/2014  23:23:00     -178.200      -55.230       -0.983       81.285       71.927       41.645     6607.309     5173.471     1734.285        2.416        0.676      186.562       40.635        0.047      348.368       28.009      864.432
07/12/2014  23:24:00     -166.927      -70.754       -1.303      125.508       74.495       42.812    15752.190     5549.547     1832.892        2.800        1.157      181.303       51.771        0.082      348.354       27.987      864.431
07/12/2014  23:25:00     -232.907      -46.008       -9.421       78.137       75.604       46.107     6105.315     5715.942     2125.891        3.520        0.697      237.408       41.405        0.030      348.389       28.046      864.433
07/12/2014  23:26:00     -205.488      -33.803       -0.661       95.983       71.489       48.716     9212.743     5110.730     2373.232        3.003        0.835      208.249       46.541        0.050      348.326       27.937      864.444
07/12/2014  23:27:00     -169.486      -19.095        5.727       96.561       71.870       41.857     9324.113     5165.243     1751.978        2.268        0.812      170.558       42.312        0.062      348.329       27.943      864.473
07/12/2014  23:28:00     -228.979      -46.978       -5.521       85.287       63.608       42.771     7273.814     4046.028     1829.321        3.391        0.657      233.748       41.092        0.031      348.390       28.048      864.500
07/12/2014  23:29:00     -161.318      -79.918        8.373       96.126       60.520       42.194     9240.198     3662.661     1780.356        2.358        0.734      180.029       50.686        0.079      348.368       28.011      864.501
07/12/2014  23:30:00     -148.781      -84.138       11.527      102.527       70.969       43.717    10511.856     5036.618     1911.217        2.340        0.873      170.924       47.810        0.078      348.337       27.957      864.517
07/12/2014  23:31:00     -242.765     -129.490       -6.398      136.182       91.715       56.093    18545.411     8411.644     3146.444        5.292        1.505      275.141       63.270        0.053      348.453       28.156      864.526
07/12/2014  23:32:00     -149.036     -121.290       -9.171      140.524       94.036       55.625    19747.047     8842.715     3094.095        3.434        1.584      192.154       61.701        0.103      348.449       28.151      864.534
07/12/2014  23:33:00      -99.438        6.181        8.393       90.652       72.014       44.301     8217.710     5186.077     1962.537        1.268        0.768       99.630       48.959        0.241      348.351       27.982      864.537
07/12/2014  23:34:00     -146.296        4.712        1.553       84.365       74.153       32.834     7117.407     5498.595     1078.046        1.756        0.685      146.372       34.264        0.055      348.319       27.925      864.554
07/12/2014  23:35:00     -112.519       38.708       -0.891       51.648       27.003       22.632     2667.491      729.136      512.207        0.903        0.195      118.991       21.157        0.032      348.380       28.033      864.557
07/12/2014  23:36:00     -142.266      -30.313      -11.793       58.359       49.153       29.412     3405.727     2416.056      865.063        1.399        0.334      145.459       30.935        0.045      348.363       28.003      864.537
07/12/2014  23:37:00     -218.440      -42.626        2.614      114.740       88.456       51.192    13165.196     7824.507     2620.619        3.657        1.181      222.560       55.398        0.062      348.298       27.891      864.525
07/12/2014  23:38:00     -142.816      -70.645        2.946      110.370       71.256       47.866    12181.464     5077.384     2291.141        2.247        0.977      159.333       54.175        0.116      348.323       27.934      864.516
07/12/2014  23:39:00     -153.094      -95.950        7.345       81.245       65.715       49.391     6600.763     4318.428     2439.513        2.303        0.668      180.677       46.894        0.067      348.375       28.024      864.531
07/12/2014  23:40:00     -182.090      -69.961        3.060       85.482       91.306       47.706     7307.247     8336.793     2275.874        2.799        0.896      195.068       41.910        0.046      348.366       28.008      864.542
07/12/2014  23:41:00     -218.532      -76.835      -14.840       68.488       68.438       41.539     4690.557     4683.769     1725.526        3.249        0.555      231.645       34.801        0.023      348.307       27.904      864.561
07/12/2014  23:42:00     -223.139      -83.014        0.093      108.003       87.678       44.567    11664.578     7687.492     1986.226        3.901        1.067      238.081       50.123        0.044      348.296       27.883      864.589
07/12/2014  23:43:00     -161.454      -30.521        3.042       92.466       49.859       39.464     8549.953     2485.873     1557.391        1.980        0.630      164.314       41.261        0.063      348.251       27.809      864.600
07/12/2014  23:44:00     -111.973      -54.718        5.050       82.269       48.358       33.809     6768.208     2338.468     1143.035        1.290        0.512      124.627       37.019        0.088      348.240       27.790      864.594
07/12/2014  23:45:00     -184.461      -79.153      -10.041       98.864       65.271       42.166     9774.079     4260.348     1777.967        2.810        0.791      200.727       46.350        0.053      348.306       27.904      864.604
07/12/2014  23:46:00     -144.118      -26.728       -0.512       94.235       72.302       40.247     8880.274     5227.624     1619.846        1.860        0.786      146.576       33.825        0.053      348.354       27.989      864.615
07/12/2014  23:47:00     -166.392      -39.676       -7.711       70.921       51.392       38.262     5029.730     2641.112     1463.991        1.923        0.457      171.057       36.345        0.045      348.355       27.987      864.619
07/12/2014  23:48:00     -177.907      -91.329       -4.261       78.476       67.842       39.529     6158.455     4602.498     1562.529        2.616        0.616      199.980       39.560        0.039      348.309       27.908      864.619
07/12/2014  23:49:00     -228.650      -54.505       -7.117       84.071       65.703       37.397     7067.925     4316.901     1398.503        3.404        0.639      235.057       41.228        0.031      348.266       27.831      864.637
07/12/2014  23:50:00     -159.521      -57.559        6.246       82.156       71.824       42.005     6749.550     5158.694     1764.435        2.123        0.684      169.588       40.013        0.056      348.222       27.759      864.652
07/12/2014  23:51:00     -218.927      -34.985      -12.097       89.830       63.269       40.466     8069.476     4002.906     1637.537        3.150        0.685      221.704       43.183        0.038      348.250       27.806      864.664
07/12/2014  23:52:00     -160.364      -43.847        6.973       80.814       51.192       32.214     6530.916     2620.654     1037.757        1.894        0.509      166.251       37.822        0.052      348.214       27.746      864.662
07/12/2014  23:53:00     -166.913      -22.517      -11.470       56.955       55.979       35.093     3243.867     3133.696     1231.544        1.805        0.380      168.425       29.773        0.031      348.287       27.871      864.667
07/12/2014  23:54:00     -234.125       10.795      -21.962       67.072       57.924       26.743     4498.622     3355.185      715.183        3.199        0.428      234.374       29.816        0.016      348.280       27.858      864.674
07/12/2014  23:55:00     -151.559      -93.656       -2.200       56.711       57.320       35.818     3216.167     3285.609     1282.956        1.976        0.389      178.161       33.320        0.035      348.203       27.727      864.670
07/12/2014  23:56:00     -196.976      -24.423      -11.088       56.225       54.857       35.740     3161.208     3009.264     1277.350        2.348        0.372      198.484       33.588        0.029      348.221       27.757      864.675
07/12/2014  23:57:00     -185.160      -35.882       -7.915       54.519       53.527       28.916     2972.315     2865.118      836.144        2.115        0.334      188.604       25.295        0.018      348.163       27.655      864.690
07/12/2014  23:58:00     -152.334      -46.312      -11.721       56.728       47.773       30.753     3218.073     2282.238      945.763        1.597        0.322      159.218       31.797        0.040      348.101       27.551      864.687
07/12/2014  23:59:00     -146.156      -37.463        0.556       58.690       40.961       27.457     3444.573     1677.813      753.906        1.432        0.294      150.880       29.712        0.039      348.146       27.628      864.671
